<?xml version="1.0" encoding="UTF-8" standalone="no" ?>
<gpx xmlns="http://www.topografix.com/GPX/1/1" xmlns:xsi="http://www.w3.org/2001/XMLSchema-instance" xsi:schemaLocation="http://www.topografix.com/GPX/1/1 http://www.topografix.com/GPX/1/1/gpx.xsd" version="1.1" creator="VisuGPX - https://www.visugpx.com">
  <metadata>
    <name>VTT : Petite sortie autour d'Anglés -</name>
    <desc><![CDATA[Aucune difficulté , juste le plaisir de balader en foret -]]></desc>
  </metadata>
  <trk>
    <name><![CDATA[VTT : Petite sortie autour d'Anglés -]]></name>
    <extensions>
      <line xmlns="http://www.topografix.com/GPX/gpx_style/0/2">
        <color>0000FF</color>
        <width>4</width>
      </line>
    </extensions>
    <trkseg>
      <trkpt lat="43.56991" lon="2.57058">
        <ele>782.40002441406</ele>
        <time>2021-07-28T13:44:55.000Z</time>
      </trkpt>
      <trkpt lat="43.56991" lon="2.57058">
        <ele>782.40002441406</ele>
        <time>2021-07-28T13:44:56.000Z</time>
      </trkpt>
      <trkpt lat="43.56993" lon="2.57054">
        <ele>782.40002441406</ele>
        <time>2021-07-28T13:45:00.000Z</time>
      </trkpt>
      <trkpt lat="43.56998" lon="2.57051">
        <ele>782.40002441406</ele>
        <time>2021-07-28T13:45:02.000Z</time>
      </trkpt>
      <trkpt lat="43.57001" lon="2.57048">
        <ele>782.40002441406</ele>
        <time>2021-07-28T13:45:04.000Z</time>
      </trkpt>
      <trkpt lat="43.57001" lon="2.57044">
        <ele>782.40002441406</ele>
        <time>2021-07-28T13:45:05.000Z</time>
      </trkpt>
      <trkpt lat="43.57" lon="2.5704">
        <ele>782.40002441406</ele>
        <time>2021-07-28T13:45:06.000Z</time>
      </trkpt>
      <trkpt lat="43.56992" lon="2.57032">
        <ele>782</ele>
        <time>2021-07-28T13:45:08.000Z</time>
      </trkpt>
      <trkpt lat="43.56986" lon="2.57029">
        <ele>781.59997558594</ele>
        <time>2021-07-28T13:45:09.000Z</time>
      </trkpt>
      <trkpt lat="43.56979" lon="2.57025">
        <ele>781</ele>
        <time>2021-07-28T13:45:10.000Z</time>
      </trkpt>
      <trkpt lat="43.56971" lon="2.57023">
        <ele>780.20001220703</ele>
        <time>2021-07-28T13:45:11.000Z</time>
      </trkpt>
      <trkpt lat="43.56962" lon="2.5702">
        <ele>779.40002441406</ele>
        <time>2021-07-28T13:45:12.000Z</time>
      </trkpt>
      <trkpt lat="43.56952" lon="2.57016">
        <ele>778.40002441406</ele>
        <time>2021-07-28T13:45:13.000Z</time>
      </trkpt>
      <trkpt lat="43.56943" lon="2.57011">
        <ele>777.40002441406</ele>
        <time>2021-07-28T13:45:14.000Z</time>
      </trkpt>
      <trkpt lat="43.56933" lon="2.57005">
        <ele>776.59997558594</ele>
        <time>2021-07-28T13:45:15.000Z</time>
      </trkpt>
      <trkpt lat="43.56926" lon="2.56996">
        <ele>775.59997558594</ele>
        <time>2021-07-28T13:45:16.000Z</time>
      </trkpt>
      <trkpt lat="43.56919" lon="2.56991">
        <ele>775.59997558594</ele>
        <time>2021-07-28T13:45:17.000Z</time>
      </trkpt>
      <trkpt lat="43.56908" lon="2.56982">
        <ele>775.20001220703</ele>
        <time>2021-07-28T13:45:19.000Z</time>
      </trkpt>
      <trkpt lat="43.56905" lon="2.5698">
        <ele>774.79998779297</ele>
        <time>2021-07-28T13:45:20.000Z</time>
      </trkpt>
      <trkpt lat="43.56905" lon="2.5698">
        <ele>774.20001220703</ele>
        <time>2021-07-28T13:45:21.000Z</time>
      </trkpt>
      <trkpt lat="43.56905" lon="2.5698">
        <ele>773.79998779297</ele>
        <time>2021-07-28T13:45:22.000Z</time>
      </trkpt>
      <trkpt lat="43.56902" lon="2.56976">
        <ele>773.40002441406</ele>
        <time>2021-07-28T13:45:35.000Z</time>
      </trkpt>
      <trkpt lat="43.56898" lon="2.56971">
        <ele>773.40002441406</ele>
        <time>2021-07-28T13:45:37.000Z</time>
      </trkpt>
      <trkpt lat="43.56881" lon="2.56949">
        <ele>773.40002441406</ele>
        <time>2021-07-28T13:45:43.000Z</time>
      </trkpt>
      <trkpt lat="43.56873" lon="2.56936">
        <ele>773</ele>
        <time>2021-07-28T13:45:46.000Z</time>
      </trkpt>
      <trkpt lat="43.5687" lon="2.56932">
        <ele>772.59997558594</ele>
        <time>2021-07-28T13:45:47.000Z</time>
      </trkpt>
      <trkpt lat="43.56868" lon="2.56928">
        <ele>772.20001220703</ele>
        <time>2021-07-28T13:45:48.000Z</time>
      </trkpt>
      <trkpt lat="43.56866" lon="2.56924">
        <ele>771.79998779297</ele>
        <time>2021-07-28T13:45:49.000Z</time>
      </trkpt>
      <trkpt lat="43.56865" lon="2.56921">
        <ele>771.40002441406</ele>
        <time>2021-07-28T13:45:50.000Z</time>
      </trkpt>
      <trkpt lat="43.56865" lon="2.56919">
        <ele>771.40002441406</ele>
        <time>2021-07-28T13:45:51.000Z</time>
      </trkpt>
      <trkpt lat="43.56865" lon="2.5692">
        <ele>771.40002441406</ele>
        <time>2021-07-28T13:45:52.000Z</time>
      </trkpt>
      <trkpt lat="43.56865" lon="2.56914">
        <ele>771.40002441406</ele>
        <time>2021-07-28T13:46:12.000Z</time>
      </trkpt>
      <trkpt lat="43.5687" lon="2.56895">
        <ele>771.40002441406</ele>
        <time>2021-07-28T13:46:16.000Z</time>
      </trkpt>
      <trkpt lat="43.56876" lon="2.56876">
        <ele>771</ele>
        <time>2021-07-28T13:46:19.000Z</time>
      </trkpt>
      <trkpt lat="43.56878" lon="2.56868">
        <ele>770.59997558594</ele>
        <time>2021-07-28T13:46:20.000Z</time>
      </trkpt>
      <trkpt lat="43.5688" lon="2.56861">
        <ele>769.59997558594</ele>
        <time>2021-07-28T13:46:21.000Z</time>
      </trkpt>
      <trkpt lat="43.56882" lon="2.56853">
        <ele>769.20001220703</ele>
        <time>2021-07-28T13:46:22.000Z</time>
      </trkpt>
      <trkpt lat="43.56888" lon="2.5683">
        <ele>768.79998779297</ele>
        <time>2021-07-28T13:46:25.000Z</time>
      </trkpt>
      <trkpt lat="43.56891" lon="2.56823">
        <ele>768.40002441406</ele>
        <time>2021-07-28T13:46:26.000Z</time>
      </trkpt>
      <trkpt lat="43.56893" lon="2.56816">
        <ele>768</ele>
        <time>2021-07-28T13:46:27.000Z</time>
      </trkpt>
      <trkpt lat="43.56895" lon="2.56808">
        <ele>767.59997558594</ele>
        <time>2021-07-28T13:46:28.000Z</time>
      </trkpt>
      <trkpt lat="43.56897" lon="2.568">
        <ele>767.20001220703</ele>
        <time>2021-07-28T13:46:29.000Z</time>
      </trkpt>
      <trkpt lat="43.56902" lon="2.56771">
        <ele>767.20001220703</ele>
        <time>2021-07-28T13:46:33.000Z</time>
      </trkpt>
      <trkpt lat="43.569" lon="2.56746">
        <ele>767.20001220703</ele>
        <time>2021-07-28T13:46:37.000Z</time>
      </trkpt>
      <trkpt lat="43.56898" lon="2.5674">
        <ele>767.20001220703</ele>
        <time>2021-07-28T13:46:38.000Z</time>
      </trkpt>
      <trkpt lat="43.56891" lon="2.56726">
        <ele>767.20001220703</ele>
        <time>2021-07-28T13:46:41.000Z</time>
      </trkpt>
      <trkpt lat="43.56889" lon="2.56722">
        <ele>766.79998779297</ele>
        <time>2021-07-28T13:46:42.000Z</time>
      </trkpt>
      <trkpt lat="43.56887" lon="2.56718">
        <ele>766.40002441406</ele>
        <time>2021-07-28T13:46:43.000Z</time>
      </trkpt>
      <trkpt lat="43.56886" lon="2.56713">
        <ele>766</ele>
        <time>2021-07-28T13:46:44.000Z</time>
      </trkpt>
      <trkpt lat="43.56883" lon="2.56709">
        <ele>765.59997558594</ele>
        <time>2021-07-28T13:46:45.000Z</time>
      </trkpt>
      <trkpt lat="43.56881" lon="2.56704">
        <ele>765</ele>
        <time>2021-07-28T13:46:46.000Z</time>
      </trkpt>
      <trkpt lat="43.56875" lon="2.56694">
        <ele>765</ele>
        <time>2021-07-28T13:46:48.000Z</time>
      </trkpt>
      <trkpt lat="43.56858" lon="2.56668">
        <ele>765</ele>
        <time>2021-07-28T13:46:53.000Z</time>
      </trkpt>
      <trkpt lat="43.56854" lon="2.56662">
        <ele>765</ele>
        <time>2021-07-28T13:46:54.000Z</time>
      </trkpt>
      <trkpt lat="43.56841" lon="2.56649">
        <ele>765</ele>
        <time>2021-07-28T13:46:57.000Z</time>
      </trkpt>
      <trkpt lat="43.56828" lon="2.56641">
        <ele>765</ele>
        <time>2021-07-28T13:47:00.000Z</time>
      </trkpt>
      <trkpt lat="43.56811" lon="2.56626">
        <ele>765</ele>
        <time>2021-07-28T13:47:05.000Z</time>
      </trkpt>
      <trkpt lat="43.56795" lon="2.56613">
        <ele>765</ele>
        <time>2021-07-28T13:47:10.000Z</time>
      </trkpt>
      <trkpt lat="43.56795" lon="2.5661">
        <ele>765</ele>
        <time>2021-07-28T13:47:11.000Z</time>
      </trkpt>
      <trkpt lat="43.56796" lon="2.56606">
        <ele>765</ele>
        <time>2021-07-28T13:47:13.000Z</time>
      </trkpt>
      <trkpt lat="43.56808" lon="2.56595">
        <ele>765</ele>
        <time>2021-07-28T13:47:17.000Z</time>
      </trkpt>
      <trkpt lat="43.56812" lon="2.5659">
        <ele>765</ele>
        <time>2021-07-28T13:47:18.000Z</time>
      </trkpt>
      <trkpt lat="43.56822" lon="2.56578">
        <ele>765</ele>
        <time>2021-07-28T13:47:20.000Z</time>
      </trkpt>
      <trkpt lat="43.56828" lon="2.56566">
        <ele>765</ele>
        <time>2021-07-28T13:47:22.000Z</time>
      </trkpt>
      <trkpt lat="43.56833" lon="2.56552">
        <ele>764.59997558594</ele>
        <time>2021-07-28T13:47:24.000Z</time>
      </trkpt>
      <trkpt lat="43.56835" lon="2.56545">
        <ele>764.20001220703</ele>
        <time>2021-07-28T13:47:25.000Z</time>
      </trkpt>
      <trkpt lat="43.56836" lon="2.56539">
        <ele>763.79998779297</ele>
        <time>2021-07-28T13:47:26.000Z</time>
      </trkpt>
      <trkpt lat="43.56837" lon="2.56532">
        <ele>763.40002441406</ele>
        <time>2021-07-28T13:47:27.000Z</time>
      </trkpt>
      <trkpt lat="43.56839" lon="2.56527">
        <ele>763</ele>
        <time>2021-07-28T13:47:28.000Z</time>
      </trkpt>
      <trkpt lat="43.56843" lon="2.5649">
        <ele>763</ele>
        <time>2021-07-28T13:47:35.000Z</time>
      </trkpt>
      <trkpt lat="43.56841" lon="2.5646">
        <ele>763</ele>
        <time>2021-07-28T13:47:40.000Z</time>
      </trkpt>
      <trkpt lat="43.56841" lon="2.56454">
        <ele>762.59997558594</ele>
        <time>2021-07-28T13:47:41.000Z</time>
      </trkpt>
      <trkpt lat="43.56841" lon="2.56448">
        <ele>762</ele>
        <time>2021-07-28T13:47:42.000Z</time>
      </trkpt>
      <trkpt lat="43.56841" lon="2.56442">
        <ele>761.59997558594</ele>
        <time>2021-07-28T13:47:43.000Z</time>
      </trkpt>
      <trkpt lat="43.56841" lon="2.56437">
        <ele>761.20001220703</ele>
        <time>2021-07-28T13:47:44.000Z</time>
      </trkpt>
      <trkpt lat="43.56841" lon="2.56431">
        <ele>760.59997558594</ele>
        <time>2021-07-28T13:47:45.000Z</time>
      </trkpt>
      <trkpt lat="43.56841" lon="2.56424">
        <ele>760.59997558594</ele>
        <time>2021-07-28T13:47:46.000Z</time>
      </trkpt>
      <trkpt lat="43.56838" lon="2.56387">
        <ele>760.59997558594</ele>
        <time>2021-07-28T13:47:52.000Z</time>
      </trkpt>
      <trkpt lat="43.56838" lon="2.56358">
        <ele>760.59997558594</ele>
        <time>2021-07-28T13:47:57.000Z</time>
      </trkpt>
      <trkpt lat="43.56839" lon="2.56352">
        <ele>760.59997558594</ele>
        <time>2021-07-28T13:47:58.000Z</time>
      </trkpt>
      <trkpt lat="43.56841" lon="2.56336">
        <ele>760.59997558594</ele>
        <time>2021-07-28T13:48:01.000Z</time>
      </trkpt>
      <trkpt lat="43.56842" lon="2.56328">
        <ele>760.20001220703</ele>
        <time>2021-07-28T13:48:03.000Z</time>
      </trkpt>
      <trkpt lat="43.56843" lon="2.56325">
        <ele>759.79998779297</ele>
        <time>2021-07-28T13:48:04.000Z</time>
      </trkpt>
      <trkpt lat="43.56844" lon="2.56324">
        <ele>759.40002441406</ele>
        <time>2021-07-28T13:48:05.000Z</time>
      </trkpt>
      <trkpt lat="43.56844" lon="2.56325">
        <ele>759</ele>
        <time>2021-07-28T13:48:06.000Z</time>
      </trkpt>
      <trkpt lat="43.56844" lon="2.56321">
        <ele>758.59997558594</ele>
        <time>2021-07-28T13:48:10.000Z</time>
      </trkpt>
      <trkpt lat="43.56844" lon="2.56317">
        <ele>758.59997558594</ele>
        <time>2021-07-28T13:48:11.000Z</time>
      </trkpt>
      <trkpt lat="43.56844" lon="2.56293">
        <ele>758.59997558594</ele>
        <time>2021-07-28T13:48:15.000Z</time>
      </trkpt>
      <trkpt lat="43.56844" lon="2.56286">
        <ele>758.59997558594</ele>
        <time>2021-07-28T13:48:16.000Z</time>
      </trkpt>
      <trkpt lat="43.56846" lon="2.56252">
        <ele>758.20001220703</ele>
        <time>2021-07-28T13:48:20.000Z</time>
      </trkpt>
      <trkpt lat="43.56846" lon="2.56243">
        <ele>757.79998779297</ele>
        <time>2021-07-28T13:48:21.000Z</time>
      </trkpt>
      <trkpt lat="43.56847" lon="2.56235">
        <ele>757.20001220703</ele>
        <time>2021-07-28T13:48:22.000Z</time>
      </trkpt>
      <trkpt lat="43.56847" lon="2.56226">
        <ele>756.79998779297</ele>
        <time>2021-07-28T13:48:23.000Z</time>
      </trkpt>
      <trkpt lat="43.56848" lon="2.56217">
        <ele>756.40002441406</ele>
        <time>2021-07-28T13:48:24.000Z</time>
      </trkpt>
      <trkpt lat="43.56848" lon="2.56193">
        <ele>756.40002441406</ele>
        <time>2021-07-28T13:48:27.000Z</time>
      </trkpt>
      <trkpt lat="43.56838" lon="2.56167">
        <ele>756.40002441406</ele>
        <time>2021-07-28T13:48:31.000Z</time>
      </trkpt>
      <trkpt lat="43.5683" lon="2.5615">
        <ele>756</ele>
        <time>2021-07-28T13:48:34.000Z</time>
      </trkpt>
      <trkpt lat="43.56828" lon="2.56144">
        <ele>755.59997558594</ele>
        <time>2021-07-28T13:48:35.000Z</time>
      </trkpt>
      <trkpt lat="43.56825" lon="2.56139">
        <ele>755.20001220703</ele>
        <time>2021-07-28T13:48:36.000Z</time>
      </trkpt>
      <trkpt lat="43.56822" lon="2.56134">
        <ele>754.79998779297</ele>
        <time>2021-07-28T13:48:37.000Z</time>
      </trkpt>
      <trkpt lat="43.56819" lon="2.56129">
        <ele>754.40002441406</ele>
        <time>2021-07-28T13:48:38.000Z</time>
      </trkpt>
      <trkpt lat="43.56812" lon="2.56115">
        <ele>754</ele>
        <time>2021-07-28T13:48:41.000Z</time>
      </trkpt>
      <trkpt lat="43.56809" lon="2.56111">
        <ele>753.40002441406</ele>
        <time>2021-07-28T13:48:42.000Z</time>
      </trkpt>
      <trkpt lat="43.56805" lon="2.56107">
        <ele>753</ele>
        <time>2021-07-28T13:48:43.000Z</time>
      </trkpt>
      <trkpt lat="43.56802" lon="2.56104">
        <ele>752.59997558594</ele>
        <time>2021-07-28T13:48:44.000Z</time>
      </trkpt>
      <trkpt lat="43.56797" lon="2.561">
        <ele>752.20001220703</ele>
        <time>2021-07-28T13:48:45.000Z</time>
      </trkpt>
      <trkpt lat="43.5678" lon="2.56083">
        <ele>752.20001220703</ele>
        <time>2021-07-28T13:48:49.000Z</time>
      </trkpt>
      <trkpt lat="43.56772" lon="2.56075">
        <ele>751.59997558594</ele>
        <time>2021-07-28T13:48:51.000Z</time>
      </trkpt>
      <trkpt lat="43.5677" lon="2.56073">
        <ele>751.20001220703</ele>
        <time>2021-07-28T13:48:52.000Z</time>
      </trkpt>
      <trkpt lat="43.56768" lon="2.56072">
        <ele>750.79998779297</ele>
        <time>2021-07-28T13:48:53.000Z</time>
      </trkpt>
      <trkpt lat="43.56766" lon="2.5607">
        <ele>750.40002441406</ele>
        <time>2021-07-28T13:48:54.000Z</time>
      </trkpt>
      <trkpt lat="43.56763" lon="2.56067">
        <ele>750</ele>
        <time>2021-07-28T13:48:55.000Z</time>
      </trkpt>
      <trkpt lat="43.56756" lon="2.56052">
        <ele>750</ele>
        <time>2021-07-28T13:48:58.000Z</time>
      </trkpt>
      <trkpt lat="43.56751" lon="2.56043">
        <ele>749.59997558594</ele>
        <time>2021-07-28T13:49:00.000Z</time>
      </trkpt>
      <trkpt lat="43.56749" lon="2.5604">
        <ele>749</ele>
        <time>2021-07-28T13:49:01.000Z</time>
      </trkpt>
      <trkpt lat="43.56746" lon="2.56036">
        <ele>748.59997558594</ele>
        <time>2021-07-28T13:49:02.000Z</time>
      </trkpt>
      <trkpt lat="43.56742" lon="2.56033">
        <ele>748.20001220703</ele>
        <time>2021-07-28T13:49:03.000Z</time>
      </trkpt>
      <trkpt lat="43.56738" lon="2.56031">
        <ele>747.79998779297</ele>
        <time>2021-07-28T13:49:04.000Z</time>
      </trkpt>
      <trkpt lat="43.5673" lon="2.56028">
        <ele>747.79998779297</ele>
        <time>2021-07-28T13:49:06.000Z</time>
      </trkpt>
      <trkpt lat="43.56727" lon="2.56027">
        <ele>747.79998779297</ele>
        <time>2021-07-28T13:49:07.000Z</time>
      </trkpt>
      <trkpt lat="43.56711" lon="2.56019">
        <ele>747.79998779297</ele>
        <time>2021-07-28T13:49:11.000Z</time>
      </trkpt>
      <trkpt lat="43.56707" lon="2.56016">
        <ele>747.20001220703</ele>
        <time>2021-07-28T13:49:12.000Z</time>
      </trkpt>
      <trkpt lat="43.56703" lon="2.56011">
        <ele>746.79998779297</ele>
        <time>2021-07-28T13:49:13.000Z</time>
      </trkpt>
      <trkpt lat="43.56701" lon="2.56006">
        <ele>746</ele>
        <time>2021-07-28T13:49:14.000Z</time>
      </trkpt>
      <trkpt lat="43.56698" lon="2.56002">
        <ele>745.40002441406</ele>
        <time>2021-07-28T13:49:15.000Z</time>
      </trkpt>
      <trkpt lat="43.56692" lon="2.55996">
        <ele>745.40002441406</ele>
        <time>2021-07-28T13:49:17.000Z</time>
      </trkpt>
      <trkpt lat="43.56688" lon="2.55993">
        <ele>745.40002441406</ele>
        <time>2021-07-28T13:49:18.000Z</time>
      </trkpt>
      <trkpt lat="43.5668" lon="2.55985">
        <ele>745</ele>
        <time>2021-07-28T13:49:20.000Z</time>
      </trkpt>
      <trkpt lat="43.56676" lon="2.55981">
        <ele>744.40002441406</ele>
        <time>2021-07-28T13:49:21.000Z</time>
      </trkpt>
      <trkpt lat="43.56672" lon="2.55977">
        <ele>744</ele>
        <time>2021-07-28T13:49:22.000Z</time>
      </trkpt>
      <trkpt lat="43.56668" lon="2.55974">
        <ele>743.40002441406</ele>
        <time>2021-07-28T13:49:23.000Z</time>
      </trkpt>
      <trkpt lat="43.56664" lon="2.55972">
        <ele>742.79998779297</ele>
        <time>2021-07-28T13:49:24.000Z</time>
      </trkpt>
      <trkpt lat="43.56662" lon="2.55969">
        <ele>742.20001220703</ele>
        <time>2021-07-28T13:49:25.000Z</time>
      </trkpt>
      <trkpt lat="43.56664" lon="2.55964">
        <ele>741.59997558594</ele>
        <time>2021-07-28T13:49:26.000Z</time>
      </trkpt>
      <trkpt lat="43.56665" lon="2.5596">
        <ele>741</ele>
        <time>2021-07-28T13:49:27.000Z</time>
      </trkpt>
      <trkpt lat="43.56668" lon="2.55959">
        <ele>740.40002441406</ele>
        <time>2021-07-28T13:49:28.000Z</time>
      </trkpt>
      <trkpt lat="43.56671" lon="2.55957">
        <ele>740</ele>
        <time>2021-07-28T13:49:29.000Z</time>
      </trkpt>
      <trkpt lat="43.56674" lon="2.55955">
        <ele>739.40002441406</ele>
        <time>2021-07-28T13:49:30.000Z</time>
      </trkpt>
      <trkpt lat="43.56678" lon="2.55953">
        <ele>738.79998779297</ele>
        <time>2021-07-28T13:49:31.000Z</time>
      </trkpt>
      <trkpt lat="43.56693" lon="2.55947">
        <ele>738.79998779297</ele>
        <time>2021-07-28T13:49:35.000Z</time>
      </trkpt>
      <trkpt lat="43.56697" lon="2.55944">
        <ele>738.79998779297</ele>
        <time>2021-07-28T13:49:36.000Z</time>
      </trkpt>
      <trkpt lat="43.56704" lon="2.55944">
        <ele>738.79998779297</ele>
        <time>2021-07-28T13:49:38.000Z</time>
      </trkpt>
      <trkpt lat="43.56711" lon="2.55943">
        <ele>738.79998779297</ele>
        <time>2021-07-28T13:49:40.000Z</time>
      </trkpt>
      <trkpt lat="43.5672" lon="2.5594">
        <ele>738.79998779297</ele>
        <time>2021-07-28T13:49:44.000Z</time>
      </trkpt>
      <trkpt lat="43.56723" lon="2.55936">
        <ele>738.79998779297</ele>
        <time>2021-07-28T13:49:46.000Z</time>
      </trkpt>
      <trkpt lat="43.56725" lon="2.55927">
        <ele>738.79998779297</ele>
        <time>2021-07-28T13:49:48.000Z</time>
      </trkpt>
      <trkpt lat="43.56735" lon="2.55909">
        <ele>738.79998779297</ele>
        <time>2021-07-28T13:49:52.000Z</time>
      </trkpt>
      <trkpt lat="43.5674" lon="2.55903">
        <ele>738.79998779297</ele>
        <time>2021-07-28T13:49:54.000Z</time>
      </trkpt>
      <trkpt lat="43.56747" lon="2.55893">
        <ele>738.79998779297</ele>
        <time>2021-07-28T13:49:57.000Z</time>
      </trkpt>
      <trkpt lat="43.56752" lon="2.55887">
        <ele>738.40002441406</ele>
        <time>2021-07-28T13:49:59.000Z</time>
      </trkpt>
      <trkpt lat="43.56754" lon="2.55884">
        <ele>738</ele>
        <time>2021-07-28T13:50:00.000Z</time>
      </trkpt>
      <trkpt lat="43.56757" lon="2.55881">
        <ele>737.59997558594</ele>
        <time>2021-07-28T13:50:01.000Z</time>
      </trkpt>
      <trkpt lat="43.56759" lon="2.55877">
        <ele>737.20001220703</ele>
        <time>2021-07-28T13:50:02.000Z</time>
      </trkpt>
      <trkpt lat="43.56762" lon="2.55876">
        <ele>736.59997558594</ele>
        <time>2021-07-28T13:50:03.000Z</time>
      </trkpt>
      <trkpt lat="43.56764" lon="2.55873">
        <ele>735.59997558594</ele>
        <time>2021-07-28T13:50:04.000Z</time>
      </trkpt>
      <trkpt lat="43.56767" lon="2.55869">
        <ele>735.20001220703</ele>
        <time>2021-07-28T13:50:05.000Z</time>
      </trkpt>
      <trkpt lat="43.56769" lon="2.55865">
        <ele>734.59997558594</ele>
        <time>2021-07-28T13:50:06.000Z</time>
      </trkpt>
      <trkpt lat="43.5677" lon="2.55862">
        <ele>734.59997558594</ele>
        <time>2021-07-28T13:50:07.000Z</time>
      </trkpt>
      <trkpt lat="43.5677" lon="2.55857">
        <ele>734.59997558594</ele>
        <time>2021-07-28T13:50:09.000Z</time>
      </trkpt>
      <trkpt lat="43.56772" lon="2.55851">
        <ele>734.59997558594</ele>
        <time>2021-07-28T13:50:11.000Z</time>
      </trkpt>
      <trkpt lat="43.56773" lon="2.55844">
        <ele>734.59997558594</ele>
        <time>2021-07-28T13:50:13.000Z</time>
      </trkpt>
      <trkpt lat="43.56773" lon="2.55842">
        <ele>734.20001220703</ele>
        <time>2021-07-28T13:50:14.000Z</time>
      </trkpt>
      <trkpt lat="43.56773" lon="2.55838">
        <ele>733.79998779297</ele>
        <time>2021-07-28T13:50:15.000Z</time>
      </trkpt>
      <trkpt lat="43.56772" lon="2.55835">
        <ele>733.40002441406</ele>
        <time>2021-07-28T13:50:16.000Z</time>
      </trkpt>
      <trkpt lat="43.56772" lon="2.55833">
        <ele>733</ele>
        <time>2021-07-28T13:50:17.000Z</time>
      </trkpt>
      <trkpt lat="43.56772" lon="2.55833">
        <ele>732.59997558594</ele>
        <time>2021-07-28T13:50:18.000Z</time>
      </trkpt>
      <trkpt lat="43.56772" lon="2.55833">
        <ele>732.59997558594</ele>
        <time>2021-07-28T13:50:19.000Z</time>
      </trkpt>
      <trkpt lat="43.56771" lon="2.55822">
        <ele>732.59997558594</ele>
        <time>2021-07-28T13:51:11.000Z</time>
      </trkpt>
      <trkpt lat="43.56773" lon="2.55801">
        <ele>732.59997558594</ele>
        <time>2021-07-28T13:51:18.000Z</time>
      </trkpt>
      <trkpt lat="43.56777" lon="2.5576">
        <ele>732.59997558594</ele>
        <time>2021-07-28T13:51:26.000Z</time>
      </trkpt>
      <trkpt lat="43.56779" lon="2.55754">
        <ele>732.59997558594</ele>
        <time>2021-07-28T13:51:27.000Z</time>
      </trkpt>
      <trkpt lat="43.56783" lon="2.55738">
        <ele>732.59997558594</ele>
        <time>2021-07-28T13:51:32.000Z</time>
      </trkpt>
      <trkpt lat="43.56789" lon="2.5573">
        <ele>733</ele>
        <time>2021-07-28T13:51:36.000Z</time>
      </trkpt>
      <trkpt lat="43.56791" lon="2.5573">
        <ele>733.40002441406</ele>
        <time>2021-07-28T13:51:37.000Z</time>
      </trkpt>
      <trkpt lat="43.56793" lon="2.55729">
        <ele>733.79998779297</ele>
        <time>2021-07-28T13:51:38.000Z</time>
      </trkpt>
      <trkpt lat="43.56794" lon="2.55728">
        <ele>734.20001220703</ele>
        <time>2021-07-28T13:51:39.000Z</time>
      </trkpt>
      <trkpt lat="43.56795" lon="2.55727">
        <ele>734.59997558594</ele>
        <time>2021-07-28T13:51:40.000Z</time>
      </trkpt>
      <trkpt lat="43.56797" lon="2.55724">
        <ele>734.59997558594</ele>
        <time>2021-07-28T13:51:42.000Z</time>
      </trkpt>
      <trkpt lat="43.56798" lon="2.55722">
        <ele>735</ele>
        <time>2021-07-28T13:51:43.000Z</time>
      </trkpt>
      <trkpt lat="43.56799" lon="2.55721">
        <ele>735.59997558594</ele>
        <time>2021-07-28T13:51:44.000Z</time>
      </trkpt>
      <trkpt lat="43.568" lon="2.55719">
        <ele>736</ele>
        <time>2021-07-28T13:51:45.000Z</time>
      </trkpt>
      <trkpt lat="43.56801" lon="2.55718">
        <ele>736.40002441406</ele>
        <time>2021-07-28T13:51:46.000Z</time>
      </trkpt>
      <trkpt lat="43.56802" lon="2.55716">
        <ele>736.79998779297</ele>
        <time>2021-07-28T13:51:47.000Z</time>
      </trkpt>
      <trkpt lat="43.56804" lon="2.55712">
        <ele>736.79998779297</ele>
        <time>2021-07-28T13:51:49.000Z</time>
      </trkpt>
      <trkpt lat="43.56818" lon="2.55694">
        <ele>736.79998779297</ele>
        <time>2021-07-28T13:51:54.000Z</time>
      </trkpt>
      <trkpt lat="43.56825" lon="2.55685">
        <ele>737.20001220703</ele>
        <time>2021-07-28T13:51:57.000Z</time>
      </trkpt>
      <trkpt lat="43.56828" lon="2.5568">
        <ele>737.59997558594</ele>
        <time>2021-07-28T13:51:58.000Z</time>
      </trkpt>
      <trkpt lat="43.5683" lon="2.55678">
        <ele>738</ele>
        <time>2021-07-28T13:51:59.000Z</time>
      </trkpt>
      <trkpt lat="43.56832" lon="2.55676">
        <ele>738.40002441406</ele>
        <time>2021-07-28T13:52:00.000Z</time>
      </trkpt>
      <trkpt lat="43.56833" lon="2.55675">
        <ele>738.79998779297</ele>
        <time>2021-07-28T13:52:01.000Z</time>
      </trkpt>
      <trkpt lat="43.56845" lon="2.55666">
        <ele>738.79998779297</ele>
        <time>2021-07-28T13:52:07.000Z</time>
      </trkpt>
      <trkpt lat="43.56848" lon="2.55665">
        <ele>739.79998779297</ele>
        <time>2021-07-28T13:52:08.000Z</time>
      </trkpt>
      <trkpt lat="43.5685" lon="2.55663">
        <ele>740.20001220703</ele>
        <time>2021-07-28T13:52:09.000Z</time>
      </trkpt>
      <trkpt lat="43.56854" lon="2.55662">
        <ele>740.59997558594</ele>
        <time>2021-07-28T13:52:10.000Z</time>
      </trkpt>
      <trkpt lat="43.56857" lon="2.55661">
        <ele>741</ele>
        <time>2021-07-28T13:52:11.000Z</time>
      </trkpt>
      <trkpt lat="43.56861" lon="2.5566">
        <ele>741</ele>
        <time>2021-07-28T13:52:12.000Z</time>
      </trkpt>
      <trkpt lat="43.56876" lon="2.55653">
        <ele>741</ele>
        <time>2021-07-28T13:52:17.000Z</time>
      </trkpt>
      <trkpt lat="43.56891" lon="2.55645">
        <ele>741</ele>
        <time>2021-07-28T13:52:22.000Z</time>
      </trkpt>
      <trkpt lat="43.56894" lon="2.55644">
        <ele>741</ele>
        <time>2021-07-28T13:52:23.000Z</time>
      </trkpt>
      <trkpt lat="43.569" lon="2.55642">
        <ele>741</ele>
        <time>2021-07-28T13:52:26.000Z</time>
      </trkpt>
      <trkpt lat="43.56903" lon="2.55641">
        <ele>741</ele>
        <time>2021-07-28T13:52:28.000Z</time>
      </trkpt>
      <trkpt lat="43.56905" lon="2.55642">
        <ele>741</ele>
        <time>2021-07-28T13:53:25.000Z</time>
      </trkpt>
      <trkpt lat="43.5691" lon="2.55642">
        <ele>741</ele>
        <time>2021-07-28T13:53:27.000Z</time>
      </trkpt>
      <trkpt lat="43.56916" lon="2.5564">
        <ele>741</ele>
        <time>2021-07-28T13:53:29.000Z</time>
      </trkpt>
      <trkpt lat="43.56926" lon="2.55635">
        <ele>741</ele>
        <time>2021-07-28T13:53:32.000Z</time>
      </trkpt>
      <trkpt lat="43.56931" lon="2.55632">
        <ele>741</ele>
        <time>2021-07-28T13:53:33.000Z</time>
      </trkpt>
      <trkpt lat="43.56942" lon="2.55622">
        <ele>741</ele>
        <time>2021-07-28T13:53:35.000Z</time>
      </trkpt>
      <trkpt lat="43.56947" lon="2.55617">
        <ele>741</ele>
        <time>2021-07-28T13:53:36.000Z</time>
      </trkpt>
      <trkpt lat="43.56965" lon="2.55605">
        <ele>741</ele>
        <time>2021-07-28T13:53:40.000Z</time>
      </trkpt>
      <trkpt lat="43.56973" lon="2.55601">
        <ele>741</ele>
        <time>2021-07-28T13:53:42.000Z</time>
      </trkpt>
      <trkpt lat="43.56996" lon="2.55585">
        <ele>741</ele>
        <time>2021-07-28T13:53:48.000Z</time>
      </trkpt>
      <trkpt lat="43.57005" lon="2.55573">
        <ele>741.40002441406</ele>
        <time>2021-07-28T13:53:52.000Z</time>
      </trkpt>
      <trkpt lat="43.57007" lon="2.55572">
        <ele>741.79998779297</ele>
        <time>2021-07-28T13:53:53.000Z</time>
      </trkpt>
      <trkpt lat="43.57008" lon="2.55571">
        <ele>742.20001220703</ele>
        <time>2021-07-28T13:53:54.000Z</time>
      </trkpt>
      <trkpt lat="43.5701" lon="2.55571">
        <ele>742.59997558594</ele>
        <time>2021-07-28T13:53:55.000Z</time>
      </trkpt>
      <trkpt lat="43.57011" lon="2.55572">
        <ele>743.20001220703</ele>
        <time>2021-07-28T13:53:56.000Z</time>
      </trkpt>
      <trkpt lat="43.57017" lon="2.55571">
        <ele>743.20001220703</ele>
        <time>2021-07-28T13:53:59.000Z</time>
      </trkpt>
      <trkpt lat="43.5703" lon="2.55566">
        <ele>743.20001220703</ele>
        <time>2021-07-28T13:54:05.000Z</time>
      </trkpt>
      <trkpt lat="43.5704" lon="2.55562">
        <ele>743.59997558594</ele>
        <time>2021-07-28T13:54:10.000Z</time>
      </trkpt>
      <trkpt lat="43.57041" lon="2.55561">
        <ele>744</ele>
        <time>2021-07-28T13:54:11.000Z</time>
      </trkpt>
      <trkpt lat="43.57043" lon="2.55559">
        <ele>744.79998779297</ele>
        <time>2021-07-28T13:54:12.000Z</time>
      </trkpt>
      <trkpt lat="43.57044" lon="2.55557">
        <ele>745.20001220703</ele>
        <time>2021-07-28T13:54:13.000Z</time>
      </trkpt>
      <trkpt lat="43.57045" lon="2.55555">
        <ele>745.20001220703</ele>
        <time>2021-07-28T13:54:14.000Z</time>
      </trkpt>
      <trkpt lat="43.57045" lon="2.55549">
        <ele>745.59997558594</ele>
        <time>2021-07-28T13:54:16.000Z</time>
      </trkpt>
      <trkpt lat="43.57045" lon="2.55546">
        <ele>746</ele>
        <time>2021-07-28T13:54:17.000Z</time>
      </trkpt>
      <trkpt lat="43.57045" lon="2.55543">
        <ele>746.40002441406</ele>
        <time>2021-07-28T13:54:18.000Z</time>
      </trkpt>
      <trkpt lat="43.57045" lon="2.5554">
        <ele>746.79998779297</ele>
        <time>2021-07-28T13:54:19.000Z</time>
      </trkpt>
      <trkpt lat="43.57044" lon="2.55538">
        <ele>747.20001220703</ele>
        <time>2021-07-28T13:54:20.000Z</time>
      </trkpt>
      <trkpt lat="43.57055" lon="2.55522">
        <ele>747.79998779297</ele>
        <time>2021-07-28T13:54:24.000Z</time>
      </trkpt>
      <trkpt lat="43.57058" lon="2.55518">
        <ele>748.20001220703</ele>
        <time>2021-07-28T13:54:25.000Z</time>
      </trkpt>
      <trkpt lat="43.57061" lon="2.55515">
        <ele>748.59997558594</ele>
        <time>2021-07-28T13:54:26.000Z</time>
      </trkpt>
      <trkpt lat="43.57064" lon="2.55512">
        <ele>749</ele>
        <time>2021-07-28T13:54:27.000Z</time>
      </trkpt>
      <trkpt lat="43.57065" lon="2.55509">
        <ele>749.40002441406</ele>
        <time>2021-07-28T13:54:28.000Z</time>
      </trkpt>
      <trkpt lat="43.57066" lon="2.55506">
        <ele>749.40002441406</ele>
        <time>2021-07-28T13:54:29.000Z</time>
      </trkpt>
      <trkpt lat="43.5707" lon="2.55497">
        <ele>749.79998779297</ele>
        <time>2021-07-28T13:54:32.000Z</time>
      </trkpt>
      <trkpt lat="43.57071" lon="2.55495">
        <ele>750.40002441406</ele>
        <time>2021-07-28T13:54:33.000Z</time>
      </trkpt>
      <trkpt lat="43.57072" lon="2.55492">
        <ele>750.79998779297</ele>
        <time>2021-07-28T13:54:34.000Z</time>
      </trkpt>
      <trkpt lat="43.57073" lon="2.55489">
        <ele>751.20001220703</ele>
        <time>2021-07-28T13:54:35.000Z</time>
      </trkpt>
      <trkpt lat="43.57074" lon="2.55487">
        <ele>751.59997558594</ele>
        <time>2021-07-28T13:54:36.000Z</time>
      </trkpt>
      <trkpt lat="43.57082" lon="2.55463">
        <ele>751.59997558594</ele>
        <time>2021-07-28T13:54:45.000Z</time>
      </trkpt>
      <trkpt lat="43.57085" lon="2.55456">
        <ele>752</ele>
        <time>2021-07-28T13:54:48.000Z</time>
      </trkpt>
      <trkpt lat="43.57085" lon="2.55454">
        <ele>752.40002441406</ele>
        <time>2021-07-28T13:54:49.000Z</time>
      </trkpt>
      <trkpt lat="43.57086" lon="2.55452">
        <ele>752.79998779297</ele>
        <time>2021-07-28T13:54:50.000Z</time>
      </trkpt>
      <trkpt lat="43.57087" lon="2.5545">
        <ele>753.20001220703</ele>
        <time>2021-07-28T13:54:51.000Z</time>
      </trkpt>
      <trkpt lat="43.57088" lon="2.55449">
        <ele>753.59997558594</ele>
        <time>2021-07-28T13:54:52.000Z</time>
      </trkpt>
      <trkpt lat="43.57092" lon="2.55438">
        <ele>753.59997558594</ele>
        <time>2021-07-28T13:54:57.000Z</time>
      </trkpt>
      <trkpt lat="43.57096" lon="2.5543">
        <ele>754.40002441406</ele>
        <time>2021-07-28T13:55:01.000Z</time>
      </trkpt>
      <trkpt lat="43.57097" lon="2.55427">
        <ele>754.79998779297</ele>
        <time>2021-07-28T13:55:02.000Z</time>
      </trkpt>
      <trkpt lat="43.57098" lon="2.55425">
        <ele>755.20001220703</ele>
        <time>2021-07-28T13:55:03.000Z</time>
      </trkpt>
      <trkpt lat="43.57099" lon="2.55422">
        <ele>755.59997558594</ele>
        <time>2021-07-28T13:55:04.000Z</time>
      </trkpt>
      <trkpt lat="43.57106" lon="2.55409">
        <ele>755.59997558594</ele>
        <time>2021-07-28T13:55:09.000Z</time>
      </trkpt>
      <trkpt lat="43.57108" lon="2.55403">
        <ele>756</ele>
        <time>2021-07-28T13:55:11.000Z</time>
      </trkpt>
      <trkpt lat="43.5711" lon="2.554">
        <ele>756.40002441406</ele>
        <time>2021-07-28T13:55:12.000Z</time>
      </trkpt>
      <trkpt lat="43.57111" lon="2.55397">
        <ele>756.79998779297</ele>
        <time>2021-07-28T13:55:13.000Z</time>
      </trkpt>
      <trkpt lat="43.57112" lon="2.55395">
        <ele>757.20001220703</ele>
        <time>2021-07-28T13:55:14.000Z</time>
      </trkpt>
      <trkpt lat="43.57113" lon="2.55393">
        <ele>757.59997558594</ele>
        <time>2021-07-28T13:55:15.000Z</time>
      </trkpt>
      <trkpt lat="43.57118" lon="2.55378">
        <ele>758</ele>
        <time>2021-07-28T13:55:21.000Z</time>
      </trkpt>
      <trkpt lat="43.57119" lon="2.55377">
        <ele>758.40002441406</ele>
        <time>2021-07-28T13:55:22.000Z</time>
      </trkpt>
      <trkpt lat="43.5712" lon="2.55375">
        <ele>759</ele>
        <time>2021-07-28T13:55:23.000Z</time>
      </trkpt>
      <trkpt lat="43.5712" lon="2.55372">
        <ele>759.40002441406</ele>
        <time>2021-07-28T13:55:24.000Z</time>
      </trkpt>
      <trkpt lat="43.5712" lon="2.5537">
        <ele>759.79998779297</ele>
        <time>2021-07-28T13:55:25.000Z</time>
      </trkpt>
      <trkpt lat="43.57121" lon="2.55367">
        <ele>759.79998779297</ele>
        <time>2021-07-28T13:55:26.000Z</time>
      </trkpt>
      <trkpt lat="43.57124" lon="2.5535">
        <ele>759.79998779297</ele>
        <time>2021-07-28T13:55:33.000Z</time>
      </trkpt>
      <trkpt lat="43.57125" lon="2.55347">
        <ele>760.20001220703</ele>
        <time>2021-07-28T13:55:34.000Z</time>
      </trkpt>
      <trkpt lat="43.57126" lon="2.55345">
        <ele>760.59997558594</ele>
        <time>2021-07-28T13:55:35.000Z</time>
      </trkpt>
      <trkpt lat="43.57126" lon="2.55343">
        <ele>761</ele>
        <time>2021-07-28T13:55:36.000Z</time>
      </trkpt>
      <trkpt lat="43.57126" lon="2.55341">
        <ele>761.40002441406</ele>
        <time>2021-07-28T13:55:37.000Z</time>
      </trkpt>
      <trkpt lat="43.57126" lon="2.55338">
        <ele>761.79998779297</ele>
        <time>2021-07-28T13:55:38.000Z</time>
      </trkpt>
      <trkpt lat="43.57128" lon="2.55331">
        <ele>761.79998779297</ele>
        <time>2021-07-28T13:55:40.000Z</time>
      </trkpt>
      <trkpt lat="43.57133" lon="2.55322">
        <ele>762.20001220703</ele>
        <time>2021-07-28T13:55:43.000Z</time>
      </trkpt>
      <trkpt lat="43.57134" lon="2.5532">
        <ele>762.59997558594</ele>
        <time>2021-07-28T13:55:44.000Z</time>
      </trkpt>
      <trkpt lat="43.57135" lon="2.55318">
        <ele>763</ele>
        <time>2021-07-28T13:55:45.000Z</time>
      </trkpt>
      <trkpt lat="43.57136" lon="2.55315">
        <ele>763.59997558594</ele>
        <time>2021-07-28T13:55:46.000Z</time>
      </trkpt>
      <trkpt lat="43.57137" lon="2.55313">
        <ele>764</ele>
        <time>2021-07-28T13:55:47.000Z</time>
      </trkpt>
      <trkpt lat="43.57139" lon="2.55306">
        <ele>764.79998779297</ele>
        <time>2021-07-28T13:55:50.000Z</time>
      </trkpt>
      <trkpt lat="43.57141" lon="2.55304">
        <ele>765.20001220703</ele>
        <time>2021-07-28T13:55:51.000Z</time>
      </trkpt>
      <trkpt lat="43.57142" lon="2.55301">
        <ele>765.59997558594</ele>
        <time>2021-07-28T13:55:52.000Z</time>
      </trkpt>
      <trkpt lat="43.57144" lon="2.55297">
        <ele>766</ele>
        <time>2021-07-28T13:55:53.000Z</time>
      </trkpt>
      <trkpt lat="43.57154" lon="2.55278">
        <ele>766</ele>
        <time>2021-07-28T13:55:59.000Z</time>
      </trkpt>
      <trkpt lat="43.57166" lon="2.55257">
        <ele>766</ele>
        <time>2021-07-28T13:56:06.000Z</time>
      </trkpt>
      <trkpt lat="43.57167" lon="2.55254">
        <ele>766.40002441406</ele>
        <time>2021-07-28T13:56:07.000Z</time>
      </trkpt>
      <trkpt lat="43.57168" lon="2.55251">
        <ele>766.79998779297</ele>
        <time>2021-07-28T13:56:08.000Z</time>
      </trkpt>
      <trkpt lat="43.57169" lon="2.55248">
        <ele>767.20001220703</ele>
        <time>2021-07-28T13:56:09.000Z</time>
      </trkpt>
      <trkpt lat="43.5717" lon="2.55245">
        <ele>767.59997558594</ele>
        <time>2021-07-28T13:56:10.000Z</time>
      </trkpt>
      <trkpt lat="43.5717" lon="2.55242">
        <ele>768</ele>
        <time>2021-07-28T13:56:11.000Z</time>
      </trkpt>
      <trkpt lat="43.57171" lon="2.55238">
        <ele>768</ele>
        <time>2021-07-28T13:56:12.000Z</time>
      </trkpt>
      <trkpt lat="43.57177" lon="2.55218">
        <ele>768</ele>
        <time>2021-07-28T13:56:18.000Z</time>
      </trkpt>
      <trkpt lat="43.57181" lon="2.55189">
        <ele>768</ele>
        <time>2021-07-28T13:56:25.000Z</time>
      </trkpt>
      <trkpt lat="43.57184" lon="2.55164">
        <ele>768</ele>
        <time>2021-07-28T13:56:32.000Z</time>
      </trkpt>
      <trkpt lat="43.57186" lon="2.55138">
        <ele>768</ele>
        <time>2021-07-28T13:56:38.000Z</time>
      </trkpt>
      <trkpt lat="43.57187" lon="2.55128">
        <ele>768.79998779297</ele>
        <time>2021-07-28T13:56:40.000Z</time>
      </trkpt>
      <trkpt lat="43.57188" lon="2.55124">
        <ele>769.20001220703</ele>
        <time>2021-07-28T13:56:41.000Z</time>
      </trkpt>
      <trkpt lat="43.57188" lon="2.5512">
        <ele>769.59997558594</ele>
        <time>2021-07-28T13:56:42.000Z</time>
      </trkpt>
      <trkpt lat="43.57189" lon="2.55116">
        <ele>770</ele>
        <time>2021-07-28T13:56:43.000Z</time>
      </trkpt>
      <trkpt lat="43.57192" lon="2.55105">
        <ele>770</ele>
        <time>2021-07-28T13:56:46.000Z</time>
      </trkpt>
      <trkpt lat="43.57199" lon="2.55082">
        <ele>770</ele>
        <time>2021-07-28T13:56:53.000Z</time>
      </trkpt>
      <trkpt lat="43.57201" lon="2.55072">
        <ele>770.40002441406</ele>
        <time>2021-07-28T13:56:56.000Z</time>
      </trkpt>
      <trkpt lat="43.57202" lon="2.55069">
        <ele>771</ele>
        <time>2021-07-28T13:56:57.000Z</time>
      </trkpt>
      <trkpt lat="43.57202" lon="2.55066">
        <ele>771.40002441406</ele>
        <time>2021-07-28T13:56:58.000Z</time>
      </trkpt>
      <trkpt lat="43.57203" lon="2.55063">
        <ele>771.79998779297</ele>
        <time>2021-07-28T13:56:59.000Z</time>
      </trkpt>
      <trkpt lat="43.57204" lon="2.55061">
        <ele>772.20001220703</ele>
        <time>2021-07-28T13:57:00.000Z</time>
      </trkpt>
      <trkpt lat="43.57206" lon="2.55047">
        <ele>772.59997558594</ele>
        <time>2021-07-28T13:57:05.000Z</time>
      </trkpt>
      <trkpt lat="43.57206" lon="2.55045">
        <ele>773</ele>
        <time>2021-07-28T13:57:06.000Z</time>
      </trkpt>
      <trkpt lat="43.57207" lon="2.55043">
        <ele>773.40002441406</ele>
        <time>2021-07-28T13:57:07.000Z</time>
      </trkpt>
      <trkpt lat="43.57207" lon="2.5504">
        <ele>773.79998779297</ele>
        <time>2021-07-28T13:57:08.000Z</time>
      </trkpt>
      <trkpt lat="43.57207" lon="2.55037">
        <ele>774.20001220703</ele>
        <time>2021-07-28T13:57:09.000Z</time>
      </trkpt>
      <trkpt lat="43.57209" lon="2.55021">
        <ele>774.20001220703</ele>
        <time>2021-07-28T13:57:13.000Z</time>
      </trkpt>
      <trkpt lat="43.57215" lon="2.55">
        <ele>774.59997558594</ele>
        <time>2021-07-28T13:57:19.000Z</time>
      </trkpt>
      <trkpt lat="43.57217" lon="2.54997">
        <ele>775</ele>
        <time>2021-07-28T13:57:20.000Z</time>
      </trkpt>
      <trkpt lat="43.57218" lon="2.54994">
        <ele>775.59997558594</ele>
        <time>2021-07-28T13:57:21.000Z</time>
      </trkpt>
      <trkpt lat="43.57219" lon="2.54991">
        <ele>776</ele>
        <time>2021-07-28T13:57:22.000Z</time>
      </trkpt>
      <trkpt lat="43.5722" lon="2.54988">
        <ele>776.40002441406</ele>
        <time>2021-07-28T13:57:23.000Z</time>
      </trkpt>
      <trkpt lat="43.57221" lon="2.54985">
        <ele>776.40002441406</ele>
        <time>2021-07-28T13:57:24.000Z</time>
      </trkpt>
      <trkpt lat="43.57228" lon="2.54975">
        <ele>776.79998779297</ele>
        <time>2021-07-28T13:57:29.000Z</time>
      </trkpt>
      <trkpt lat="43.57229" lon="2.54974">
        <ele>777.59997558594</ele>
        <time>2021-07-28T13:57:30.000Z</time>
      </trkpt>
      <trkpt lat="43.57231" lon="2.54972">
        <ele>778</ele>
        <time>2021-07-28T13:57:31.000Z</time>
      </trkpt>
      <trkpt lat="43.57232" lon="2.54972">
        <ele>778.40002441406</ele>
        <time>2021-07-28T13:57:32.000Z</time>
      </trkpt>
      <trkpt lat="43.5724" lon="2.5497">
        <ele>779</ele>
        <time>2021-07-28T13:57:36.000Z</time>
      </trkpt>
      <trkpt lat="43.57242" lon="2.5497">
        <ele>779.40002441406</ele>
        <time>2021-07-28T13:57:37.000Z</time>
      </trkpt>
      <trkpt lat="43.57243" lon="2.54969">
        <ele>779.79998779297</ele>
        <time>2021-07-28T13:57:38.000Z</time>
      </trkpt>
      <trkpt lat="43.57246" lon="2.54968">
        <ele>780.20001220703</ele>
        <time>2021-07-28T13:57:39.000Z</time>
      </trkpt>
      <trkpt lat="43.57248" lon="2.54967">
        <ele>780.59997558594</ele>
        <time>2021-07-28T13:57:40.000Z</time>
      </trkpt>
      <trkpt lat="43.57258" lon="2.54962">
        <ele>780.59997558594</ele>
        <time>2021-07-28T13:57:44.000Z</time>
      </trkpt>
      <trkpt lat="43.57273" lon="2.54954">
        <ele>781</ele>
        <time>2021-07-28T13:57:50.000Z</time>
      </trkpt>
      <trkpt lat="43.57274" lon="2.54952">
        <ele>781.40002441406</ele>
        <time>2021-07-28T13:57:51.000Z</time>
      </trkpt>
      <trkpt lat="43.57276" lon="2.54951">
        <ele>781.79998779297</ele>
        <time>2021-07-28T13:57:52.000Z</time>
      </trkpt>
      <trkpt lat="43.57278" lon="2.54949">
        <ele>782.20001220703</ele>
        <time>2021-07-28T13:57:53.000Z</time>
      </trkpt>
      <trkpt lat="43.5728" lon="2.54948">
        <ele>782.59997558594</ele>
        <time>2021-07-28T13:57:54.000Z</time>
      </trkpt>
      <trkpt lat="43.57293" lon="2.54939">
        <ele>782.59997558594</ele>
        <time>2021-07-28T13:58:01.000Z</time>
      </trkpt>
      <trkpt lat="43.57297" lon="2.54935">
        <ele>783</ele>
        <time>2021-07-28T13:58:03.000Z</time>
      </trkpt>
      <trkpt lat="43.57299" lon="2.54934">
        <ele>783.40002441406</ele>
        <time>2021-07-28T13:58:04.000Z</time>
      </trkpt>
      <trkpt lat="43.57301" lon="2.54933">
        <ele>783.79998779297</ele>
        <time>2021-07-28T13:58:05.000Z</time>
      </trkpt>
      <trkpt lat="43.57302" lon="2.54931">
        <ele>784.40002441406</ele>
        <time>2021-07-28T13:58:06.000Z</time>
      </trkpt>
      <trkpt lat="43.57304" lon="2.5493">
        <ele>784.79998779297</ele>
        <time>2021-07-28T13:58:07.000Z</time>
      </trkpt>
      <trkpt lat="43.57318" lon="2.54922">
        <ele>784.79998779297</ele>
        <time>2021-07-28T13:58:14.000Z</time>
      </trkpt>
      <trkpt lat="43.57322" lon="2.5492">
        <ele>785.20001220703</ele>
        <time>2021-07-28T13:58:16.000Z</time>
      </trkpt>
      <trkpt lat="43.57324" lon="2.54918">
        <ele>785.59997558594</ele>
        <time>2021-07-28T13:58:17.000Z</time>
      </trkpt>
      <trkpt lat="43.57325" lon="2.54917">
        <ele>786</ele>
        <time>2021-07-28T13:58:18.000Z</time>
      </trkpt>
      <trkpt lat="43.57327" lon="2.54916">
        <ele>786.79998779297</ele>
        <time>2021-07-28T13:58:19.000Z</time>
      </trkpt>
      <trkpt lat="43.57331" lon="2.54914">
        <ele>786.79998779297</ele>
        <time>2021-07-28T13:58:21.000Z</time>
      </trkpt>
      <trkpt lat="43.57347" lon="2.54904">
        <ele>786.79998779297</ele>
        <time>2021-07-28T13:58:29.000Z</time>
      </trkpt>
      <trkpt lat="43.57349" lon="2.54903">
        <ele>787.20001220703</ele>
        <time>2021-07-28T13:58:30.000Z</time>
      </trkpt>
      <trkpt lat="43.57351" lon="2.54901">
        <ele>787.59997558594</ele>
        <time>2021-07-28T13:58:31.000Z</time>
      </trkpt>
      <trkpt lat="43.57353" lon="2.549">
        <ele>788</ele>
        <time>2021-07-28T13:58:32.000Z</time>
      </trkpt>
      <trkpt lat="43.57354" lon="2.54898">
        <ele>788.40002441406</ele>
        <time>2021-07-28T13:58:33.000Z</time>
      </trkpt>
      <trkpt lat="43.57356" lon="2.54897">
        <ele>788.79998779297</ele>
        <time>2021-07-28T13:58:34.000Z</time>
      </trkpt>
      <trkpt lat="43.57362" lon="2.54893">
        <ele>788.79998779297</ele>
        <time>2021-07-28T13:58:37.000Z</time>
      </trkpt>
      <trkpt lat="43.57378" lon="2.54883">
        <ele>789.20001220703</ele>
        <time>2021-07-28T13:58:45.000Z</time>
      </trkpt>
      <trkpt lat="43.5738" lon="2.54881">
        <ele>789.59997558594</ele>
        <time>2021-07-28T13:58:46.000Z</time>
      </trkpt>
      <trkpt lat="43.57382" lon="2.54879">
        <ele>790</ele>
        <time>2021-07-28T13:58:47.000Z</time>
      </trkpt>
      <trkpt lat="43.57384" lon="2.54877">
        <ele>790.40002441406</ele>
        <time>2021-07-28T13:58:48.000Z</time>
      </trkpt>
      <trkpt lat="43.57386" lon="2.54876">
        <ele>790.79998779297</ele>
        <time>2021-07-28T13:58:49.000Z</time>
      </trkpt>
      <trkpt lat="43.57397" lon="2.54868">
        <ele>790.79998779297</ele>
        <time>2021-07-28T13:58:55.000Z</time>
      </trkpt>
      <trkpt lat="43.5741" lon="2.54858">
        <ele>791.20001220703</ele>
        <time>2021-07-28T13:59:02.000Z</time>
      </trkpt>
      <trkpt lat="43.57412" lon="2.54857">
        <ele>791.79998779297</ele>
        <time>2021-07-28T13:59:03.000Z</time>
      </trkpt>
      <trkpt lat="43.57414" lon="2.54857">
        <ele>792.20001220703</ele>
        <time>2021-07-28T13:59:04.000Z</time>
      </trkpt>
      <trkpt lat="43.57415" lon="2.54856">
        <ele>792.59997558594</ele>
        <time>2021-07-28T13:59:05.000Z</time>
      </trkpt>
      <trkpt lat="43.57416" lon="2.54854">
        <ele>793</ele>
        <time>2021-07-28T13:59:06.000Z</time>
      </trkpt>
      <trkpt lat="43.57421" lon="2.54851">
        <ele>793</ele>
        <time>2021-07-28T13:59:09.000Z</time>
      </trkpt>
      <trkpt lat="43.5743" lon="2.54846">
        <ele>793</ele>
        <time>2021-07-28T13:59:14.000Z</time>
      </trkpt>
      <trkpt lat="43.57441" lon="2.5484">
        <ele>793.40002441406</ele>
        <time>2021-07-28T13:59:20.000Z</time>
      </trkpt>
      <trkpt lat="43.57443" lon="2.54839">
        <ele>793.79998779297</ele>
        <time>2021-07-28T13:59:21.000Z</time>
      </trkpt>
      <trkpt lat="43.57445" lon="2.54838">
        <ele>794.20001220703</ele>
        <time>2021-07-28T13:59:22.000Z</time>
      </trkpt>
      <trkpt lat="43.57447" lon="2.54837">
        <ele>794.59997558594</ele>
        <time>2021-07-28T13:59:23.000Z</time>
      </trkpt>
      <trkpt lat="43.57449" lon="2.54836">
        <ele>795</ele>
        <time>2021-07-28T13:59:24.000Z</time>
      </trkpt>
      <trkpt lat="43.57457" lon="2.5483">
        <ele>795</ele>
        <time>2021-07-28T13:59:28.000Z</time>
      </trkpt>
      <trkpt lat="43.57469" lon="2.54821">
        <ele>795</ele>
        <time>2021-07-28T13:59:34.000Z</time>
      </trkpt>
      <trkpt lat="43.57472" lon="2.5482">
        <ele>795.40002441406</ele>
        <time>2021-07-28T13:59:35.000Z</time>
      </trkpt>
      <trkpt lat="43.57474" lon="2.54819">
        <ele>795.79998779297</ele>
        <time>2021-07-28T13:59:36.000Z</time>
      </trkpt>
      <trkpt lat="43.57476" lon="2.54818">
        <ele>796.20001220703</ele>
        <time>2021-07-28T13:59:37.000Z</time>
      </trkpt>
      <trkpt lat="43.57478" lon="2.54816">
        <ele>796.59997558594</ele>
        <time>2021-07-28T13:59:38.000Z</time>
      </trkpt>
      <trkpt lat="43.5748" lon="2.54814">
        <ele>797.20001220703</ele>
        <time>2021-07-28T13:59:39.000Z</time>
      </trkpt>
      <trkpt lat="43.5749" lon="2.54807">
        <ele>797.20001220703</ele>
        <time>2021-07-28T13:59:45.000Z</time>
      </trkpt>
      <trkpt lat="43.57493" lon="2.54805">
        <ele>797.59997558594</ele>
        <time>2021-07-28T13:59:47.000Z</time>
      </trkpt>
      <trkpt lat="43.57495" lon="2.54804">
        <ele>798</ele>
        <time>2021-07-28T13:59:48.000Z</time>
      </trkpt>
      <trkpt lat="43.57496" lon="2.54803">
        <ele>798.40002441406</ele>
        <time>2021-07-28T13:59:49.000Z</time>
      </trkpt>
      <trkpt lat="43.57498" lon="2.54802">
        <ele>798.79998779297</ele>
        <time>2021-07-28T13:59:50.000Z</time>
      </trkpt>
      <trkpt lat="43.57499" lon="2.548">
        <ele>799.20001220703</ele>
        <time>2021-07-28T13:59:51.000Z</time>
      </trkpt>
      <trkpt lat="43.57501" lon="2.548">
        <ele>799.20001220703</ele>
        <time>2021-07-28T13:59:52.000Z</time>
      </trkpt>
      <trkpt lat="43.57512" lon="2.54796">
        <ele>799.20001220703</ele>
        <time>2021-07-28T13:59:58.000Z</time>
      </trkpt>
      <trkpt lat="43.57517" lon="2.54793">
        <ele>799.59997558594</ele>
        <time>2021-07-28T14:00:01.000Z</time>
      </trkpt>
      <trkpt lat="43.57519" lon="2.54792">
        <ele>800</ele>
        <time>2021-07-28T14:00:02.000Z</time>
      </trkpt>
      <trkpt lat="43.57521" lon="2.54791">
        <ele>800.40002441406</ele>
        <time>2021-07-28T14:00:03.000Z</time>
      </trkpt>
      <trkpt lat="43.57522" lon="2.5479">
        <ele>800.79998779297</ele>
        <time>2021-07-28T14:00:04.000Z</time>
      </trkpt>
      <trkpt lat="43.57524" lon="2.54789">
        <ele>801.20001220703</ele>
        <time>2021-07-28T14:00:05.000Z</time>
      </trkpt>
      <trkpt lat="43.57527" lon="2.54787">
        <ele>801.20001220703</ele>
        <time>2021-07-28T14:00:07.000Z</time>
      </trkpt>
      <trkpt lat="43.5754" lon="2.54781">
        <ele>801.20001220703</ele>
        <time>2021-07-28T14:00:14.000Z</time>
      </trkpt>
      <trkpt lat="43.57549" lon="2.54775">
        <ele>801.59997558594</ele>
        <time>2021-07-28T14:00:19.000Z</time>
      </trkpt>
      <trkpt lat="43.5755" lon="2.54773">
        <ele>802</ele>
        <time>2021-07-28T14:00:20.000Z</time>
      </trkpt>
      <trkpt lat="43.57552" lon="2.54772">
        <ele>802.40002441406</ele>
        <time>2021-07-28T14:00:21.000Z</time>
      </trkpt>
      <trkpt lat="43.57554" lon="2.5477">
        <ele>802.79998779297</ele>
        <time>2021-07-28T14:00:22.000Z</time>
      </trkpt>
      <trkpt lat="43.57555" lon="2.54768">
        <ele>803.20001220703</ele>
        <time>2021-07-28T14:00:23.000Z</time>
      </trkpt>
      <trkpt lat="43.5756" lon="2.54763">
        <ele>803.79998779297</ele>
        <time>2021-07-28T14:00:26.000Z</time>
      </trkpt>
      <trkpt lat="43.57561" lon="2.54762">
        <ele>804.20001220703</ele>
        <time>2021-07-28T14:00:27.000Z</time>
      </trkpt>
      <trkpt lat="43.57563" lon="2.5476">
        <ele>804.59997558594</ele>
        <time>2021-07-28T14:00:28.000Z</time>
      </trkpt>
      <trkpt lat="43.57564" lon="2.54758">
        <ele>805</ele>
        <time>2021-07-28T14:00:29.000Z</time>
      </trkpt>
      <trkpt lat="43.57565" lon="2.54756">
        <ele>805.40002441406</ele>
        <time>2021-07-28T14:00:30.000Z</time>
      </trkpt>
      <trkpt lat="43.57568" lon="2.54754">
        <ele>806</ele>
        <time>2021-07-28T14:00:32.000Z</time>
      </trkpt>
      <trkpt lat="43.5757" lon="2.54752">
        <ele>806.40002441406</ele>
        <time>2021-07-28T14:00:33.000Z</time>
      </trkpt>
      <trkpt lat="43.57571" lon="2.54751">
        <ele>806.79998779297</ele>
        <time>2021-07-28T14:00:34.000Z</time>
      </trkpt>
      <trkpt lat="43.57572" lon="2.5475">
        <ele>807.20001220703</ele>
        <time>2021-07-28T14:00:35.000Z</time>
      </trkpt>
      <trkpt lat="43.57574" lon="2.54749">
        <ele>807.59997558594</ele>
        <time>2021-07-28T14:00:36.000Z</time>
      </trkpt>
      <trkpt lat="43.57578" lon="2.54745">
        <ele>808</ele>
        <time>2021-07-28T14:00:39.000Z</time>
      </trkpt>
      <trkpt lat="43.57579" lon="2.54743">
        <ele>808.40002441406</ele>
        <time>2021-07-28T14:00:40.000Z</time>
      </trkpt>
      <trkpt lat="43.5758" lon="2.54741">
        <ele>808.79998779297</ele>
        <time>2021-07-28T14:00:41.000Z</time>
      </trkpt>
      <trkpt lat="43.57582" lon="2.5474">
        <ele>809.20001220703</ele>
        <time>2021-07-28T14:00:42.000Z</time>
      </trkpt>
      <trkpt lat="43.57583" lon="2.54738">
        <ele>809.79998779297</ele>
        <time>2021-07-28T14:00:43.000Z</time>
      </trkpt>
      <trkpt lat="43.57589" lon="2.54734">
        <ele>810.20001220703</ele>
        <time>2021-07-28T14:00:47.000Z</time>
      </trkpt>
      <trkpt lat="43.5759" lon="2.54734">
        <ele>811</ele>
        <time>2021-07-28T14:00:48.000Z</time>
      </trkpt>
      <trkpt lat="43.57591" lon="2.54733">
        <ele>811.40002441406</ele>
        <time>2021-07-28T14:00:49.000Z</time>
      </trkpt>
      <trkpt lat="43.57592" lon="2.54733">
        <ele>811.79998779297</ele>
        <time>2021-07-28T14:00:50.000Z</time>
      </trkpt>
      <trkpt lat="43.576" lon="2.54728">
        <ele>812.20001220703</ele>
        <time>2021-07-28T14:00:55.000Z</time>
      </trkpt>
      <trkpt lat="43.57602" lon="2.54727">
        <ele>812.59997558594</ele>
        <time>2021-07-28T14:00:56.000Z</time>
      </trkpt>
      <trkpt lat="43.57603" lon="2.54726">
        <ele>813</ele>
        <time>2021-07-28T14:00:57.000Z</time>
      </trkpt>
      <trkpt lat="43.57605" lon="2.54725">
        <ele>813.40002441406</ele>
        <time>2021-07-28T14:00:58.000Z</time>
      </trkpt>
      <trkpt lat="43.57606" lon="2.54723">
        <ele>813.79998779297</ele>
        <time>2021-07-28T14:00:59.000Z</time>
      </trkpt>
      <trkpt lat="43.57613" lon="2.54715">
        <ele>813.79998779297</ele>
        <time>2021-07-28T14:01:04.000Z</time>
      </trkpt>
      <trkpt lat="43.57624" lon="2.54707">
        <ele>813.79998779297</ele>
        <time>2021-07-28T14:01:11.000Z</time>
      </trkpt>
      <trkpt lat="43.57628" lon="2.54704">
        <ele>814.20001220703</ele>
        <time>2021-07-28T14:01:13.000Z</time>
      </trkpt>
      <trkpt lat="43.57629" lon="2.54703">
        <ele>814.59997558594</ele>
        <time>2021-07-28T14:01:14.000Z</time>
      </trkpt>
      <trkpt lat="43.57631" lon="2.54701">
        <ele>815</ele>
        <time>2021-07-28T14:01:15.000Z</time>
      </trkpt>
      <trkpt lat="43.57633" lon="2.547">
        <ele>815.40002441406</ele>
        <time>2021-07-28T14:01:16.000Z</time>
      </trkpt>
      <trkpt lat="43.57635" lon="2.54698">
        <ele>815.79998779297</ele>
        <time>2021-07-28T14:01:17.000Z</time>
      </trkpt>
      <trkpt lat="43.57647" lon="2.54689">
        <ele>815.79998779297</ele>
        <time>2021-07-28T14:01:23.000Z</time>
      </trkpt>
      <trkpt lat="43.57664" lon="2.54672">
        <ele>815.79998779297</ele>
        <time>2021-07-28T14:01:31.000Z</time>
      </trkpt>
      <trkpt lat="43.57682" lon="2.54655">
        <ele>815.79998779297</ele>
        <time>2021-07-28T14:01:39.000Z</time>
      </trkpt>
      <trkpt lat="43.57692" lon="2.54641">
        <ele>815.79998779297</ele>
        <time>2021-07-28T14:01:45.000Z</time>
      </trkpt>
      <trkpt lat="43.57703" lon="2.54628">
        <ele>815.79998779297</ele>
        <time>2021-07-28T14:01:51.000Z</time>
      </trkpt>
      <trkpt lat="43.57712" lon="2.54617">
        <ele>815.79998779297</ele>
        <time>2021-07-28T14:01:56.000Z</time>
      </trkpt>
      <trkpt lat="43.57715" lon="2.54612">
        <ele>816.20001220703</ele>
        <time>2021-07-28T14:01:58.000Z</time>
      </trkpt>
      <trkpt lat="43.57717" lon="2.5461">
        <ele>816.59997558594</ele>
        <time>2021-07-28T14:01:59.000Z</time>
      </trkpt>
      <trkpt lat="43.57719" lon="2.54607">
        <ele>817</ele>
        <time>2021-07-28T14:02:00.000Z</time>
      </trkpt>
      <trkpt lat="43.5772" lon="2.54605">
        <ele>817.79998779297</ele>
        <time>2021-07-28T14:02:01.000Z</time>
      </trkpt>
      <trkpt lat="43.57725" lon="2.54599">
        <ele>817.79998779297</ele>
        <time>2021-07-28T14:02:04.000Z</time>
      </trkpt>
      <trkpt lat="43.57737" lon="2.54585">
        <ele>817.79998779297</ele>
        <time>2021-07-28T14:02:10.000Z</time>
      </trkpt>
      <trkpt lat="43.57747" lon="2.54571">
        <ele>817.79998779297</ele>
        <time>2021-07-28T14:02:16.000Z</time>
      </trkpt>
      <trkpt lat="43.57757" lon="2.54564">
        <ele>817.79998779297</ele>
        <time>2021-07-28T14:02:21.000Z</time>
      </trkpt>
      <trkpt lat="43.57759" lon="2.54564">
        <ele>817.79998779297</ele>
        <time>2021-07-28T14:02:22.000Z</time>
      </trkpt>
      <trkpt lat="43.57761" lon="2.54566">
        <ele>818.20001220703</ele>
        <time>2021-07-28T14:02:23.000Z</time>
      </trkpt>
      <trkpt lat="43.57763" lon="2.54568">
        <ele>818.79998779297</ele>
        <time>2021-07-28T14:02:24.000Z</time>
      </trkpt>
      <trkpt lat="43.57765" lon="2.54571">
        <ele>819.20001220703</ele>
        <time>2021-07-28T14:02:25.000Z</time>
      </trkpt>
      <trkpt lat="43.57767" lon="2.54573">
        <ele>820</ele>
        <time>2021-07-28T14:02:26.000Z</time>
      </trkpt>
      <trkpt lat="43.57781" lon="2.54594">
        <ele>820</ele>
        <time>2021-07-28T14:02:34.000Z</time>
      </trkpt>
      <trkpt lat="43.57794" lon="2.54614">
        <ele>820.40002441406</ele>
        <time>2021-07-28T14:02:42.000Z</time>
      </trkpt>
      <trkpt lat="43.57795" lon="2.54616">
        <ele>820.79998779297</ele>
        <time>2021-07-28T14:02:43.000Z</time>
      </trkpt>
      <trkpt lat="43.57797" lon="2.54618">
        <ele>821.20001220703</ele>
        <time>2021-07-28T14:02:44.000Z</time>
      </trkpt>
      <trkpt lat="43.57799" lon="2.54621">
        <ele>821.59997558594</ele>
        <time>2021-07-28T14:02:45.000Z</time>
      </trkpt>
      <trkpt lat="43.57801" lon="2.54623">
        <ele>822</ele>
        <time>2021-07-28T14:02:46.000Z</time>
      </trkpt>
      <trkpt lat="43.57807" lon="2.54631">
        <ele>822</ele>
        <time>2021-07-28T14:02:49.000Z</time>
      </trkpt>
      <trkpt lat="43.57822" lon="2.54638">
        <ele>822</ele>
        <time>2021-07-28T14:02:55.000Z</time>
      </trkpt>
      <trkpt lat="43.57831" lon="2.54636">
        <ele>822.40002441406</ele>
        <time>2021-07-28T14:02:59.000Z</time>
      </trkpt>
      <trkpt lat="43.57833" lon="2.54635">
        <ele>822.79998779297</ele>
        <time>2021-07-28T14:03:00.000Z</time>
      </trkpt>
      <trkpt lat="43.57835" lon="2.54634">
        <ele>823.20001220703</ele>
        <time>2021-07-28T14:03:01.000Z</time>
      </trkpt>
      <trkpt lat="43.57837" lon="2.54633">
        <ele>823.59997558594</ele>
        <time>2021-07-28T14:03:02.000Z</time>
      </trkpt>
      <trkpt lat="43.57838" lon="2.54632">
        <ele>824</ele>
        <time>2021-07-28T14:03:03.000Z</time>
      </trkpt>
      <trkpt lat="43.57844" lon="2.54625">
        <ele>824</ele>
        <time>2021-07-28T14:03:07.000Z</time>
      </trkpt>
      <trkpt lat="43.57847" lon="2.5462">
        <ele>824.40002441406</ele>
        <time>2021-07-28T14:03:09.000Z</time>
      </trkpt>
      <trkpt lat="43.57848" lon="2.54618">
        <ele>825</ele>
        <time>2021-07-28T14:03:10.000Z</time>
      </trkpt>
      <trkpt lat="43.57849" lon="2.54616">
        <ele>825.40002441406</ele>
        <time>2021-07-28T14:03:11.000Z</time>
      </trkpt>
      <trkpt lat="43.5785" lon="2.54613">
        <ele>825.79998779297</ele>
        <time>2021-07-28T14:03:12.000Z</time>
      </trkpt>
      <trkpt lat="43.5785" lon="2.5461">
        <ele>826.20001220703</ele>
        <time>2021-07-28T14:03:13.000Z</time>
      </trkpt>
      <trkpt lat="43.57852" lon="2.54601">
        <ele>826.59997558594</ele>
        <time>2021-07-28T14:03:16.000Z</time>
      </trkpt>
      <trkpt lat="43.57852" lon="2.54599">
        <ele>827</ele>
        <time>2021-07-28T14:03:17.000Z</time>
      </trkpt>
      <trkpt lat="43.57853" lon="2.54596">
        <ele>827.40002441406</ele>
        <time>2021-07-28T14:03:18.000Z</time>
      </trkpt>
      <trkpt lat="43.57854" lon="2.54593">
        <ele>827.79998779297</ele>
        <time>2021-07-28T14:03:19.000Z</time>
      </trkpt>
      <trkpt lat="43.57854" lon="2.54591">
        <ele>828.20001220703</ele>
        <time>2021-07-28T14:03:20.000Z</time>
      </trkpt>
      <trkpt lat="43.57856" lon="2.54586">
        <ele>828.20001220703</ele>
        <time>2021-07-28T14:03:22.000Z</time>
      </trkpt>
      <trkpt lat="43.57859" lon="2.54576">
        <ele>828.59997558594</ele>
        <time>2021-07-28T14:03:26.000Z</time>
      </trkpt>
      <trkpt lat="43.5786" lon="2.54574">
        <ele>829</ele>
        <time>2021-07-28T14:03:27.000Z</time>
      </trkpt>
      <trkpt lat="43.5786" lon="2.54571">
        <ele>829.40002441406</ele>
        <time>2021-07-28T14:03:28.000Z</time>
      </trkpt>
      <trkpt lat="43.57861" lon="2.54569">
        <ele>829.79998779297</ele>
        <time>2021-07-28T14:03:29.000Z</time>
      </trkpt>
      <trkpt lat="43.57862" lon="2.54567">
        <ele>830.20001220703</ele>
        <time>2021-07-28T14:03:30.000Z</time>
      </trkpt>
      <trkpt lat="43.57865" lon="2.5456">
        <ele>830.20001220703</ele>
        <time>2021-07-28T14:03:33.000Z</time>
      </trkpt>
      <trkpt lat="43.5787" lon="2.5455">
        <ele>830.59997558594</ele>
        <time>2021-07-28T14:03:38.000Z</time>
      </trkpt>
      <trkpt lat="43.57871" lon="2.54548">
        <ele>831</ele>
        <time>2021-07-28T14:03:39.000Z</time>
      </trkpt>
      <trkpt lat="43.57872" lon="2.54546">
        <ele>831.40002441406</ele>
        <time>2021-07-28T14:03:40.000Z</time>
      </trkpt>
      <trkpt lat="43.57874" lon="2.54544">
        <ele>832.20001220703</ele>
        <time>2021-07-28T14:03:41.000Z</time>
      </trkpt>
      <trkpt lat="43.57879" lon="2.54534">
        <ele>832.20001220703</ele>
        <time>2021-07-28T14:03:46.000Z</time>
      </trkpt>
      <trkpt lat="43.57886" lon="2.54518">
        <ele>832.79998779297</ele>
        <time>2021-07-28T14:03:54.000Z</time>
      </trkpt>
      <trkpt lat="43.57887" lon="2.54516">
        <ele>833.20001220703</ele>
        <time>2021-07-28T14:03:55.000Z</time>
      </trkpt>
      <trkpt lat="43.57888" lon="2.54513">
        <ele>833.59997558594</ele>
        <time>2021-07-28T14:03:56.000Z</time>
      </trkpt>
      <trkpt lat="43.57889" lon="2.54511">
        <ele>834</ele>
        <time>2021-07-28T14:03:57.000Z</time>
      </trkpt>
      <trkpt lat="43.57889" lon="2.54509">
        <ele>834.40002441406</ele>
        <time>2021-07-28T14:03:58.000Z</time>
      </trkpt>
      <trkpt lat="43.57893" lon="2.545">
        <ele>834.40002441406</ele>
        <time>2021-07-28T14:04:02.000Z</time>
      </trkpt>
      <trkpt lat="43.57899" lon="2.54483">
        <ele>834.79998779297</ele>
        <time>2021-07-28T14:04:09.000Z</time>
      </trkpt>
      <trkpt lat="43.579" lon="2.5448">
        <ele>835.20001220703</ele>
        <time>2021-07-28T14:04:10.000Z</time>
      </trkpt>
      <trkpt lat="43.57901" lon="2.54478">
        <ele>835.59997558594</ele>
        <time>2021-07-28T14:04:11.000Z</time>
      </trkpt>
      <trkpt lat="43.57901" lon="2.54475">
        <ele>836</ele>
        <time>2021-07-28T14:04:12.000Z</time>
      </trkpt>
      <trkpt lat="43.57901" lon="2.54473">
        <ele>836.40002441406</ele>
        <time>2021-07-28T14:04:13.000Z</time>
      </trkpt>
      <trkpt lat="43.57902" lon="2.54463">
        <ele>836.40002441406</ele>
        <time>2021-07-28T14:04:17.000Z</time>
      </trkpt>
      <trkpt lat="43.57902" lon="2.54449">
        <ele>836.79998779297</ele>
        <time>2021-07-28T14:04:22.000Z</time>
      </trkpt>
      <trkpt lat="43.57902" lon="2.54446">
        <ele>837.20001220703</ele>
        <time>2021-07-28T14:04:23.000Z</time>
      </trkpt>
      <trkpt lat="43.57902" lon="2.54444">
        <ele>837.59997558594</ele>
        <time>2021-07-28T14:04:24.000Z</time>
      </trkpt>
      <trkpt lat="43.57902" lon="2.54441">
        <ele>838</ele>
        <time>2021-07-28T14:04:25.000Z</time>
      </trkpt>
      <trkpt lat="43.57902" lon="2.54438">
        <ele>838.40002441406</ele>
        <time>2021-07-28T14:04:26.000Z</time>
      </trkpt>
      <trkpt lat="43.57905" lon="2.54419">
        <ele>838.40002441406</ele>
        <time>2021-07-28T14:04:33.000Z</time>
      </trkpt>
      <trkpt lat="43.57906" lon="2.54414">
        <ele>838.79998779297</ele>
        <time>2021-07-28T14:04:35.000Z</time>
      </trkpt>
      <trkpt lat="43.57907" lon="2.54411">
        <ele>839.40002441406</ele>
        <time>2021-07-28T14:04:36.000Z</time>
      </trkpt>
      <trkpt lat="43.57908" lon="2.54409">
        <ele>839.79998779297</ele>
        <time>2021-07-28T14:04:37.000Z</time>
      </trkpt>
      <trkpt lat="43.57908" lon="2.54406">
        <ele>840.20001220703</ele>
        <time>2021-07-28T14:04:38.000Z</time>
      </trkpt>
      <trkpt lat="43.57909" lon="2.54404">
        <ele>840.59997558594</ele>
        <time>2021-07-28T14:04:39.000Z</time>
      </trkpt>
      <trkpt lat="43.5791" lon="2.54401">
        <ele>840.59997558594</ele>
        <time>2021-07-28T14:04:40.000Z</time>
      </trkpt>
      <trkpt lat="43.57914" lon="2.54382">
        <ele>840.59997558594</ele>
        <time>2021-07-28T14:04:47.000Z</time>
      </trkpt>
      <trkpt lat="43.57916" lon="2.54375">
        <ele>841</ele>
        <time>2021-07-28T14:04:50.000Z</time>
      </trkpt>
      <trkpt lat="43.57917" lon="2.54373">
        <ele>841.40002441406</ele>
        <time>2021-07-28T14:04:51.000Z</time>
      </trkpt>
      <trkpt lat="43.57918" lon="2.54371">
        <ele>841.79998779297</ele>
        <time>2021-07-28T14:04:52.000Z</time>
      </trkpt>
      <trkpt lat="43.5792" lon="2.54368">
        <ele>842.20001220703</ele>
        <time>2021-07-28T14:04:53.000Z</time>
      </trkpt>
      <trkpt lat="43.57921" lon="2.54367">
        <ele>842.59997558594</ele>
        <time>2021-07-28T14:04:54.000Z</time>
      </trkpt>
      <trkpt lat="43.5793" lon="2.5436">
        <ele>842.59997558594</ele>
        <time>2021-07-28T14:05:00.000Z</time>
      </trkpt>
      <trkpt lat="43.57931" lon="2.54358">
        <ele>842.59997558594</ele>
        <time>2021-07-28T14:05:01.000Z</time>
      </trkpt>
      <trkpt lat="43.57931" lon="2.54355">
        <ele>842.59997558594</ele>
        <time>2021-07-28T14:05:03.000Z</time>
      </trkpt>
      <trkpt lat="43.5793" lon="2.54353">
        <ele>842.59997558594</ele>
        <time>2021-07-28T14:05:05.000Z</time>
      </trkpt>
      <trkpt lat="43.5793" lon="2.54353">
        <ele>842.59997558594</ele>
        <time>2021-07-28T14:05:06.000Z</time>
      </trkpt>
      <trkpt lat="43.5793" lon="2.5435">
        <ele>842.59997558594</ele>
        <time>2021-07-28T14:06:11.000Z</time>
      </trkpt>
      <trkpt lat="43.57929" lon="2.54344">
        <ele>842.59997558594</ele>
        <time>2021-07-28T14:06:13.000Z</time>
      </trkpt>
      <trkpt lat="43.57924" lon="2.5433">
        <ele>842.59997558594</ele>
        <time>2021-07-28T14:06:17.000Z</time>
      </trkpt>
      <trkpt lat="43.57921" lon="2.54311">
        <ele>843</ele>
        <time>2021-07-28T14:06:23.000Z</time>
      </trkpt>
      <trkpt lat="43.57922" lon="2.54308">
        <ele>843.40002441406</ele>
        <time>2021-07-28T14:06:24.000Z</time>
      </trkpt>
      <trkpt lat="43.57922" lon="2.54305">
        <ele>843.79998779297</ele>
        <time>2021-07-28T14:06:25.000Z</time>
      </trkpt>
      <trkpt lat="43.57923" lon="2.54302">
        <ele>844.20001220703</ele>
        <time>2021-07-28T14:06:26.000Z</time>
      </trkpt>
      <trkpt lat="43.57924" lon="2.543">
        <ele>844.59997558594</ele>
        <time>2021-07-28T14:06:27.000Z</time>
      </trkpt>
      <trkpt lat="43.57925" lon="2.54294">
        <ele>844.59997558594</ele>
        <time>2021-07-28T14:06:29.000Z</time>
      </trkpt>
      <trkpt lat="43.57927" lon="2.54287">
        <ele>845.20001220703</ele>
        <time>2021-07-28T14:06:32.000Z</time>
      </trkpt>
      <trkpt lat="43.57927" lon="2.54285">
        <ele>845.59997558594</ele>
        <time>2021-07-28T14:06:33.000Z</time>
      </trkpt>
      <trkpt lat="43.57928" lon="2.54283">
        <ele>846.40002441406</ele>
        <time>2021-07-28T14:06:34.000Z</time>
      </trkpt>
      <trkpt lat="43.57929" lon="2.54281">
        <ele>846.79998779297</ele>
        <time>2021-07-28T14:06:35.000Z</time>
      </trkpt>
      <trkpt lat="43.5793" lon="2.54277">
        <ele>846.79998779297</ele>
        <time>2021-07-28T14:06:36.000Z</time>
      </trkpt>
      <trkpt lat="43.57934" lon="2.54269">
        <ele>847.40002441406</ele>
        <time>2021-07-28T14:06:40.000Z</time>
      </trkpt>
      <trkpt lat="43.57935" lon="2.54267">
        <ele>847.79998779297</ele>
        <time>2021-07-28T14:06:41.000Z</time>
      </trkpt>
      <trkpt lat="43.57936" lon="2.54264">
        <ele>848.20001220703</ele>
        <time>2021-07-28T14:06:42.000Z</time>
      </trkpt>
      <trkpt lat="43.57937" lon="2.54262">
        <ele>848.59997558594</ele>
        <time>2021-07-28T14:06:43.000Z</time>
      </trkpt>
      <trkpt lat="43.57938" lon="2.54259">
        <ele>849.20001220703</ele>
        <time>2021-07-28T14:06:44.000Z</time>
      </trkpt>
      <trkpt lat="43.5794" lon="2.54255">
        <ele>849.20001220703</ele>
        <time>2021-07-28T14:06:46.000Z</time>
      </trkpt>
      <trkpt lat="43.57946" lon="2.54246">
        <ele>849.59997558594</ele>
        <time>2021-07-28T14:06:50.000Z</time>
      </trkpt>
      <trkpt lat="43.57947" lon="2.54244">
        <ele>850</ele>
        <time>2021-07-28T14:06:51.000Z</time>
      </trkpt>
      <trkpt lat="43.57949" lon="2.54242">
        <ele>850.40002441406</ele>
        <time>2021-07-28T14:06:52.000Z</time>
      </trkpt>
      <trkpt lat="43.5795" lon="2.5424">
        <ele>850.79998779297</ele>
        <time>2021-07-28T14:06:53.000Z</time>
      </trkpt>
      <trkpt lat="43.57952" lon="2.54237">
        <ele>851.20001220703</ele>
        <time>2021-07-28T14:06:54.000Z</time>
      </trkpt>
      <trkpt lat="43.57957" lon="2.54227">
        <ele>851.59997558594</ele>
        <time>2021-07-28T14:06:59.000Z</time>
      </trkpt>
      <trkpt lat="43.57959" lon="2.54226">
        <ele>852</ele>
        <time>2021-07-28T14:07:00.000Z</time>
      </trkpt>
      <trkpt lat="43.5796" lon="2.54224">
        <ele>852.40002441406</ele>
        <time>2021-07-28T14:07:01.000Z</time>
      </trkpt>
      <trkpt lat="43.57962" lon="2.54221">
        <ele>852.79998779297</ele>
        <time>2021-07-28T14:07:02.000Z</time>
      </trkpt>
      <trkpt lat="43.57963" lon="2.54219">
        <ele>853.20001220703</ele>
        <time>2021-07-28T14:07:03.000Z</time>
      </trkpt>
      <trkpt lat="43.57971" lon="2.54207">
        <ele>853.20001220703</ele>
        <time>2021-07-28T14:07:08.000Z</time>
      </trkpt>
      <trkpt lat="43.57984" lon="2.54185">
        <ele>853.20001220703</ele>
        <time>2021-07-28T14:07:16.000Z</time>
      </trkpt>
      <trkpt lat="43.57993" lon="2.5417">
        <ele>853.59997558594</ele>
        <time>2021-07-28T14:07:22.000Z</time>
      </trkpt>
      <trkpt lat="43.57994" lon="2.54167">
        <ele>854.40002441406</ele>
        <time>2021-07-28T14:07:23.000Z</time>
      </trkpt>
      <trkpt lat="43.57996" lon="2.54165">
        <ele>855</ele>
        <time>2021-07-28T14:07:24.000Z</time>
      </trkpt>
      <trkpt lat="43.57997" lon="2.54163">
        <ele>855.40002441406</ele>
        <time>2021-07-28T14:07:25.000Z</time>
      </trkpt>
      <trkpt lat="43.57998" lon="2.5416">
        <ele>855.40002441406</ele>
        <time>2021-07-28T14:07:27.000Z</time>
      </trkpt>
      <trkpt lat="43.57997" lon="2.54156">
        <ele>855.40002441406</ele>
        <time>2021-07-28T14:07:32.000Z</time>
      </trkpt>
      <trkpt lat="43.57997" lon="2.54156">
        <ele>855.40002441406</ele>
        <time>2021-07-28T14:07:33.000Z</time>
      </trkpt>
      <trkpt lat="43.58" lon="2.54158">
        <ele>855.40002441406</ele>
        <time>2021-07-28T14:08:14.000Z</time>
      </trkpt>
      <trkpt lat="43.58002" lon="2.54154">
        <ele>855.40002441406</ele>
        <time>2021-07-28T14:08:16.000Z</time>
      </trkpt>
      <trkpt lat="43.58005" lon="2.54149">
        <ele>855.40002441406</ele>
        <time>2021-07-28T14:08:18.000Z</time>
      </trkpt>
      <trkpt lat="43.58013" lon="2.54134">
        <ele>855.40002441406</ele>
        <time>2021-07-28T14:08:23.000Z</time>
      </trkpt>
      <trkpt lat="43.58028" lon="2.5411">
        <ele>855.40002441406</ele>
        <time>2021-07-28T14:08:30.000Z</time>
      </trkpt>
      <trkpt lat="43.58044" lon="2.54081">
        <ele>855.40002441406</ele>
        <time>2021-07-28T14:08:36.000Z</time>
      </trkpt>
      <trkpt lat="43.58062" lon="2.54051">
        <ele>855.40002441406</ele>
        <time>2021-07-28T14:08:43.000Z</time>
      </trkpt>
      <trkpt lat="43.58074" lon="2.5403">
        <ele>855.40002441406</ele>
        <time>2021-07-28T14:08:50.000Z</time>
      </trkpt>
      <trkpt lat="43.58079" lon="2.54017">
        <ele>855.40002441406</ele>
        <time>2021-07-28T14:08:56.000Z</time>
      </trkpt>
      <trkpt lat="43.58081" lon="2.54006">
        <ele>855</ele>
        <time>2021-07-28T14:09:00.000Z</time>
      </trkpt>
      <trkpt lat="43.58081" lon="2.54002">
        <ele>854.59997558594</ele>
        <time>2021-07-28T14:09:01.000Z</time>
      </trkpt>
      <trkpt lat="43.58082" lon="2.53999">
        <ele>854</ele>
        <time>2021-07-28T14:09:02.000Z</time>
      </trkpt>
      <trkpt lat="43.58083" lon="2.53995">
        <ele>853.59997558594</ele>
        <time>2021-07-28T14:09:03.000Z</time>
      </trkpt>
      <trkpt lat="43.58083" lon="2.53991">
        <ele>853.20001220703</ele>
        <time>2021-07-28T14:09:04.000Z</time>
      </trkpt>
      <trkpt lat="43.58083" lon="2.53986">
        <ele>852.79998779297</ele>
        <time>2021-07-28T14:09:05.000Z</time>
      </trkpt>
      <trkpt lat="43.58083" lon="2.53981">
        <ele>852.40002441406</ele>
        <time>2021-07-28T14:09:06.000Z</time>
      </trkpt>
      <trkpt lat="43.58084" lon="2.53976">
        <ele>851.79998779297</ele>
        <time>2021-07-28T14:09:07.000Z</time>
      </trkpt>
      <trkpt lat="43.58084" lon="2.53971">
        <ele>851.40002441406</ele>
        <time>2021-07-28T14:09:08.000Z</time>
      </trkpt>
      <trkpt lat="43.58084" lon="2.53966">
        <ele>851</ele>
        <time>2021-07-28T14:09:09.000Z</time>
      </trkpt>
      <trkpt lat="43.58084" lon="2.53961">
        <ele>850.59997558594</ele>
        <time>2021-07-28T14:09:10.000Z</time>
      </trkpt>
      <trkpt lat="43.58084" lon="2.53955">
        <ele>850.20001220703</ele>
        <time>2021-07-28T14:09:11.000Z</time>
      </trkpt>
      <trkpt lat="43.58084" lon="2.53951">
        <ele>849.59997558594</ele>
        <time>2021-07-28T14:09:12.000Z</time>
      </trkpt>
      <trkpt lat="43.58084" lon="2.53946">
        <ele>849.20001220703</ele>
        <time>2021-07-28T14:09:13.000Z</time>
      </trkpt>
      <trkpt lat="43.58084" lon="2.53942">
        <ele>848.79998779297</ele>
        <time>2021-07-28T14:09:14.000Z</time>
      </trkpt>
      <trkpt lat="43.58085" lon="2.53932">
        <ele>848.20001220703</ele>
        <time>2021-07-28T14:09:16.000Z</time>
      </trkpt>
      <trkpt lat="43.58085" lon="2.53927">
        <ele>847.79998779297</ele>
        <time>2021-07-28T14:09:17.000Z</time>
      </trkpt>
      <trkpt lat="43.58086" lon="2.53922">
        <ele>847.20001220703</ele>
        <time>2021-07-28T14:09:18.000Z</time>
      </trkpt>
      <trkpt lat="43.58086" lon="2.53918">
        <ele>846.79998779297</ele>
        <time>2021-07-28T14:09:19.000Z</time>
      </trkpt>
      <trkpt lat="43.58087" lon="2.53915">
        <ele>846.20001220703</ele>
        <time>2021-07-28T14:09:20.000Z</time>
      </trkpt>
      <trkpt lat="43.58087" lon="2.53912">
        <ele>845.79998779297</ele>
        <time>2021-07-28T14:09:21.000Z</time>
      </trkpt>
      <trkpt lat="43.58087" lon="2.53909">
        <ele>845.40002441406</ele>
        <time>2021-07-28T14:09:22.000Z</time>
      </trkpt>
      <trkpt lat="43.58087" lon="2.53907">
        <ele>845</ele>
        <time>2021-07-28T14:09:23.000Z</time>
      </trkpt>
      <trkpt lat="43.58086" lon="2.53905">
        <ele>844.40002441406</ele>
        <time>2021-07-28T14:09:24.000Z</time>
      </trkpt>
      <trkpt lat="43.58086" lon="2.53903">
        <ele>844</ele>
        <time>2021-07-28T14:09:25.000Z</time>
      </trkpt>
      <trkpt lat="43.58086" lon="2.539">
        <ele>844</ele>
        <time>2021-07-28T14:09:26.000Z</time>
      </trkpt>
      <trkpt lat="43.58086" lon="2.53898">
        <ele>844</ele>
        <time>2021-07-28T14:09:28.000Z</time>
      </trkpt>
      <trkpt lat="43.58085" lon="2.53912">
        <ele>844</ele>
        <time>2021-07-28T14:09:59.000Z</time>
      </trkpt>
      <trkpt lat="43.58084" lon="2.53913">
        <ele>844</ele>
        <time>2021-07-28T14:10:00.000Z</time>
      </trkpt>
      <trkpt lat="43.58086" lon="2.53916">
        <ele>844</ele>
        <time>2021-07-28T14:10:03.000Z</time>
      </trkpt>
      <trkpt lat="43.58087" lon="2.53916">
        <ele>844</ele>
        <time>2021-07-28T14:10:05.000Z</time>
      </trkpt>
      <trkpt lat="43.58091" lon="2.53918">
        <ele>844</ele>
        <time>2021-07-28T14:10:18.000Z</time>
      </trkpt>
      <trkpt lat="43.58096" lon="2.53921">
        <ele>844</ele>
        <time>2021-07-28T14:10:21.000Z</time>
      </trkpt>
      <trkpt lat="43.58104" lon="2.53928">
        <ele>844</ele>
        <time>2021-07-28T14:10:26.000Z</time>
      </trkpt>
      <trkpt lat="43.58114" lon="2.53939">
        <ele>844</ele>
        <time>2021-07-28T14:10:33.000Z</time>
      </trkpt>
      <trkpt lat="43.58125" lon="2.53947">
        <ele>844</ele>
        <time>2021-07-28T14:10:39.000Z</time>
      </trkpt>
      <trkpt lat="43.58141" lon="2.53959">
        <ele>843.59997558594</ele>
        <time>2021-07-28T14:10:47.000Z</time>
      </trkpt>
      <trkpt lat="43.58143" lon="2.53961">
        <ele>843.20001220703</ele>
        <time>2021-07-28T14:10:48.000Z</time>
      </trkpt>
      <trkpt lat="43.58145" lon="2.53963">
        <ele>842.79998779297</ele>
        <time>2021-07-28T14:10:49.000Z</time>
      </trkpt>
      <trkpt lat="43.58147" lon="2.53965">
        <ele>842.40002441406</ele>
        <time>2021-07-28T14:10:50.000Z</time>
      </trkpt>
      <trkpt lat="43.58149" lon="2.53965">
        <ele>842</ele>
        <time>2021-07-28T14:10:51.000Z</time>
      </trkpt>
      <trkpt lat="43.5815" lon="2.53967">
        <ele>842</ele>
        <time>2021-07-28T14:10:52.000Z</time>
      </trkpt>
      <trkpt lat="43.58156" lon="2.53971">
        <ele>841.59997558594</ele>
        <time>2021-07-28T14:10:56.000Z</time>
      </trkpt>
      <trkpt lat="43.58157" lon="2.53972">
        <ele>841.20001220703</ele>
        <time>2021-07-28T14:10:57.000Z</time>
      </trkpt>
      <trkpt lat="43.58158" lon="2.53974">
        <ele>840.59997558594</ele>
        <time>2021-07-28T14:10:58.000Z</time>
      </trkpt>
      <trkpt lat="43.58158" lon="2.53977">
        <ele>840.20001220703</ele>
        <time>2021-07-28T14:10:59.000Z</time>
      </trkpt>
      <trkpt lat="43.5816" lon="2.53979">
        <ele>839.79998779297</ele>
        <time>2021-07-28T14:11:00.000Z</time>
      </trkpt>
      <trkpt lat="43.58161" lon="2.53984">
        <ele>839.79998779297</ele>
        <time>2021-07-28T14:11:02.000Z</time>
      </trkpt>
      <trkpt lat="43.5816" lon="2.53993">
        <ele>839.79998779297</ele>
        <time>2021-07-28T14:11:07.000Z</time>
      </trkpt>
      <trkpt lat="43.58159" lon="2.53997">
        <ele>839.79998779297</ele>
        <time>2021-07-28T14:11:11.000Z</time>
      </trkpt>
      <trkpt lat="43.58158" lon="2.53999">
        <ele>839.79998779297</ele>
        <time>2021-07-28T14:11:43.000Z</time>
      </trkpt>
      <trkpt lat="43.58157" lon="2.54">
        <ele>839.79998779297</ele>
        <time>2021-07-28T14:11:44.000Z</time>
      </trkpt>
      <trkpt lat="43.58153" lon="2.54015">
        <ele>839.79998779297</ele>
        <time>2021-07-28T14:11:51.000Z</time>
      </trkpt>
      <trkpt lat="43.58152" lon="2.54019">
        <ele>840.20001220703</ele>
        <time>2021-07-28T14:11:53.000Z</time>
      </trkpt>
      <trkpt lat="43.58151" lon="2.54021">
        <ele>840.59997558594</ele>
        <time>2021-07-28T14:11:54.000Z</time>
      </trkpt>
      <trkpt lat="43.58151" lon="2.54023">
        <ele>841</ele>
        <time>2021-07-28T14:11:55.000Z</time>
      </trkpt>
      <trkpt lat="43.5815" lon="2.54025">
        <ele>841.59997558594</ele>
        <time>2021-07-28T14:11:56.000Z</time>
      </trkpt>
      <trkpt lat="43.5815" lon="2.54028">
        <ele>842</ele>
        <time>2021-07-28T14:11:57.000Z</time>
      </trkpt>
      <trkpt lat="43.58147" lon="2.54043">
        <ele>842</ele>
        <time>2021-07-28T14:12:04.000Z</time>
      </trkpt>
      <trkpt lat="43.58145" lon="2.54052">
        <ele>842</ele>
        <time>2021-07-28T14:12:09.000Z</time>
      </trkpt>
      <trkpt lat="43.58145" lon="2.54054">
        <ele>842</ele>
        <time>2021-07-28T14:12:10.000Z</time>
      </trkpt>
      <trkpt lat="43.58143" lon="2.54065">
        <ele>842</ele>
        <time>2021-07-28T14:12:15.000Z</time>
      </trkpt>
      <trkpt lat="43.58143" lon="2.54066">
        <ele>842</ele>
        <time>2021-07-28T14:12:17.000Z</time>
      </trkpt>
      <trkpt lat="43.58145" lon="2.54061">
        <ele>842</ele>
        <time>2021-07-28T14:12:40.000Z</time>
      </trkpt>
      <trkpt lat="43.58146" lon="2.54059">
        <ele>842</ele>
        <time>2021-07-28T14:12:41.000Z</time>
      </trkpt>
      <trkpt lat="43.58147" lon="2.54049">
        <ele>842</ele>
        <time>2021-07-28T14:12:47.000Z</time>
      </trkpt>
      <trkpt lat="43.58147" lon="2.54049">
        <ele>842</ele>
        <time>2021-07-28T14:12:48.000Z</time>
      </trkpt>
      <trkpt lat="43.58148" lon="2.54045">
        <ele>842</ele>
        <time>2021-07-28T14:13:34.000Z</time>
      </trkpt>
      <trkpt lat="43.58149" lon="2.54041">
        <ele>842</ele>
        <time>2021-07-28T14:13:36.000Z</time>
      </trkpt>
      <trkpt lat="43.58152" lon="2.54025">
        <ele>842</ele>
        <time>2021-07-28T14:13:45.000Z</time>
      </trkpt>
      <trkpt lat="43.58153" lon="2.54022">
        <ele>842</ele>
        <time>2021-07-28T14:13:48.000Z</time>
      </trkpt>
      <trkpt lat="43.58155" lon="2.54015">
        <ele>842</ele>
        <time>2021-07-28T14:13:54.000Z</time>
      </trkpt>
      <trkpt lat="43.58156" lon="2.54013">
        <ele>842</ele>
        <time>2021-07-28T14:13:55.000Z</time>
      </trkpt>
      <trkpt lat="43.58159" lon="2.5401">
        <ele>842</ele>
        <time>2021-07-28T14:13:58.000Z</time>
      </trkpt>
      <trkpt lat="43.5816" lon="2.54006">
        <ele>842</ele>
        <time>2021-07-28T14:14:00.000Z</time>
      </trkpt>
      <trkpt lat="43.58161" lon="2.54001">
        <ele>841.59997558594</ele>
        <time>2021-07-28T14:14:03.000Z</time>
      </trkpt>
      <trkpt lat="43.58161" lon="2.53999">
        <ele>841.20001220703</ele>
        <time>2021-07-28T14:14:04.000Z</time>
      </trkpt>
      <trkpt lat="43.58162" lon="2.53997">
        <ele>840.79998779297</ele>
        <time>2021-07-28T14:14:05.000Z</time>
      </trkpt>
      <trkpt lat="43.58162" lon="2.53996">
        <ele>840.40002441406</ele>
        <time>2021-07-28T14:14:06.000Z</time>
      </trkpt>
      <trkpt lat="43.58163" lon="2.53994">
        <ele>840</ele>
        <time>2021-07-28T14:14:07.000Z</time>
      </trkpt>
      <trkpt lat="43.58163" lon="2.53992">
        <ele>840</ele>
        <time>2021-07-28T14:14:08.000Z</time>
      </trkpt>
      <trkpt lat="43.5816" lon="2.53983">
        <ele>840</ele>
        <time>2021-07-28T14:14:11.000Z</time>
      </trkpt>
      <trkpt lat="43.58158" lon="2.53978">
        <ele>840</ele>
        <time>2021-07-28T14:14:13.000Z</time>
      </trkpt>
      <trkpt lat="43.58153" lon="2.53973">
        <ele>840</ele>
        <time>2021-07-28T14:14:16.000Z</time>
      </trkpt>
      <trkpt lat="43.58145" lon="2.53967">
        <ele>840</ele>
        <time>2021-07-28T14:14:22.000Z</time>
      </trkpt>
      <trkpt lat="43.58139" lon="2.53962">
        <ele>840.40002441406</ele>
        <time>2021-07-28T14:14:26.000Z</time>
      </trkpt>
      <trkpt lat="43.58137" lon="2.5396">
        <ele>840.79998779297</ele>
        <time>2021-07-28T14:14:27.000Z</time>
      </trkpt>
      <trkpt lat="43.58136" lon="2.53959">
        <ele>841.20001220703</ele>
        <time>2021-07-28T14:14:28.000Z</time>
      </trkpt>
      <trkpt lat="43.58135" lon="2.53958">
        <ele>841.59997558594</ele>
        <time>2021-07-28T14:14:29.000Z</time>
      </trkpt>
      <trkpt lat="43.58133" lon="2.53956">
        <ele>842</ele>
        <time>2021-07-28T14:14:30.000Z</time>
      </trkpt>
      <trkpt lat="43.58123" lon="2.53946">
        <ele>842</ele>
        <time>2021-07-28T14:14:37.000Z</time>
      </trkpt>
      <trkpt lat="43.58121" lon="2.53944">
        <ele>842.40002441406</ele>
        <time>2021-07-28T14:14:38.000Z</time>
      </trkpt>
      <trkpt lat="43.5812" lon="2.53942">
        <ele>842.79998779297</ele>
        <time>2021-07-28T14:14:39.000Z</time>
      </trkpt>
      <trkpt lat="43.58118" lon="2.5394">
        <ele>843.20001220703</ele>
        <time>2021-07-28T14:14:40.000Z</time>
      </trkpt>
      <trkpt lat="43.58117" lon="2.53939">
        <ele>843.59997558594</ele>
        <time>2021-07-28T14:14:41.000Z</time>
      </trkpt>
      <trkpt lat="43.58116" lon="2.53938">
        <ele>844</ele>
        <time>2021-07-28T14:14:42.000Z</time>
      </trkpt>
      <trkpt lat="43.58113" lon="2.53935">
        <ele>844</ele>
        <time>2021-07-28T14:14:44.000Z</time>
      </trkpt>
      <trkpt lat="43.58102" lon="2.53926">
        <ele>844</ele>
        <time>2021-07-28T14:14:51.000Z</time>
      </trkpt>
      <trkpt lat="43.58088" lon="2.53918">
        <ele>844</ele>
        <time>2021-07-28T14:14:59.000Z</time>
      </trkpt>
      <trkpt lat="43.58086" lon="2.53917">
        <ele>844</ele>
        <time>2021-07-28T14:15:02.000Z</time>
      </trkpt>
      <trkpt lat="43.58085" lon="2.53911">
        <ele>844</ele>
        <time>2021-07-28T14:15:10.000Z</time>
      </trkpt>
      <trkpt lat="43.58085" lon="2.53909">
        <ele>844</ele>
        <time>2021-07-28T14:15:11.000Z</time>
      </trkpt>
      <trkpt lat="43.58086" lon="2.5389">
        <ele>843.59997558594</ele>
        <time>2021-07-28T14:15:18.000Z</time>
      </trkpt>
      <trkpt lat="43.58086" lon="2.53887">
        <ele>843.20001220703</ele>
        <time>2021-07-28T14:15:19.000Z</time>
      </trkpt>
      <trkpt lat="43.58086" lon="2.53885">
        <ele>842.79998779297</ele>
        <time>2021-07-28T14:15:20.000Z</time>
      </trkpt>
      <trkpt lat="43.58086" lon="2.53885">
        <ele>842.40002441406</ele>
        <time>2021-07-28T14:15:21.000Z</time>
      </trkpt>
      <trkpt lat="43.58086" lon="2.53881">
        <ele>842</ele>
        <time>2021-07-28T14:15:36.000Z</time>
      </trkpt>
      <trkpt lat="43.58087" lon="2.53867">
        <ele>841.59997558594</ele>
        <time>2021-07-28T14:15:40.000Z</time>
      </trkpt>
      <trkpt lat="43.58088" lon="2.53862">
        <ele>841.20001220703</ele>
        <time>2021-07-28T14:15:41.000Z</time>
      </trkpt>
      <trkpt lat="43.58089" lon="2.53858">
        <ele>840.59997558594</ele>
        <time>2021-07-28T14:15:42.000Z</time>
      </trkpt>
      <trkpt lat="43.58089" lon="2.53854">
        <ele>840.20001220703</ele>
        <time>2021-07-28T14:15:43.000Z</time>
      </trkpt>
      <trkpt lat="43.58089" lon="2.53849">
        <ele>839.79998779297</ele>
        <time>2021-07-28T14:15:44.000Z</time>
      </trkpt>
      <trkpt lat="43.5809" lon="2.53845">
        <ele>839.40002441406</ele>
        <time>2021-07-28T14:15:45.000Z</time>
      </trkpt>
      <trkpt lat="43.5809" lon="2.53841">
        <ele>838.79998779297</ele>
        <time>2021-07-28T14:15:46.000Z</time>
      </trkpt>
      <trkpt lat="43.58091" lon="2.53836">
        <ele>838.40002441406</ele>
        <time>2021-07-28T14:15:47.000Z</time>
      </trkpt>
      <trkpt lat="43.58091" lon="2.53832">
        <ele>837.79998779297</ele>
        <time>2021-07-28T14:15:48.000Z</time>
      </trkpt>
      <trkpt lat="43.58091" lon="2.53827">
        <ele>837.40002441406</ele>
        <time>2021-07-28T14:15:49.000Z</time>
      </trkpt>
      <trkpt lat="43.58091" lon="2.53822">
        <ele>836.79998779297</ele>
        <time>2021-07-28T14:15:50.000Z</time>
      </trkpt>
      <trkpt lat="43.58091" lon="2.53818">
        <ele>836.40002441406</ele>
        <time>2021-07-28T14:15:51.000Z</time>
      </trkpt>
      <trkpt lat="43.58091" lon="2.53814">
        <ele>835.79998779297</ele>
        <time>2021-07-28T14:15:52.000Z</time>
      </trkpt>
      <trkpt lat="43.58092" lon="2.53809">
        <ele>835.20001220703</ele>
        <time>2021-07-28T14:15:53.000Z</time>
      </trkpt>
      <trkpt lat="43.58092" lon="2.53805">
        <ele>834.59997558594</ele>
        <time>2021-07-28T14:15:54.000Z</time>
      </trkpt>
      <trkpt lat="43.58093" lon="2.53801">
        <ele>834</ele>
        <time>2021-07-28T14:15:55.000Z</time>
      </trkpt>
      <trkpt lat="43.58093" lon="2.53798">
        <ele>833.40002441406</ele>
        <time>2021-07-28T14:15:56.000Z</time>
      </trkpt>
      <trkpt lat="43.58094" lon="2.53794">
        <ele>832.79998779297</ele>
        <time>2021-07-28T14:15:57.000Z</time>
      </trkpt>
      <trkpt lat="43.58095" lon="2.53789">
        <ele>832.20001220703</ele>
        <time>2021-07-28T14:15:58.000Z</time>
      </trkpt>
      <trkpt lat="43.58096" lon="2.53785">
        <ele>831.59997558594</ele>
        <time>2021-07-28T14:15:59.000Z</time>
      </trkpt>
      <trkpt lat="43.58096" lon="2.5378">
        <ele>831</ele>
        <time>2021-07-28T14:16:00.000Z</time>
      </trkpt>
      <trkpt lat="43.58097" lon="2.53775">
        <ele>830.40002441406</ele>
        <time>2021-07-28T14:16:01.000Z</time>
      </trkpt>
      <trkpt lat="43.58097" lon="2.5377">
        <ele>829.79998779297</ele>
        <time>2021-07-28T14:16:02.000Z</time>
      </trkpt>
      <trkpt lat="43.58097" lon="2.53764">
        <ele>829.20001220703</ele>
        <time>2021-07-28T14:16:03.000Z</time>
      </trkpt>
      <trkpt lat="43.58098" lon="2.53758">
        <ele>828</ele>
        <time>2021-07-28T14:16:04.000Z</time>
      </trkpt>
      <trkpt lat="43.58098" lon="2.53752">
        <ele>828</ele>
        <time>2021-07-28T14:16:05.000Z</time>
      </trkpt>
      <trkpt lat="43.58098" lon="2.53745">
        <ele>827.40002441406</ele>
        <time>2021-07-28T14:16:06.000Z</time>
      </trkpt>
      <trkpt lat="43.58098" lon="2.5374">
        <ele>827</ele>
        <time>2021-07-28T14:16:07.000Z</time>
      </trkpt>
      <trkpt lat="43.58098" lon="2.53737">
        <ele>826.59997558594</ele>
        <time>2021-07-28T14:16:08.000Z</time>
      </trkpt>
      <trkpt lat="43.58097" lon="2.53734">
        <ele>826.20001220703</ele>
        <time>2021-07-28T14:16:09.000Z</time>
      </trkpt>
      <trkpt lat="43.58097" lon="2.53731">
        <ele>825.79998779297</ele>
        <time>2021-07-28T14:16:10.000Z</time>
      </trkpt>
      <trkpt lat="43.58098" lon="2.53714">
        <ele>825.79998779297</ele>
        <time>2021-07-28T14:16:15.000Z</time>
      </trkpt>
      <trkpt lat="43.58098" lon="2.5369">
        <ele>825.79998779297</ele>
        <time>2021-07-28T14:16:21.000Z</time>
      </trkpt>
      <trkpt lat="43.58098" lon="2.53685">
        <ele>825.40002441406</ele>
        <time>2021-07-28T14:16:22.000Z</time>
      </trkpt>
      <trkpt lat="43.58098" lon="2.53681">
        <ele>824.79998779297</ele>
        <time>2021-07-28T14:16:23.000Z</time>
      </trkpt>
      <trkpt lat="43.58099" lon="2.53677">
        <ele>824.40002441406</ele>
        <time>2021-07-28T14:16:24.000Z</time>
      </trkpt>
      <trkpt lat="43.58099" lon="2.53673">
        <ele>824</ele>
        <time>2021-07-28T14:16:25.000Z</time>
      </trkpt>
      <trkpt lat="43.58099" lon="2.53668">
        <ele>823.59997558594</ele>
        <time>2021-07-28T14:16:26.000Z</time>
      </trkpt>
      <trkpt lat="43.581" lon="2.5366">
        <ele>823.59997558594</ele>
        <time>2021-07-28T14:16:28.000Z</time>
      </trkpt>
      <trkpt lat="43.581" lon="2.53656">
        <ele>822.59997558594</ele>
        <time>2021-07-28T14:16:29.000Z</time>
      </trkpt>
      <trkpt lat="43.58101" lon="2.53653">
        <ele>822.20001220703</ele>
        <time>2021-07-28T14:16:30.000Z</time>
      </trkpt>
      <trkpt lat="43.58101" lon="2.53648">
        <ele>821.79998779297</ele>
        <time>2021-07-28T14:16:31.000Z</time>
      </trkpt>
      <trkpt lat="43.58101" lon="2.53645">
        <ele>821.40002441406</ele>
        <time>2021-07-28T14:16:32.000Z</time>
      </trkpt>
      <trkpt lat="43.58101" lon="2.5364">
        <ele>821</ele>
        <time>2021-07-28T14:16:33.000Z</time>
      </trkpt>
      <trkpt lat="43.58101" lon="2.53634">
        <ele>820.59997558594</ele>
        <time>2021-07-28T14:16:34.000Z</time>
      </trkpt>
      <trkpt lat="43.581" lon="2.53628">
        <ele>820</ele>
        <time>2021-07-28T14:16:35.000Z</time>
      </trkpt>
      <trkpt lat="43.58099" lon="2.53623">
        <ele>819.59997558594</ele>
        <time>2021-07-28T14:16:36.000Z</time>
      </trkpt>
      <trkpt lat="43.58098" lon="2.5362">
        <ele>819</ele>
        <time>2021-07-28T14:16:37.000Z</time>
      </trkpt>
      <trkpt lat="43.58099" lon="2.53617">
        <ele>818.59997558594</ele>
        <time>2021-07-28T14:16:38.000Z</time>
      </trkpt>
      <trkpt lat="43.58099" lon="2.53614">
        <ele>818</ele>
        <time>2021-07-28T14:16:39.000Z</time>
      </trkpt>
      <trkpt lat="43.581" lon="2.53611">
        <ele>817.40002441406</ele>
        <time>2021-07-28T14:16:40.000Z</time>
      </trkpt>
      <trkpt lat="43.58101" lon="2.53609">
        <ele>817</ele>
        <time>2021-07-28T14:16:41.000Z</time>
      </trkpt>
      <trkpt lat="43.58104" lon="2.53606">
        <ele>817</ele>
        <time>2021-07-28T14:16:42.000Z</time>
      </trkpt>
      <trkpt lat="43.58114" lon="2.53594">
        <ele>817</ele>
        <time>2021-07-28T14:16:46.000Z</time>
      </trkpt>
      <trkpt lat="43.58128" lon="2.53575">
        <ele>817</ele>
        <time>2021-07-28T14:16:51.000Z</time>
      </trkpt>
      <trkpt lat="43.5815" lon="2.53545">
        <ele>817</ele>
        <time>2021-07-28T14:16:59.000Z</time>
      </trkpt>
      <trkpt lat="43.58166" lon="2.53524">
        <ele>817</ele>
        <time>2021-07-28T14:17:05.000Z</time>
      </trkpt>
      <trkpt lat="43.58188" lon="2.53495">
        <ele>817</ele>
        <time>2021-07-28T14:17:14.000Z</time>
      </trkpt>
      <trkpt lat="43.58202" lon="2.5348">
        <ele>817</ele>
        <time>2021-07-28T14:17:20.000Z</time>
      </trkpt>
      <trkpt lat="43.5822" lon="2.53464">
        <ele>817</ele>
        <time>2021-07-28T14:17:27.000Z</time>
      </trkpt>
      <trkpt lat="43.58224" lon="2.5346">
        <ele>817.40002441406</ele>
        <time>2021-07-28T14:17:29.000Z</time>
      </trkpt>
      <trkpt lat="43.58226" lon="2.53458">
        <ele>817.79998779297</ele>
        <time>2021-07-28T14:17:30.000Z</time>
      </trkpt>
      <trkpt lat="43.58229" lon="2.53457">
        <ele>818.20001220703</ele>
        <time>2021-07-28T14:17:31.000Z</time>
      </trkpt>
      <trkpt lat="43.58231" lon="2.53455">
        <ele>818.59997558594</ele>
        <time>2021-07-28T14:17:32.000Z</time>
      </trkpt>
      <trkpt lat="43.58234" lon="2.53454">
        <ele>819</ele>
        <time>2021-07-28T14:17:33.000Z</time>
      </trkpt>
      <trkpt lat="43.58257" lon="2.53435">
        <ele>819</ele>
        <time>2021-07-28T14:17:42.000Z</time>
      </trkpt>
      <trkpt lat="43.58278" lon="2.5341">
        <ele>819</ele>
        <time>2021-07-28T14:17:49.000Z</time>
      </trkpt>
      <trkpt lat="43.58292" lon="2.5339">
        <ele>819</ele>
        <time>2021-07-28T14:17:54.000Z</time>
      </trkpt>
      <trkpt lat="43.58297" lon="2.53382">
        <ele>819</ele>
        <time>2021-07-28T14:17:56.000Z</time>
      </trkpt>
      <trkpt lat="43.58311" lon="2.53354">
        <ele>819</ele>
        <time>2021-07-28T14:18:03.000Z</time>
      </trkpt>
      <trkpt lat="43.58322" lon="2.53332">
        <ele>819</ele>
        <time>2021-07-28T14:18:09.000Z</time>
      </trkpt>
      <trkpt lat="43.58333" lon="2.53306">
        <ele>819</ele>
        <time>2021-07-28T14:18:16.000Z</time>
      </trkpt>
      <trkpt lat="43.58338" lon="2.53297">
        <ele>819</ele>
        <time>2021-07-28T14:18:21.000Z</time>
      </trkpt>
      <trkpt lat="43.5834" lon="2.53297">
        <ele>819</ele>
        <time>2021-07-28T14:18:23.000Z</time>
      </trkpt>
      <trkpt lat="43.58342" lon="2.53297">
        <ele>816.79998779297</ele>
        <time>2021-07-28T14:18:34.000Z</time>
      </trkpt>
      <trkpt lat="43.58344" lon="2.53294">
        <ele>816.79998779297</ele>
        <time>2021-07-28T14:18:35.000Z</time>
      </trkpt>
      <trkpt lat="43.58356" lon="2.53278">
        <ele>816.79998779297</ele>
        <time>2021-07-28T14:18:39.000Z</time>
      </trkpt>
      <trkpt lat="43.58366" lon="2.53251">
        <ele>816.79998779297</ele>
        <time>2021-07-28T14:18:44.000Z</time>
      </trkpt>
      <trkpt lat="43.58372" lon="2.53225">
        <ele>816.40002441406</ele>
        <time>2021-07-28T14:18:48.000Z</time>
      </trkpt>
      <trkpt lat="43.58373" lon="2.5322">
        <ele>816</ele>
        <time>2021-07-28T14:18:49.000Z</time>
      </trkpt>
      <trkpt lat="43.58375" lon="2.53216">
        <ele>815.59997558594</ele>
        <time>2021-07-28T14:18:50.000Z</time>
      </trkpt>
      <trkpt lat="43.58376" lon="2.53211">
        <ele>815.20001220703</ele>
        <time>2021-07-28T14:18:51.000Z</time>
      </trkpt>
      <trkpt lat="43.58378" lon="2.53206">
        <ele>814.79998779297</ele>
        <time>2021-07-28T14:18:52.000Z</time>
      </trkpt>
      <trkpt lat="43.58385" lon="2.53183">
        <ele>814.79998779297</ele>
        <time>2021-07-28T14:18:57.000Z</time>
      </trkpt>
      <trkpt lat="43.58388" lon="2.53174">
        <ele>814.40002441406</ele>
        <time>2021-07-28T14:18:59.000Z</time>
      </trkpt>
      <trkpt lat="43.5839" lon="2.53169">
        <ele>813.79998779297</ele>
        <time>2021-07-28T14:19:00.000Z</time>
      </trkpt>
      <trkpt lat="43.58391" lon="2.53164">
        <ele>813.40002441406</ele>
        <time>2021-07-28T14:19:01.000Z</time>
      </trkpt>
      <trkpt lat="43.58393" lon="2.53159">
        <ele>813</ele>
        <time>2021-07-28T14:19:02.000Z</time>
      </trkpt>
      <trkpt lat="43.58394" lon="2.53154">
        <ele>812.59997558594</ele>
        <time>2021-07-28T14:19:03.000Z</time>
      </trkpt>
      <trkpt lat="43.58398" lon="2.53143">
        <ele>812.20001220703</ele>
        <time>2021-07-28T14:19:05.000Z</time>
      </trkpt>
      <trkpt lat="43.58401" lon="2.53136">
        <ele>811.79998779297</ele>
        <time>2021-07-28T14:19:06.000Z</time>
      </trkpt>
      <trkpt lat="43.58403" lon="2.53128">
        <ele>811.40002441406</ele>
        <time>2021-07-28T14:19:07.000Z</time>
      </trkpt>
      <trkpt lat="43.58406" lon="2.53121">
        <ele>811</ele>
        <time>2021-07-28T14:19:08.000Z</time>
      </trkpt>
      <trkpt lat="43.58408" lon="2.53113">
        <ele>810.40002441406</ele>
        <time>2021-07-28T14:19:09.000Z</time>
      </trkpt>
      <trkpt lat="43.5841" lon="2.53106">
        <ele>809.79998779297</ele>
        <time>2021-07-28T14:19:10.000Z</time>
      </trkpt>
      <trkpt lat="43.58411" lon="2.53101">
        <ele>809.20001220703</ele>
        <time>2021-07-28T14:19:11.000Z</time>
      </trkpt>
      <trkpt lat="43.58411" lon="2.53095">
        <ele>808.59997558594</ele>
        <time>2021-07-28T14:19:12.000Z</time>
      </trkpt>
      <trkpt lat="43.58412" lon="2.53088">
        <ele>808</ele>
        <time>2021-07-28T14:19:13.000Z</time>
      </trkpt>
      <trkpt lat="43.58415" lon="2.53078">
        <ele>807.59997558594</ele>
        <time>2021-07-28T14:19:15.000Z</time>
      </trkpt>
      <trkpt lat="43.58416" lon="2.53073">
        <ele>807.20001220703</ele>
        <time>2021-07-28T14:19:16.000Z</time>
      </trkpt>
      <trkpt lat="43.58418" lon="2.53071">
        <ele>806.79998779297</ele>
        <time>2021-07-28T14:19:17.000Z</time>
      </trkpt>
      <trkpt lat="43.58421" lon="2.53067">
        <ele>806.40002441406</ele>
        <time>2021-07-28T14:19:18.000Z</time>
      </trkpt>
      <trkpt lat="43.58423" lon="2.53062">
        <ele>806</ele>
        <time>2021-07-28T14:19:19.000Z</time>
      </trkpt>
      <trkpt lat="43.58425" lon="2.53057">
        <ele>806</ele>
        <time>2021-07-28T14:19:20.000Z</time>
      </trkpt>
      <trkpt lat="43.58428" lon="2.53054">
        <ele>805.40002441406</ele>
        <time>2021-07-28T14:19:21.000Z</time>
      </trkpt>
      <trkpt lat="43.5843" lon="2.53049">
        <ele>805</ele>
        <time>2021-07-28T14:19:22.000Z</time>
      </trkpt>
      <trkpt lat="43.58432" lon="2.53044">
        <ele>804.20001220703</ele>
        <time>2021-07-28T14:19:23.000Z</time>
      </trkpt>
      <trkpt lat="43.58435" lon="2.53039">
        <ele>803.59997558594</ele>
        <time>2021-07-28T14:19:24.000Z</time>
      </trkpt>
      <trkpt lat="43.58437" lon="2.53034">
        <ele>803.20001220703</ele>
        <time>2021-07-28T14:19:25.000Z</time>
      </trkpt>
      <trkpt lat="43.58439" lon="2.53029">
        <ele>802.79998779297</ele>
        <time>2021-07-28T14:19:26.000Z</time>
      </trkpt>
      <trkpt lat="43.58442" lon="2.53023">
        <ele>802.20001220703</ele>
        <time>2021-07-28T14:19:27.000Z</time>
      </trkpt>
      <trkpt lat="43.58444" lon="2.53017">
        <ele>801.79998779297</ele>
        <time>2021-07-28T14:19:28.000Z</time>
      </trkpt>
      <trkpt lat="43.58446" lon="2.5301">
        <ele>801.40002441406</ele>
        <time>2021-07-28T14:19:29.000Z</time>
      </trkpt>
      <trkpt lat="43.58448" lon="2.53005">
        <ele>801.40002441406</ele>
        <time>2021-07-28T14:19:30.000Z</time>
      </trkpt>
      <trkpt lat="43.58451" lon="2.52994">
        <ele>800.79998779297</ele>
        <time>2021-07-28T14:19:32.000Z</time>
      </trkpt>
      <trkpt lat="43.58454" lon="2.5299">
        <ele>800.40002441406</ele>
        <time>2021-07-28T14:19:33.000Z</time>
      </trkpt>
      <trkpt lat="43.58456" lon="2.52984">
        <ele>800</ele>
        <time>2021-07-28T14:19:34.000Z</time>
      </trkpt>
      <trkpt lat="43.58459" lon="2.52978">
        <ele>799.59997558594</ele>
        <time>2021-07-28T14:19:35.000Z</time>
      </trkpt>
      <trkpt lat="43.58462" lon="2.52972">
        <ele>799.20001220703</ele>
        <time>2021-07-28T14:19:36.000Z</time>
      </trkpt>
      <trkpt lat="43.58467" lon="2.52961">
        <ele>798.59997558594</ele>
        <time>2021-07-28T14:19:38.000Z</time>
      </trkpt>
      <trkpt lat="43.5847" lon="2.52955">
        <ele>798.20001220703</ele>
        <time>2021-07-28T14:19:39.000Z</time>
      </trkpt>
      <trkpt lat="43.58472" lon="2.52949">
        <ele>797.79998779297</ele>
        <time>2021-07-28T14:19:40.000Z</time>
      </trkpt>
      <trkpt lat="43.58475" lon="2.52944">
        <ele>797.20001220703</ele>
        <time>2021-07-28T14:19:41.000Z</time>
      </trkpt>
      <trkpt lat="43.58477" lon="2.52939">
        <ele>796.79998779297</ele>
        <time>2021-07-28T14:19:42.000Z</time>
      </trkpt>
      <trkpt lat="43.58482" lon="2.52929">
        <ele>796.40002441406</ele>
        <time>2021-07-28T14:19:44.000Z</time>
      </trkpt>
      <trkpt lat="43.58484" lon="2.52923">
        <ele>796</ele>
        <time>2021-07-28T14:19:45.000Z</time>
      </trkpt>
      <trkpt lat="43.58487" lon="2.52918">
        <ele>795.59997558594</ele>
        <time>2021-07-28T14:19:46.000Z</time>
      </trkpt>
      <trkpt lat="43.58489" lon="2.52912">
        <ele>794.79998779297</ele>
        <time>2021-07-28T14:19:47.000Z</time>
      </trkpt>
      <trkpt lat="43.58491" lon="2.52907">
        <ele>794.40002441406</ele>
        <time>2021-07-28T14:19:48.000Z</time>
      </trkpt>
      <trkpt lat="43.58493" lon="2.52902">
        <ele>794</ele>
        <time>2021-07-28T14:19:49.000Z</time>
      </trkpt>
      <trkpt lat="43.58496" lon="2.52898">
        <ele>793.59997558594</ele>
        <time>2021-07-28T14:19:50.000Z</time>
      </trkpt>
      <trkpt lat="43.58498" lon="2.52895">
        <ele>793.20001220703</ele>
        <time>2021-07-28T14:19:51.000Z</time>
      </trkpt>
      <trkpt lat="43.58501" lon="2.52891">
        <ele>792.59997558594</ele>
        <time>2021-07-28T14:19:52.000Z</time>
      </trkpt>
      <trkpt lat="43.58503" lon="2.52889">
        <ele>792.20001220703</ele>
        <time>2021-07-28T14:19:53.000Z</time>
      </trkpt>
      <trkpt lat="43.58505" lon="2.52885">
        <ele>791.79998779297</ele>
        <time>2021-07-28T14:19:54.000Z</time>
      </trkpt>
      <trkpt lat="43.58505" lon="2.52882">
        <ele>791.20001220703</ele>
        <time>2021-07-28T14:19:55.000Z</time>
      </trkpt>
      <trkpt lat="43.58506" lon="2.52879">
        <ele>790.79998779297</ele>
        <time>2021-07-28T14:19:56.000Z</time>
      </trkpt>
      <trkpt lat="43.58508" lon="2.52877">
        <ele>790.40002441406</ele>
        <time>2021-07-28T14:19:57.000Z</time>
      </trkpt>
      <trkpt lat="43.5851" lon="2.52874">
        <ele>790</ele>
        <time>2021-07-28T14:19:58.000Z</time>
      </trkpt>
      <trkpt lat="43.58511" lon="2.52871">
        <ele>789.59997558594</ele>
        <time>2021-07-28T14:19:59.000Z</time>
      </trkpt>
      <trkpt lat="43.58513" lon="2.52867">
        <ele>789.20001220703</ele>
        <time>2021-07-28T14:20:00.000Z</time>
      </trkpt>
      <trkpt lat="43.58514" lon="2.52864">
        <ele>788.79998779297</ele>
        <time>2021-07-28T14:20:01.000Z</time>
      </trkpt>
      <trkpt lat="43.58515" lon="2.52861">
        <ele>788.20001220703</ele>
        <time>2021-07-28T14:20:02.000Z</time>
      </trkpt>
      <trkpt lat="43.58517" lon="2.52858">
        <ele>787.79998779297</ele>
        <time>2021-07-28T14:20:03.000Z</time>
      </trkpt>
      <trkpt lat="43.58517" lon="2.52854">
        <ele>787.20001220703</ele>
        <time>2021-07-28T14:20:04.000Z</time>
      </trkpt>
      <trkpt lat="43.58518" lon="2.52851">
        <ele>786.79998779297</ele>
        <time>2021-07-28T14:20:05.000Z</time>
      </trkpt>
      <trkpt lat="43.5852" lon="2.52848">
        <ele>786.40002441406</ele>
        <time>2021-07-28T14:20:06.000Z</time>
      </trkpt>
      <trkpt lat="43.58521" lon="2.52843">
        <ele>785.79998779297</ele>
        <time>2021-07-28T14:20:08.000Z</time>
      </trkpt>
      <trkpt lat="43.58522" lon="2.5284">
        <ele>785.40002441406</ele>
        <time>2021-07-28T14:20:09.000Z</time>
      </trkpt>
      <trkpt lat="43.58522" lon="2.52837">
        <ele>785</ele>
        <time>2021-07-28T14:20:10.000Z</time>
      </trkpt>
      <trkpt lat="43.58523" lon="2.52834">
        <ele>784.40002441406</ele>
        <time>2021-07-28T14:20:11.000Z</time>
      </trkpt>
      <trkpt lat="43.58523" lon="2.5283">
        <ele>784</ele>
        <time>2021-07-28T14:20:12.000Z</time>
      </trkpt>
      <trkpt lat="43.58524" lon="2.52825">
        <ele>783.59997558594</ele>
        <time>2021-07-28T14:20:13.000Z</time>
      </trkpt>
      <trkpt lat="43.58524" lon="2.5282">
        <ele>783.20001220703</ele>
        <time>2021-07-28T14:20:14.000Z</time>
      </trkpt>
      <trkpt lat="43.58524" lon="2.52816">
        <ele>782.79998779297</ele>
        <time>2021-07-28T14:20:15.000Z</time>
      </trkpt>
      <trkpt lat="43.58525" lon="2.52812">
        <ele>782.20001220703</ele>
        <time>2021-07-28T14:20:16.000Z</time>
      </trkpt>
      <trkpt lat="43.58524" lon="2.52809">
        <ele>781.79998779297</ele>
        <time>2021-07-28T14:20:17.000Z</time>
      </trkpt>
      <trkpt lat="43.58524" lon="2.52803">
        <ele>781.79998779297</ele>
        <time>2021-07-28T14:20:20.000Z</time>
      </trkpt>
      <trkpt lat="43.58525" lon="2.52794">
        <ele>780.59997558594</ele>
        <time>2021-07-28T14:20:25.000Z</time>
      </trkpt>
      <trkpt lat="43.58526" lon="2.52788">
        <ele>780.20001220703</ele>
        <time>2021-07-28T14:20:26.000Z</time>
      </trkpt>
      <trkpt lat="43.58527" lon="2.52783">
        <ele>779.79998779297</ele>
        <time>2021-07-28T14:20:27.000Z</time>
      </trkpt>
      <trkpt lat="43.58528" lon="2.52777">
        <ele>779.40002441406</ele>
        <time>2021-07-28T14:20:28.000Z</time>
      </trkpt>
      <trkpt lat="43.58529" lon="2.52771">
        <ele>779</ele>
        <time>2021-07-28T14:20:29.000Z</time>
      </trkpt>
      <trkpt lat="43.5853" lon="2.52765">
        <ele>778.59997558594</ele>
        <time>2021-07-28T14:20:30.000Z</time>
      </trkpt>
      <trkpt lat="43.58531" lon="2.52761">
        <ele>778.20001220703</ele>
        <time>2021-07-28T14:20:31.000Z</time>
      </trkpt>
      <trkpt lat="43.58532" lon="2.52758">
        <ele>777.79998779297</ele>
        <time>2021-07-28T14:20:32.000Z</time>
      </trkpt>
      <trkpt lat="43.58533" lon="2.52754">
        <ele>777.20001220703</ele>
        <time>2021-07-28T14:20:33.000Z</time>
      </trkpt>
      <trkpt lat="43.58534" lon="2.52751">
        <ele>776.59997558594</ele>
        <time>2021-07-28T14:20:34.000Z</time>
      </trkpt>
      <trkpt lat="43.58536" lon="2.52747">
        <ele>776</ele>
        <time>2021-07-28T14:20:35.000Z</time>
      </trkpt>
      <trkpt lat="43.58537" lon="2.52744">
        <ele>775.59997558594</ele>
        <time>2021-07-28T14:20:36.000Z</time>
      </trkpt>
      <trkpt lat="43.58539" lon="2.5274">
        <ele>774.59997558594</ele>
        <time>2021-07-28T14:20:37.000Z</time>
      </trkpt>
      <trkpt lat="43.58541" lon="2.52735">
        <ele>774.20001220703</ele>
        <time>2021-07-28T14:20:38.000Z</time>
      </trkpt>
      <trkpt lat="43.58543" lon="2.5273">
        <ele>773.79998779297</ele>
        <time>2021-07-28T14:20:39.000Z</time>
      </trkpt>
      <trkpt lat="43.58545" lon="2.52726">
        <ele>773.20001220703</ele>
        <time>2021-07-28T14:20:40.000Z</time>
      </trkpt>
      <trkpt lat="43.58547" lon="2.52721">
        <ele>772.79998779297</ele>
        <time>2021-07-28T14:20:41.000Z</time>
      </trkpt>
      <trkpt lat="43.58549" lon="2.52717">
        <ele>772.20001220703</ele>
        <time>2021-07-28T14:20:42.000Z</time>
      </trkpt>
      <trkpt lat="43.58551" lon="2.52713">
        <ele>771.79998779297</ele>
        <time>2021-07-28T14:20:43.000Z</time>
      </trkpt>
      <trkpt lat="43.58556" lon="2.52709">
        <ele>771.20001220703</ele>
        <time>2021-07-28T14:20:44.000Z</time>
      </trkpt>
      <trkpt lat="43.5856" lon="2.52706">
        <ele>770.59997558594</ele>
        <time>2021-07-28T14:20:45.000Z</time>
      </trkpt>
      <trkpt lat="43.58563" lon="2.52701">
        <ele>770.20001220703</ele>
        <time>2021-07-28T14:20:46.000Z</time>
      </trkpt>
      <trkpt lat="43.58567" lon="2.52697">
        <ele>769.59997558594</ele>
        <time>2021-07-28T14:20:47.000Z</time>
      </trkpt>
      <trkpt lat="43.5857" lon="2.52693">
        <ele>769</ele>
        <time>2021-07-28T14:20:48.000Z</time>
      </trkpt>
      <trkpt lat="43.58574" lon="2.52691">
        <ele>768.59997558594</ele>
        <time>2021-07-28T14:20:49.000Z</time>
      </trkpt>
      <trkpt lat="43.58577" lon="2.52688">
        <ele>768.20001220703</ele>
        <time>2021-07-28T14:20:50.000Z</time>
      </trkpt>
      <trkpt lat="43.58578" lon="2.52684">
        <ele>767.59997558594</ele>
        <time>2021-07-28T14:20:51.000Z</time>
      </trkpt>
      <trkpt lat="43.58582" lon="2.5268">
        <ele>767.20001220703</ele>
        <time>2021-07-28T14:20:52.000Z</time>
      </trkpt>
      <trkpt lat="43.58585" lon="2.52675">
        <ele>766.79998779297</ele>
        <time>2021-07-28T14:20:53.000Z</time>
      </trkpt>
      <trkpt lat="43.58588" lon="2.52672">
        <ele>766.40002441406</ele>
        <time>2021-07-28T14:20:54.000Z</time>
      </trkpt>
      <trkpt lat="43.58594" lon="2.52665">
        <ele>766.40002441406</ele>
        <time>2021-07-28T14:20:56.000Z</time>
      </trkpt>
      <trkpt lat="43.58596" lon="2.52661">
        <ele>766</ele>
        <time>2021-07-28T14:20:57.000Z</time>
      </trkpt>
      <trkpt lat="43.58598" lon="2.52658">
        <ele>765.59997558594</ele>
        <time>2021-07-28T14:20:58.000Z</time>
      </trkpt>
      <trkpt lat="43.586" lon="2.52656">
        <ele>765.20001220703</ele>
        <time>2021-07-28T14:20:59.000Z</time>
      </trkpt>
      <trkpt lat="43.58602" lon="2.52653">
        <ele>764.79998779297</ele>
        <time>2021-07-28T14:21:00.000Z</time>
      </trkpt>
      <trkpt lat="43.58604" lon="2.52651">
        <ele>764.40002441406</ele>
        <time>2021-07-28T14:21:01.000Z</time>
      </trkpt>
      <trkpt lat="43.58606" lon="2.52649">
        <ele>764.40002441406</ele>
        <time>2021-07-28T14:21:02.000Z</time>
      </trkpt>
      <trkpt lat="43.58621" lon="2.52638">
        <ele>764.40002441406</ele>
        <time>2021-07-28T14:21:08.000Z</time>
      </trkpt>
      <trkpt lat="43.58638" lon="2.5263">
        <ele>764.40002441406</ele>
        <time>2021-07-28T14:21:15.000Z</time>
      </trkpt>
      <trkpt lat="43.5864" lon="2.5263">
        <ele>764.40002441406</ele>
        <time>2021-07-28T14:21:18.000Z</time>
      </trkpt>
      <trkpt lat="43.58645" lon="2.5263">
        <ele>764.40002441406</ele>
        <time>2021-07-28T14:21:52.000Z</time>
      </trkpt>
      <trkpt lat="43.58647" lon="2.52631">
        <ele>763.79998779297</ele>
        <time>2021-07-28T14:21:53.000Z</time>
      </trkpt>
      <trkpt lat="43.58649" lon="2.52632">
        <ele>763.40002441406</ele>
        <time>2021-07-28T14:21:54.000Z</time>
      </trkpt>
      <trkpt lat="43.58651" lon="2.52633">
        <ele>763</ele>
        <time>2021-07-28T14:21:55.000Z</time>
      </trkpt>
      <trkpt lat="43.58654" lon="2.52634">
        <ele>762.59997558594</ele>
        <time>2021-07-28T14:21:56.000Z</time>
      </trkpt>
      <trkpt lat="43.58656" lon="2.52635">
        <ele>762.20001220703</ele>
        <time>2021-07-28T14:21:57.000Z</time>
      </trkpt>
      <trkpt lat="43.58659" lon="2.52635">
        <ele>762.20001220703</ele>
        <time>2021-07-28T14:22:01.000Z</time>
      </trkpt>
      <trkpt lat="43.58659" lon="2.52635">
        <ele>762.20001220703</ele>
        <time>2021-07-28T14:22:02.000Z</time>
      </trkpt>
      <trkpt lat="43.58666" lon="2.52636">
        <ele>762.20001220703</ele>
        <time>2021-07-28T14:23:04.000Z</time>
      </trkpt>
      <trkpt lat="43.58676" lon="2.5264">
        <ele>762.20001220703</ele>
        <time>2021-07-28T14:23:07.000Z</time>
      </trkpt>
      <trkpt lat="43.58688" lon="2.52649">
        <ele>761.79998779297</ele>
        <time>2021-07-28T14:23:11.000Z</time>
      </trkpt>
      <trkpt lat="43.5869" lon="2.52651">
        <ele>761.20001220703</ele>
        <time>2021-07-28T14:23:12.000Z</time>
      </trkpt>
      <trkpt lat="43.58693" lon="2.52654">
        <ele>760.79998779297</ele>
        <time>2021-07-28T14:23:13.000Z</time>
      </trkpt>
      <trkpt lat="43.58696" lon="2.52657">
        <ele>760.20001220703</ele>
        <time>2021-07-28T14:23:14.000Z</time>
      </trkpt>
      <trkpt lat="43.587" lon="2.5266">
        <ele>759.79998779297</ele>
        <time>2021-07-28T14:23:15.000Z</time>
      </trkpt>
      <trkpt lat="43.58712" lon="2.52672">
        <ele>759.40002441406</ele>
        <time>2021-07-28T14:23:18.000Z</time>
      </trkpt>
      <trkpt lat="43.58716" lon="2.52677">
        <ele>759</ele>
        <time>2021-07-28T14:23:19.000Z</time>
      </trkpt>
      <trkpt lat="43.58719" lon="2.52682">
        <ele>758.59997558594</ele>
        <time>2021-07-28T14:23:20.000Z</time>
      </trkpt>
      <trkpt lat="43.58721" lon="2.52686">
        <ele>758.20001220703</ele>
        <time>2021-07-28T14:23:21.000Z</time>
      </trkpt>
      <trkpt lat="43.58723" lon="2.52692">
        <ele>757.79998779297</ele>
        <time>2021-07-28T14:23:22.000Z</time>
      </trkpt>
      <trkpt lat="43.58726" lon="2.52696">
        <ele>757.40002441406</ele>
        <time>2021-07-28T14:23:23.000Z</time>
      </trkpt>
      <trkpt lat="43.58728" lon="2.527">
        <ele>757</ele>
        <time>2021-07-28T14:23:24.000Z</time>
      </trkpt>
      <trkpt lat="43.58731" lon="2.52704">
        <ele>756.40002441406</ele>
        <time>2021-07-28T14:23:25.000Z</time>
      </trkpt>
      <trkpt lat="43.58734" lon="2.52709">
        <ele>756</ele>
        <time>2021-07-28T14:23:26.000Z</time>
      </trkpt>
      <trkpt lat="43.58737" lon="2.52712">
        <ele>755.59997558594</ele>
        <time>2021-07-28T14:23:27.000Z</time>
      </trkpt>
      <trkpt lat="43.58738" lon="2.52715">
        <ele>755.20001220703</ele>
        <time>2021-07-28T14:23:28.000Z</time>
      </trkpt>
      <trkpt lat="43.5874" lon="2.52719">
        <ele>754.79998779297</ele>
        <time>2021-07-28T14:23:29.000Z</time>
      </trkpt>
      <trkpt lat="43.58741" lon="2.52723">
        <ele>754</ele>
        <time>2021-07-28T14:23:30.000Z</time>
      </trkpt>
      <trkpt lat="43.58743" lon="2.52728">
        <ele>753.59997558594</ele>
        <time>2021-07-28T14:23:31.000Z</time>
      </trkpt>
      <trkpt lat="43.58749" lon="2.52741">
        <ele>753</ele>
        <time>2021-07-28T14:23:34.000Z</time>
      </trkpt>
      <trkpt lat="43.5875" lon="2.52742">
        <ele>752.59997558594</ele>
        <time>2021-07-28T14:23:35.000Z</time>
      </trkpt>
      <trkpt lat="43.5875" lon="2.52743">
        <ele>752.20001220703</ele>
        <time>2021-07-28T14:23:36.000Z</time>
      </trkpt>
      <trkpt lat="43.5875" lon="2.52743">
        <ele>751.79998779297</ele>
        <time>2021-07-28T14:23:37.000Z</time>
      </trkpt>
      <trkpt lat="43.58751" lon="2.52744">
        <ele>751.40002441406</ele>
        <time>2021-07-28T14:23:38.000Z</time>
      </trkpt>
      <trkpt lat="43.58759" lon="2.52755">
        <ele>751.40002441406</ele>
        <time>2021-07-28T14:25:14.000Z</time>
      </trkpt>
      <trkpt lat="43.5876" lon="2.52757">
        <ele>751.40002441406</ele>
        <time>2021-07-28T14:25:15.000Z</time>
      </trkpt>
      <trkpt lat="43.58767" lon="2.52774">
        <ele>751.40002441406</ele>
        <time>2021-07-28T14:25:21.000Z</time>
      </trkpt>
      <trkpt lat="43.58772" lon="2.52783">
        <ele>751</ele>
        <time>2021-07-28T14:25:25.000Z</time>
      </trkpt>
      <trkpt lat="43.58773" lon="2.52786">
        <ele>750.59997558594</ele>
        <time>2021-07-28T14:25:26.000Z</time>
      </trkpt>
      <trkpt lat="43.58775" lon="2.52788">
        <ele>750.20001220703</ele>
        <time>2021-07-28T14:25:27.000Z</time>
      </trkpt>
      <trkpt lat="43.58776" lon="2.5279">
        <ele>749.59997558594</ele>
        <time>2021-07-28T14:25:28.000Z</time>
      </trkpt>
      <trkpt lat="43.58776" lon="2.52793">
        <ele>749.20001220703</ele>
        <time>2021-07-28T14:25:29.000Z</time>
      </trkpt>
      <trkpt lat="43.58778" lon="2.52799">
        <ele>748.79998779297</ele>
        <time>2021-07-28T14:25:32.000Z</time>
      </trkpt>
      <trkpt lat="43.58779" lon="2.52801">
        <ele>748.40002441406</ele>
        <time>2021-07-28T14:25:33.000Z</time>
      </trkpt>
      <trkpt lat="43.5878" lon="2.52805">
        <ele>747.59997558594</ele>
        <time>2021-07-28T14:25:34.000Z</time>
      </trkpt>
      <trkpt lat="43.58781" lon="2.52809">
        <ele>747.20001220703</ele>
        <time>2021-07-28T14:25:35.000Z</time>
      </trkpt>
      <trkpt lat="43.58782" lon="2.52812">
        <ele>747.20001220703</ele>
        <time>2021-07-28T14:25:36.000Z</time>
      </trkpt>
      <trkpt lat="43.58783" lon="2.52818">
        <ele>747.20001220703</ele>
        <time>2021-07-28T14:25:38.000Z</time>
      </trkpt>
      <trkpt lat="43.58782" lon="2.52828">
        <ele>746.79998779297</ele>
        <time>2021-07-28T14:25:41.000Z</time>
      </trkpt>
      <trkpt lat="43.58782" lon="2.52831">
        <ele>746.40002441406</ele>
        <time>2021-07-28T14:25:42.000Z</time>
      </trkpt>
      <trkpt lat="43.58783" lon="2.52834">
        <ele>746</ele>
        <time>2021-07-28T14:25:43.000Z</time>
      </trkpt>
      <trkpt lat="43.58783" lon="2.52837">
        <ele>745.40002441406</ele>
        <time>2021-07-28T14:25:44.000Z</time>
      </trkpt>
      <trkpt lat="43.58784" lon="2.52841">
        <ele>745</ele>
        <time>2021-07-28T14:25:45.000Z</time>
      </trkpt>
      <trkpt lat="43.5879" lon="2.5286">
        <ele>745</ele>
        <time>2021-07-28T14:25:49.000Z</time>
      </trkpt>
      <trkpt lat="43.58791" lon="2.52863">
        <ele>744.59997558594</ele>
        <time>2021-07-28T14:25:50.000Z</time>
      </trkpt>
      <trkpt lat="43.58793" lon="2.52865">
        <ele>744.20001220703</ele>
        <time>2021-07-28T14:25:51.000Z</time>
      </trkpt>
      <trkpt lat="43.58794" lon="2.52867">
        <ele>743.79998779297</ele>
        <time>2021-07-28T14:25:52.000Z</time>
      </trkpt>
      <trkpt lat="43.58794" lon="2.52869">
        <ele>743.40002441406</ele>
        <time>2021-07-28T14:25:53.000Z</time>
      </trkpt>
      <trkpt lat="43.58796" lon="2.52871">
        <ele>743</ele>
        <time>2021-07-28T14:25:54.000Z</time>
      </trkpt>
      <trkpt lat="43.58799" lon="2.52874">
        <ele>743</ele>
        <time>2021-07-28T14:25:58.000Z</time>
      </trkpt>
      <trkpt lat="43.58801" lon="2.52876">
        <ele>743</ele>
        <time>2021-07-28T14:26:01.000Z</time>
      </trkpt>
      <trkpt lat="43.58797" lon="2.52866">
        <ele>743</ele>
        <time>2021-07-28T14:27:04.000Z</time>
      </trkpt>
      <trkpt lat="43.58802" lon="2.52864">
        <ele>743</ele>
        <time>2021-07-28T14:27:06.000Z</time>
      </trkpt>
      <trkpt lat="43.58819" lon="2.52858">
        <ele>743</ele>
        <time>2021-07-28T14:27:11.000Z</time>
      </trkpt>
      <trkpt lat="43.58837" lon="2.52849">
        <ele>743</ele>
        <time>2021-07-28T14:27:17.000Z</time>
      </trkpt>
      <trkpt lat="43.58849" lon="2.52834">
        <ele>743</ele>
        <time>2021-07-28T14:27:23.000Z</time>
      </trkpt>
      <trkpt lat="43.58852" lon="2.52831">
        <ele>743.40002441406</ele>
        <time>2021-07-28T14:27:24.000Z</time>
      </trkpt>
      <trkpt lat="43.58855" lon="2.52826">
        <ele>743.79998779297</ele>
        <time>2021-07-28T14:27:25.000Z</time>
      </trkpt>
      <trkpt lat="43.58858" lon="2.52822">
        <ele>744.40002441406</ele>
        <time>2021-07-28T14:27:26.000Z</time>
      </trkpt>
      <trkpt lat="43.5886" lon="2.52819">
        <ele>744.79998779297</ele>
        <time>2021-07-28T14:27:27.000Z</time>
      </trkpt>
      <trkpt lat="43.58864" lon="2.52815">
        <ele>745.20001220703</ele>
        <time>2021-07-28T14:27:28.000Z</time>
      </trkpt>
      <trkpt lat="43.58876" lon="2.52797">
        <ele>745.20001220703</ele>
        <time>2021-07-28T14:27:33.000Z</time>
      </trkpt>
      <trkpt lat="43.58884" lon="2.52788">
        <ele>745.59997558594</ele>
        <time>2021-07-28T14:27:36.000Z</time>
      </trkpt>
      <trkpt lat="43.58886" lon="2.52786">
        <ele>746</ele>
        <time>2021-07-28T14:27:37.000Z</time>
      </trkpt>
      <trkpt lat="43.58888" lon="2.52784">
        <ele>746.79998779297</ele>
        <time>2021-07-28T14:27:38.000Z</time>
      </trkpt>
      <trkpt lat="43.58891" lon="2.52783">
        <ele>747.20001220703</ele>
        <time>2021-07-28T14:27:39.000Z</time>
      </trkpt>
      <trkpt lat="43.58892" lon="2.5278">
        <ele>747.20001220703</ele>
        <time>2021-07-28T14:27:40.000Z</time>
      </trkpt>
      <trkpt lat="43.58904" lon="2.52767">
        <ele>747.20001220703</ele>
        <time>2021-07-28T14:27:46.000Z</time>
      </trkpt>
      <trkpt lat="43.58906" lon="2.52765">
        <ele>747.59997558594</ele>
        <time>2021-07-28T14:27:47.000Z</time>
      </trkpt>
      <trkpt lat="43.58908" lon="2.52762">
        <ele>748</ele>
        <time>2021-07-28T14:27:48.000Z</time>
      </trkpt>
      <trkpt lat="43.5891" lon="2.52759">
        <ele>748.59997558594</ele>
        <time>2021-07-28T14:27:49.000Z</time>
      </trkpt>
      <trkpt lat="43.58912" lon="2.52757">
        <ele>749</ele>
        <time>2021-07-28T14:27:50.000Z</time>
      </trkpt>
      <trkpt lat="43.58914" lon="2.52755">
        <ele>749.40002441406</ele>
        <time>2021-07-28T14:27:51.000Z</time>
      </trkpt>
      <trkpt lat="43.58918" lon="2.52752">
        <ele>749.40002441406</ele>
        <time>2021-07-28T14:27:53.000Z</time>
      </trkpt>
      <trkpt lat="43.58923" lon="2.52747">
        <ele>749.40002441406</ele>
        <time>2021-07-28T14:27:55.000Z</time>
      </trkpt>
      <trkpt lat="43.58932" lon="2.52741">
        <ele>749.40002441406</ele>
        <time>2021-07-28T14:27:58.000Z</time>
      </trkpt>
      <trkpt lat="43.58953" lon="2.52723">
        <ele>749.40002441406</ele>
        <time>2021-07-28T14:28:04.000Z</time>
      </trkpt>
      <trkpt lat="43.58959" lon="2.5272">
        <ele>749.40002441406</ele>
        <time>2021-07-28T14:28:06.000Z</time>
      </trkpt>
      <trkpt lat="43.58973" lon="2.52711">
        <ele>749.40002441406</ele>
        <time>2021-07-28T14:28:10.000Z</time>
      </trkpt>
      <trkpt lat="43.58979" lon="2.52709">
        <ele>749</ele>
        <time>2021-07-28T14:28:12.000Z</time>
      </trkpt>
      <trkpt lat="43.58983" lon="2.52708">
        <ele>748.59997558594</ele>
        <time>2021-07-28T14:28:13.000Z</time>
      </trkpt>
      <trkpt lat="43.58986" lon="2.52706">
        <ele>748.20001220703</ele>
        <time>2021-07-28T14:28:14.000Z</time>
      </trkpt>
      <trkpt lat="43.5899" lon="2.52705">
        <ele>747.79998779297</ele>
        <time>2021-07-28T14:28:15.000Z</time>
      </trkpt>
      <trkpt lat="43.58994" lon="2.52705">
        <ele>747.40002441406</ele>
        <time>2021-07-28T14:28:16.000Z</time>
      </trkpt>
      <trkpt lat="43.5902" lon="2.52701">
        <ele>747.40002441406</ele>
        <time>2021-07-28T14:28:23.000Z</time>
      </trkpt>
      <trkpt lat="43.59045" lon="2.52699">
        <ele>747.40002441406</ele>
        <time>2021-07-28T14:28:29.000Z</time>
      </trkpt>
      <trkpt lat="43.59067" lon="2.52692">
        <ele>747.40002441406</ele>
        <time>2021-07-28T14:28:34.000Z</time>
      </trkpt>
      <trkpt lat="43.59087" lon="2.52692">
        <ele>747.40002441406</ele>
        <time>2021-07-28T14:28:39.000Z</time>
      </trkpt>
      <trkpt lat="43.59102" lon="2.52701">
        <ele>747.40002441406</ele>
        <time>2021-07-28T14:28:45.000Z</time>
      </trkpt>
      <trkpt lat="43.59114" lon="2.52717">
        <ele>748.20001220703</ele>
        <time>2021-07-28T14:28:52.000Z</time>
      </trkpt>
      <trkpt lat="43.59116" lon="2.52719">
        <ele>748.59997558594</ele>
        <time>2021-07-28T14:28:53.000Z</time>
      </trkpt>
      <trkpt lat="43.59118" lon="2.52721">
        <ele>749.20001220703</ele>
        <time>2021-07-28T14:28:54.000Z</time>
      </trkpt>
      <trkpt lat="43.5912" lon="2.52723">
        <ele>749.59997558594</ele>
        <time>2021-07-28T14:28:55.000Z</time>
      </trkpt>
      <trkpt lat="43.59126" lon="2.52731">
        <ele>750</ele>
        <time>2021-07-28T14:28:59.000Z</time>
      </trkpt>
      <trkpt lat="43.59128" lon="2.52733">
        <ele>750.40002441406</ele>
        <time>2021-07-28T14:29:00.000Z</time>
      </trkpt>
      <trkpt lat="43.59129" lon="2.52735">
        <ele>750.79998779297</ele>
        <time>2021-07-28T14:29:01.000Z</time>
      </trkpt>
      <trkpt lat="43.59131" lon="2.52737">
        <ele>751.20001220703</ele>
        <time>2021-07-28T14:29:02.000Z</time>
      </trkpt>
      <trkpt lat="43.59132" lon="2.52741">
        <ele>751.59997558594</ele>
        <time>2021-07-28T14:29:03.000Z</time>
      </trkpt>
      <trkpt lat="43.59134" lon="2.52745">
        <ele>751.59997558594</ele>
        <time>2021-07-28T14:29:05.000Z</time>
      </trkpt>
      <trkpt lat="43.59139" lon="2.52757">
        <ele>752.20001220703</ele>
        <time>2021-07-28T14:29:09.000Z</time>
      </trkpt>
      <trkpt lat="43.59141" lon="2.52762">
        <ele>752.59997558594</ele>
        <time>2021-07-28T14:29:10.000Z</time>
      </trkpt>
      <trkpt lat="43.59141" lon="2.52764">
        <ele>753</ele>
        <time>2021-07-28T14:29:11.000Z</time>
      </trkpt>
      <trkpt lat="43.59142" lon="2.52767">
        <ele>753.40002441406</ele>
        <time>2021-07-28T14:29:12.000Z</time>
      </trkpt>
      <trkpt lat="43.59141" lon="2.5277">
        <ele>753.79998779297</ele>
        <time>2021-07-28T14:29:13.000Z</time>
      </trkpt>
      <trkpt lat="43.5914" lon="2.52785">
        <ele>754.20001220703</ele>
        <time>2021-07-28T14:29:19.000Z</time>
      </trkpt>
      <trkpt lat="43.59141" lon="2.52787">
        <ele>754.79998779297</ele>
        <time>2021-07-28T14:29:20.000Z</time>
      </trkpt>
      <trkpt lat="43.59141" lon="2.52789">
        <ele>755.20001220703</ele>
        <time>2021-07-28T14:29:21.000Z</time>
      </trkpt>
      <trkpt lat="43.59142" lon="2.52791">
        <ele>755.59997558594</ele>
        <time>2021-07-28T14:29:22.000Z</time>
      </trkpt>
      <trkpt lat="43.59142" lon="2.52794">
        <ele>756</ele>
        <time>2021-07-28T14:29:23.000Z</time>
      </trkpt>
      <trkpt lat="43.59143" lon="2.528">
        <ele>756</ele>
        <time>2021-07-28T14:29:25.000Z</time>
      </trkpt>
      <trkpt lat="43.59143" lon="2.52802">
        <ele>756.40002441406</ele>
        <time>2021-07-28T14:29:26.000Z</time>
      </trkpt>
      <trkpt lat="43.59143" lon="2.52804">
        <ele>756.79998779297</ele>
        <time>2021-07-28T14:29:27.000Z</time>
      </trkpt>
      <trkpt lat="43.59143" lon="2.52807">
        <ele>757.20001220703</ele>
        <time>2021-07-28T14:29:28.000Z</time>
      </trkpt>
      <trkpt lat="43.59143" lon="2.5281">
        <ele>757.59997558594</ele>
        <time>2021-07-28T14:29:29.000Z</time>
      </trkpt>
      <trkpt lat="43.59143" lon="2.52814">
        <ele>758.20001220703</ele>
        <time>2021-07-28T14:29:30.000Z</time>
      </trkpt>
      <trkpt lat="43.59143" lon="2.52818">
        <ele>758.20001220703</ele>
        <time>2021-07-28T14:29:31.000Z</time>
      </trkpt>
      <trkpt lat="43.59144" lon="2.5283">
        <ele>758.59997558594</ele>
        <time>2021-07-28T14:29:35.000Z</time>
      </trkpt>
      <trkpt lat="43.59145" lon="2.52834">
        <ele>759</ele>
        <time>2021-07-28T14:29:36.000Z</time>
      </trkpt>
      <trkpt lat="43.59145" lon="2.52837">
        <ele>759.40002441406</ele>
        <time>2021-07-28T14:29:37.000Z</time>
      </trkpt>
      <trkpt lat="43.59147" lon="2.52841">
        <ele>759.79998779297</ele>
        <time>2021-07-28T14:29:38.000Z</time>
      </trkpt>
      <trkpt lat="43.59147" lon="2.52843">
        <ele>760.20001220703</ele>
        <time>2021-07-28T14:29:39.000Z</time>
      </trkpt>
      <trkpt lat="43.5915" lon="2.52858">
        <ele>760.59997558594</ele>
        <time>2021-07-28T14:29:45.000Z</time>
      </trkpt>
      <trkpt lat="43.59151" lon="2.5286">
        <ele>761</ele>
        <time>2021-07-28T14:29:46.000Z</time>
      </trkpt>
      <trkpt lat="43.59152" lon="2.52862">
        <ele>761.40002441406</ele>
        <time>2021-07-28T14:29:47.000Z</time>
      </trkpt>
      <trkpt lat="43.59152" lon="2.52864">
        <ele>761.79998779297</ele>
        <time>2021-07-28T14:29:48.000Z</time>
      </trkpt>
      <trkpt lat="43.59152" lon="2.52866">
        <ele>762.20001220703</ele>
        <time>2021-07-28T14:29:49.000Z</time>
      </trkpt>
      <trkpt lat="43.59153" lon="2.52874">
        <ele>762.20001220703</ele>
        <time>2021-07-28T14:29:52.000Z</time>
      </trkpt>
      <trkpt lat="43.59155" lon="2.52882">
        <ele>762.59997558594</ele>
        <time>2021-07-28T14:29:55.000Z</time>
      </trkpt>
      <trkpt lat="43.59156" lon="2.52885">
        <ele>763</ele>
        <time>2021-07-28T14:29:56.000Z</time>
      </trkpt>
      <trkpt lat="43.59157" lon="2.52887">
        <ele>763.40002441406</ele>
        <time>2021-07-28T14:29:57.000Z</time>
      </trkpt>
      <trkpt lat="43.59157" lon="2.5289">
        <ele>764</ele>
        <time>2021-07-28T14:29:58.000Z</time>
      </trkpt>
      <trkpt lat="43.59157" lon="2.52893">
        <ele>764.40002441406</ele>
        <time>2021-07-28T14:29:59.000Z</time>
      </trkpt>
      <trkpt lat="43.59156" lon="2.52905">
        <ele>764.40002441406</ele>
        <time>2021-07-28T14:30:04.000Z</time>
      </trkpt>
      <trkpt lat="43.59156" lon="2.52907">
        <ele>764.79998779297</ele>
        <time>2021-07-28T14:30:05.000Z</time>
      </trkpt>
      <trkpt lat="43.59155" lon="2.52909">
        <ele>765.20001220703</ele>
        <time>2021-07-28T14:30:06.000Z</time>
      </trkpt>
      <trkpt lat="43.59155" lon="2.52911">
        <ele>766</ele>
        <time>2021-07-28T14:30:07.000Z</time>
      </trkpt>
      <trkpt lat="43.59154" lon="2.52913">
        <ele>766.40002441406</ele>
        <time>2021-07-28T14:30:08.000Z</time>
      </trkpt>
      <trkpt lat="43.59154" lon="2.52916">
        <ele>766.40002441406</ele>
        <time>2021-07-28T14:30:09.000Z</time>
      </trkpt>
      <trkpt lat="43.59155" lon="2.52923">
        <ele>766.40002441406</ele>
        <time>2021-07-28T14:30:12.000Z</time>
      </trkpt>
      <trkpt lat="43.59155" lon="2.52927">
        <ele>766.79998779297</ele>
        <time>2021-07-28T14:30:14.000Z</time>
      </trkpt>
      <trkpt lat="43.59154" lon="2.5293">
        <ele>767.20001220703</ele>
        <time>2021-07-28T14:30:15.000Z</time>
      </trkpt>
      <trkpt lat="43.59154" lon="2.52932">
        <ele>767.59997558594</ele>
        <time>2021-07-28T14:30:16.000Z</time>
      </trkpt>
      <trkpt lat="43.59155" lon="2.52935">
        <ele>768</ele>
        <time>2021-07-28T14:30:17.000Z</time>
      </trkpt>
      <trkpt lat="43.59155" lon="2.52937">
        <ele>768.40002441406</ele>
        <time>2021-07-28T14:30:18.000Z</time>
      </trkpt>
      <trkpt lat="43.59155" lon="2.52939">
        <ele>768.40002441406</ele>
        <time>2021-07-28T14:30:19.000Z</time>
      </trkpt>
      <trkpt lat="43.59155" lon="2.52942">
        <ele>768.40002441406</ele>
        <time>2021-07-28T14:30:20.000Z</time>
      </trkpt>
      <trkpt lat="43.59155" lon="2.52955">
        <ele>768.79998779297</ele>
        <time>2021-07-28T14:30:25.000Z</time>
      </trkpt>
      <trkpt lat="43.59154" lon="2.52958">
        <ele>769.20001220703</ele>
        <time>2021-07-28T14:30:26.000Z</time>
      </trkpt>
      <trkpt lat="43.59155" lon="2.52961">
        <ele>769.59997558594</ele>
        <time>2021-07-28T14:30:27.000Z</time>
      </trkpt>
      <trkpt lat="43.59155" lon="2.52964">
        <ele>770</ele>
        <time>2021-07-28T14:30:28.000Z</time>
      </trkpt>
      <trkpt lat="43.59155" lon="2.52968">
        <ele>770.40002441406</ele>
        <time>2021-07-28T14:30:29.000Z</time>
      </trkpt>
      <trkpt lat="43.59157" lon="2.52983">
        <ele>770.40002441406</ele>
        <time>2021-07-28T14:30:34.000Z</time>
      </trkpt>
      <trkpt lat="43.59159" lon="2.52995">
        <ele>770.40002441406</ele>
        <time>2021-07-28T14:30:38.000Z</time>
      </trkpt>
      <trkpt lat="43.59159" lon="2.52999">
        <ele>770.40002441406</ele>
        <time>2021-07-28T14:30:39.000Z</time>
      </trkpt>
      <trkpt lat="43.59159" lon="2.53008">
        <ele>771</ele>
        <time>2021-07-28T14:30:42.000Z</time>
      </trkpt>
      <trkpt lat="43.59159" lon="2.53011">
        <ele>771.40002441406</ele>
        <time>2021-07-28T14:30:43.000Z</time>
      </trkpt>
      <trkpt lat="43.59159" lon="2.53014">
        <ele>771.79998779297</ele>
        <time>2021-07-28T14:30:44.000Z</time>
      </trkpt>
      <trkpt lat="43.5916" lon="2.53017">
        <ele>772.20001220703</ele>
        <time>2021-07-28T14:30:45.000Z</time>
      </trkpt>
      <trkpt lat="43.59161" lon="2.53021">
        <ele>772.59997558594</ele>
        <time>2021-07-28T14:30:46.000Z</time>
      </trkpt>
      <trkpt lat="43.59162" lon="2.53024">
        <ele>772.59997558594</ele>
        <time>2021-07-28T14:30:47.000Z</time>
      </trkpt>
      <trkpt lat="43.59162" lon="2.53036">
        <ele>772.59997558594</ele>
        <time>2021-07-28T14:30:51.000Z</time>
      </trkpt>
      <trkpt lat="43.59162" lon="2.53038">
        <ele>772.59997558594</ele>
        <time>2021-07-28T14:30:52.000Z</time>
      </trkpt>
      <trkpt lat="43.5916" lon="2.53059">
        <ele>772.59997558594</ele>
        <time>2021-07-28T14:30:58.000Z</time>
      </trkpt>
      <trkpt lat="43.59159" lon="2.53077">
        <ele>773</ele>
        <time>2021-07-28T14:31:03.000Z</time>
      </trkpt>
      <trkpt lat="43.59159" lon="2.53081">
        <ele>773.40002441406</ele>
        <time>2021-07-28T14:31:04.000Z</time>
      </trkpt>
      <trkpt lat="43.59159" lon="2.53085">
        <ele>773.79998779297</ele>
        <time>2021-07-28T14:31:05.000Z</time>
      </trkpt>
      <trkpt lat="43.59158" lon="2.53088">
        <ele>774.20001220703</ele>
        <time>2021-07-28T14:31:06.000Z</time>
      </trkpt>
      <trkpt lat="43.59158" lon="2.53093">
        <ele>774.59997558594</ele>
        <time>2021-07-28T14:31:07.000Z</time>
      </trkpt>
      <trkpt lat="43.59156" lon="2.531">
        <ele>774.59997558594</ele>
        <time>2021-07-28T14:31:09.000Z</time>
      </trkpt>
      <trkpt lat="43.59151" lon="2.5311">
        <ele>774.59997558594</ele>
        <time>2021-07-28T14:31:13.000Z</time>
      </trkpt>
      <trkpt lat="43.59145" lon="2.5313">
        <ele>774.59997558594</ele>
        <time>2021-07-28T14:31:19.000Z</time>
      </trkpt>
      <trkpt lat="43.59144" lon="2.53133">
        <ele>775.20001220703</ele>
        <time>2021-07-28T14:31:20.000Z</time>
      </trkpt>
      <trkpt lat="43.59144" lon="2.53136">
        <ele>775.59997558594</ele>
        <time>2021-07-28T14:31:21.000Z</time>
      </trkpt>
      <trkpt lat="43.59144" lon="2.53139">
        <ele>776.40002441406</ele>
        <time>2021-07-28T14:31:22.000Z</time>
      </trkpt>
      <trkpt lat="43.59143" lon="2.53143">
        <ele>776.79998779297</ele>
        <time>2021-07-28T14:31:23.000Z</time>
      </trkpt>
      <trkpt lat="43.59142" lon="2.53149">
        <ele>776.79998779297</ele>
        <time>2021-07-28T14:31:25.000Z</time>
      </trkpt>
      <trkpt lat="43.59138" lon="2.53171">
        <ele>776.79998779297</ele>
        <time>2021-07-28T14:31:31.000Z</time>
      </trkpt>
      <trkpt lat="43.59133" lon="2.53192">
        <ele>776.79998779297</ele>
        <time>2021-07-28T14:31:37.000Z</time>
      </trkpt>
      <trkpt lat="43.59128" lon="2.53209">
        <ele>776.79998779297</ele>
        <time>2021-07-28T14:31:42.000Z</time>
      </trkpt>
      <trkpt lat="43.59126" lon="2.53223">
        <ele>777.59997558594</ele>
        <time>2021-07-28T14:31:46.000Z</time>
      </trkpt>
      <trkpt lat="43.59125" lon="2.53228">
        <ele>778</ele>
        <time>2021-07-28T14:31:47.000Z</time>
      </trkpt>
      <trkpt lat="43.59126" lon="2.53232">
        <ele>778.40002441406</ele>
        <time>2021-07-28T14:31:48.000Z</time>
      </trkpt>
      <trkpt lat="43.59125" lon="2.53235">
        <ele>778.79998779297</ele>
        <time>2021-07-28T14:31:49.000Z</time>
      </trkpt>
      <trkpt lat="43.59125" lon="2.53238">
        <ele>778.79998779297</ele>
        <time>2021-07-28T14:31:50.000Z</time>
      </trkpt>
      <trkpt lat="43.59126" lon="2.53245">
        <ele>778.79998779297</ele>
        <time>2021-07-28T14:31:52.000Z</time>
      </trkpt>
      <trkpt lat="43.59125" lon="2.53264">
        <ele>778.79998779297</ele>
        <time>2021-07-28T14:31:58.000Z</time>
      </trkpt>
      <trkpt lat="43.59123" lon="2.53281">
        <ele>778.79998779297</ele>
        <time>2021-07-28T14:32:03.000Z</time>
      </trkpt>
      <trkpt lat="43.59123" lon="2.53287">
        <ele>779.20001220703</ele>
        <time>2021-07-28T14:32:05.000Z</time>
      </trkpt>
      <trkpt lat="43.59122" lon="2.5329">
        <ele>779.79998779297</ele>
        <time>2021-07-28T14:32:06.000Z</time>
      </trkpt>
      <trkpt lat="43.59121" lon="2.53292">
        <ele>780.20001220703</ele>
        <time>2021-07-28T14:32:07.000Z</time>
      </trkpt>
      <trkpt lat="43.59121" lon="2.53295">
        <ele>780.59997558594</ele>
        <time>2021-07-28T14:32:08.000Z</time>
      </trkpt>
      <trkpt lat="43.59121" lon="2.53297">
        <ele>781</ele>
        <time>2021-07-28T14:32:09.000Z</time>
      </trkpt>
      <trkpt lat="43.5912" lon="2.53312">
        <ele>781</ele>
        <time>2021-07-28T14:32:13.000Z</time>
      </trkpt>
      <trkpt lat="43.59119" lon="2.53316">
        <ele>781</ele>
        <time>2021-07-28T14:32:14.000Z</time>
      </trkpt>
      <trkpt lat="43.59116" lon="2.53339">
        <ele>781</ele>
        <time>2021-07-28T14:32:20.000Z</time>
      </trkpt>
      <trkpt lat="43.59119" lon="2.53359">
        <ele>781</ele>
        <time>2021-07-28T14:32:25.000Z</time>
      </trkpt>
      <trkpt lat="43.59123" lon="2.53369">
        <ele>781</ele>
        <time>2021-07-28T14:32:29.000Z</time>
      </trkpt>
      <trkpt lat="43.59124" lon="2.5337">
        <ele>781</ele>
        <time>2021-07-28T14:32:30.000Z</time>
      </trkpt>
      <trkpt lat="43.59133" lon="2.53374">
        <ele>781</ele>
        <time>2021-07-28T14:32:35.000Z</time>
      </trkpt>
      <trkpt lat="43.59134" lon="2.53374">
        <ele>781</ele>
        <time>2021-07-28T14:32:36.000Z</time>
      </trkpt>
      <trkpt lat="43.59137" lon="2.53376">
        <ele>781.40002441406</ele>
        <time>2021-07-28T14:32:39.000Z</time>
      </trkpt>
      <trkpt lat="43.59138" lon="2.53376">
        <ele>781.79998779297</ele>
        <time>2021-07-28T14:32:40.000Z</time>
      </trkpt>
      <trkpt lat="43.5914" lon="2.53377">
        <ele>782.20001220703</ele>
        <time>2021-07-28T14:32:41.000Z</time>
      </trkpt>
      <trkpt lat="43.59142" lon="2.53377">
        <ele>782.59997558594</ele>
        <time>2021-07-28T14:32:42.000Z</time>
      </trkpt>
      <trkpt lat="43.59143" lon="2.53377">
        <ele>783</ele>
        <time>2021-07-28T14:32:43.000Z</time>
      </trkpt>
      <trkpt lat="43.59154" lon="2.53385">
        <ele>783</ele>
        <time>2021-07-28T14:32:49.000Z</time>
      </trkpt>
      <trkpt lat="43.59162" lon="2.5339">
        <ele>783</ele>
        <time>2021-07-28T14:32:54.000Z</time>
      </trkpt>
      <trkpt lat="43.59164" lon="2.53393">
        <ele>783</ele>
        <time>2021-07-28T14:33:02.000Z</time>
      </trkpt>
      <trkpt lat="43.59164" lon="2.53397">
        <ele>783</ele>
        <time>2021-07-28T14:33:04.000Z</time>
      </trkpt>
      <trkpt lat="43.59164" lon="2.53398">
        <ele>783</ele>
        <time>2021-07-28T14:33:05.000Z</time>
      </trkpt>
      <trkpt lat="43.59168" lon="2.53406">
        <ele>785</ele>
        <time>2021-07-28T14:36:01.000Z</time>
      </trkpt>
      <trkpt lat="43.59165" lon="2.5341">
        <ele>785</ele>
        <time>2021-07-28T14:36:03.000Z</time>
      </trkpt>
      <trkpt lat="43.59163" lon="2.53417">
        <ele>785</ele>
        <time>2021-07-28T14:36:06.000Z</time>
      </trkpt>
      <trkpt lat="43.59162" lon="2.53422">
        <ele>785</ele>
        <time>2021-07-28T14:36:08.000Z</time>
      </trkpt>
      <trkpt lat="43.5916" lon="2.53432">
        <ele>785.40002441406</ele>
        <time>2021-07-28T14:36:12.000Z</time>
      </trkpt>
      <trkpt lat="43.5916" lon="2.53435">
        <ele>785.79998779297</ele>
        <time>2021-07-28T14:36:13.000Z</time>
      </trkpt>
      <trkpt lat="43.5916" lon="2.53439">
        <ele>786.20001220703</ele>
        <time>2021-07-28T14:36:14.000Z</time>
      </trkpt>
      <trkpt lat="43.59161" lon="2.53442">
        <ele>786.59997558594</ele>
        <time>2021-07-28T14:36:15.000Z</time>
      </trkpt>
      <trkpt lat="43.59161" lon="2.53446">
        <ele>787.20001220703</ele>
        <time>2021-07-28T14:36:16.000Z</time>
      </trkpt>
      <trkpt lat="43.59158" lon="2.5346">
        <ele>787.20001220703</ele>
        <time>2021-07-28T14:36:20.000Z</time>
      </trkpt>
      <trkpt lat="43.59156" lon="2.53464">
        <ele>787.59997558594</ele>
        <time>2021-07-28T14:36:21.000Z</time>
      </trkpt>
      <trkpt lat="43.59155" lon="2.53467">
        <ele>788</ele>
        <time>2021-07-28T14:36:22.000Z</time>
      </trkpt>
      <trkpt lat="43.59154" lon="2.5347">
        <ele>788.40002441406</ele>
        <time>2021-07-28T14:36:23.000Z</time>
      </trkpt>
      <trkpt lat="43.59153" lon="2.53473">
        <ele>788.79998779297</ele>
        <time>2021-07-28T14:36:24.000Z</time>
      </trkpt>
      <trkpt lat="43.59151" lon="2.53476">
        <ele>789.20001220703</ele>
        <time>2021-07-28T14:36:25.000Z</time>
      </trkpt>
      <trkpt lat="43.59148" lon="2.53484">
        <ele>789.20001220703</ele>
        <time>2021-07-28T14:36:28.000Z</time>
      </trkpt>
      <trkpt lat="43.59146" lon="2.53496">
        <ele>789.20001220703</ele>
        <time>2021-07-28T14:36:32.000Z</time>
      </trkpt>
      <trkpt lat="43.59143" lon="2.53504">
        <ele>789.20001220703</ele>
        <time>2021-07-28T14:36:35.000Z</time>
      </trkpt>
      <trkpt lat="43.59142" lon="2.53506">
        <ele>789.59997558594</ele>
        <time>2021-07-28T14:36:36.000Z</time>
      </trkpt>
      <trkpt lat="43.5914" lon="2.53508">
        <ele>790</ele>
        <time>2021-07-28T14:36:37.000Z</time>
      </trkpt>
      <trkpt lat="43.59138" lon="2.5351">
        <ele>790.40002441406</ele>
        <time>2021-07-28T14:36:38.000Z</time>
      </trkpt>
      <trkpt lat="43.59135" lon="2.53511">
        <ele>790.79998779297</ele>
        <time>2021-07-28T14:36:39.000Z</time>
      </trkpt>
      <trkpt lat="43.59132" lon="2.53514">
        <ele>791.20001220703</ele>
        <time>2021-07-28T14:36:40.000Z</time>
      </trkpt>
      <trkpt lat="43.59129" lon="2.53515">
        <ele>791.20001220703</ele>
        <time>2021-07-28T14:36:41.000Z</time>
      </trkpt>
      <trkpt lat="43.59113" lon="2.5353">
        <ele>791.20001220703</ele>
        <time>2021-07-28T14:36:47.000Z</time>
      </trkpt>
      <trkpt lat="43.59098" lon="2.53546">
        <ele>791.20001220703</ele>
        <time>2021-07-28T14:36:52.000Z</time>
      </trkpt>
      <trkpt lat="43.59084" lon="2.53566">
        <ele>791.20001220703</ele>
        <time>2021-07-28T14:36:58.000Z</time>
      </trkpt>
      <trkpt lat="43.59071" lon="2.53591">
        <ele>791.20001220703</ele>
        <time>2021-07-28T14:37:05.000Z</time>
      </trkpt>
      <trkpt lat="43.5907" lon="2.53593">
        <ele>791.20001220703</ele>
        <time>2021-07-28T14:37:06.000Z</time>
      </trkpt>
      <trkpt lat="43.59072" lon="2.53595">
        <ele>791.20001220703</ele>
        <time>2021-07-28T14:37:09.000Z</time>
      </trkpt>
      <trkpt lat="43.59072" lon="2.53592">
        <ele>791.20001220703</ele>
        <time>2021-07-28T14:37:11.000Z</time>
      </trkpt>
      <trkpt lat="43.59076" lon="2.53583">
        <ele>791.20001220703</ele>
        <time>2021-07-28T14:37:16.000Z</time>
      </trkpt>
      <trkpt lat="43.59076" lon="2.53581">
        <ele>791.20001220703</ele>
        <time>2021-07-28T14:37:18.000Z</time>
      </trkpt>
      <trkpt lat="43.59072" lon="2.53583">
        <ele>787.20001220703</ele>
        <time>2021-07-28T15:10:59.000Z</time>
      </trkpt>
      <trkpt lat="43.59072" lon="2.53586">
        <ele>787.20001220703</ele>
        <time>2021-07-28T15:11:00.000Z</time>
      </trkpt>
      <trkpt lat="43.59067" lon="2.53604">
        <ele>787.20001220703</ele>
        <time>2021-07-28T15:11:06.000Z</time>
      </trkpt>
      <trkpt lat="43.59065" lon="2.53622">
        <ele>787.20001220703</ele>
        <time>2021-07-28T15:11:12.000Z</time>
      </trkpt>
      <trkpt lat="43.59065" lon="2.53631">
        <ele>787.20001220703</ele>
        <time>2021-07-28T15:11:16.000Z</time>
      </trkpt>
      <trkpt lat="43.59065" lon="2.53635">
        <ele>787.20001220703</ele>
        <time>2021-07-28T15:12:01.000Z</time>
      </trkpt>
      <trkpt lat="43.59064" lon="2.53643">
        <ele>787.20001220703</ele>
        <time>2021-07-28T15:12:04.000Z</time>
      </trkpt>
      <trkpt lat="43.59061" lon="2.5366">
        <ele>787.20001220703</ele>
        <time>2021-07-28T15:12:09.000Z</time>
      </trkpt>
      <trkpt lat="43.59052" lon="2.53682">
        <ele>787.20001220703</ele>
        <time>2021-07-28T15:12:15.000Z</time>
      </trkpt>
      <trkpt lat="43.59047" lon="2.53709">
        <ele>787.20001220703</ele>
        <time>2021-07-28T15:12:21.000Z</time>
      </trkpt>
      <trkpt lat="43.5904" lon="2.53729">
        <ele>787.20001220703</ele>
        <time>2021-07-28T15:12:26.000Z</time>
      </trkpt>
      <trkpt lat="43.5903" lon="2.53757">
        <ele>787.20001220703</ele>
        <time>2021-07-28T15:12:33.000Z</time>
      </trkpt>
      <trkpt lat="43.5902" lon="2.53773">
        <ele>787.20001220703</ele>
        <time>2021-07-28T15:12:39.000Z</time>
      </trkpt>
      <trkpt lat="43.59017" lon="2.53774">
        <ele>787.20001220703</ele>
        <time>2021-07-28T15:12:40.000Z</time>
      </trkpt>
      <trkpt lat="43.59004" lon="2.53776">
        <ele>787.20001220703</ele>
        <time>2021-07-28T15:12:43.000Z</time>
      </trkpt>
      <trkpt lat="43.58991" lon="2.53777">
        <ele>786.79998779297</ele>
        <time>2021-07-28T15:12:46.000Z</time>
      </trkpt>
      <trkpt lat="43.58987" lon="2.53776">
        <ele>786.20001220703</ele>
        <time>2021-07-28T15:12:47.000Z</time>
      </trkpt>
      <trkpt lat="43.58984" lon="2.53775">
        <ele>785.79998779297</ele>
        <time>2021-07-28T15:12:48.000Z</time>
      </trkpt>
      <trkpt lat="43.58979" lon="2.53773">
        <ele>785.40002441406</ele>
        <time>2021-07-28T15:12:49.000Z</time>
      </trkpt>
      <trkpt lat="43.58974" lon="2.53771">
        <ele>784.79998779297</ele>
        <time>2021-07-28T15:12:50.000Z</time>
      </trkpt>
      <trkpt lat="43.5897" lon="2.53769">
        <ele>784.20001220703</ele>
        <time>2021-07-28T15:12:51.000Z</time>
      </trkpt>
      <trkpt lat="43.58966" lon="2.53767">
        <ele>783.20001220703</ele>
        <time>2021-07-28T15:12:52.000Z</time>
      </trkpt>
      <trkpt lat="43.58963" lon="2.53765">
        <ele>782.59997558594</ele>
        <time>2021-07-28T15:12:53.000Z</time>
      </trkpt>
      <trkpt lat="43.5896" lon="2.53762">
        <ele>782</ele>
        <time>2021-07-28T15:12:54.000Z</time>
      </trkpt>
      <trkpt lat="43.58957" lon="2.5376">
        <ele>781.40002441406</ele>
        <time>2021-07-28T15:12:55.000Z</time>
      </trkpt>
      <trkpt lat="43.58953" lon="2.53758">
        <ele>781</ele>
        <time>2021-07-28T15:12:56.000Z</time>
      </trkpt>
      <trkpt lat="43.58949" lon="2.53757">
        <ele>780.40002441406</ele>
        <time>2021-07-28T15:12:57.000Z</time>
      </trkpt>
      <trkpt lat="43.58943" lon="2.53757">
        <ele>779.79998779297</ele>
        <time>2021-07-28T15:12:58.000Z</time>
      </trkpt>
      <trkpt lat="43.58939" lon="2.53758">
        <ele>779.40002441406</ele>
        <time>2021-07-28T15:12:59.000Z</time>
      </trkpt>
      <trkpt lat="43.58935" lon="2.5376">
        <ele>779</ele>
        <time>2021-07-28T15:13:00.000Z</time>
      </trkpt>
      <trkpt lat="43.58931" lon="2.53763">
        <ele>778.40002441406</ele>
        <time>2021-07-28T15:13:01.000Z</time>
      </trkpt>
      <trkpt lat="43.58927" lon="2.53768">
        <ele>778</ele>
        <time>2021-07-28T15:13:02.000Z</time>
      </trkpt>
      <trkpt lat="43.58922" lon="2.53772">
        <ele>777.59997558594</ele>
        <time>2021-07-28T15:13:03.000Z</time>
      </trkpt>
      <trkpt lat="43.58918" lon="2.53776">
        <ele>777</ele>
        <time>2021-07-28T15:13:04.000Z</time>
      </trkpt>
      <trkpt lat="43.58913" lon="2.53778">
        <ele>776.59997558594</ele>
        <time>2021-07-28T15:13:05.000Z</time>
      </trkpt>
      <trkpt lat="43.58907" lon="2.5378">
        <ele>776.20001220703</ele>
        <time>2021-07-28T15:13:06.000Z</time>
      </trkpt>
      <trkpt lat="43.58902" lon="2.5378">
        <ele>775.59997558594</ele>
        <time>2021-07-28T15:13:07.000Z</time>
      </trkpt>
      <trkpt lat="43.58897" lon="2.53781">
        <ele>775.59997558594</ele>
        <time>2021-07-28T15:13:08.000Z</time>
      </trkpt>
      <trkpt lat="43.58893" lon="2.53783">
        <ele>775.59997558594</ele>
        <time>2021-07-28T15:13:09.000Z</time>
      </trkpt>
      <trkpt lat="43.58883" lon="2.53789">
        <ele>775.59997558594</ele>
        <time>2021-07-28T15:13:12.000Z</time>
      </trkpt>
      <trkpt lat="43.58869" lon="2.53801">
        <ele>775.59997558594</ele>
        <time>2021-07-28T15:13:17.000Z</time>
      </trkpt>
      <trkpt lat="43.58852" lon="2.53806">
        <ele>775.59997558594</ele>
        <time>2021-07-28T15:13:23.000Z</time>
      </trkpt>
      <trkpt lat="43.58832" lon="2.53809">
        <ele>775.59997558594</ele>
        <time>2021-07-28T15:13:32.000Z</time>
      </trkpt>
      <trkpt lat="43.58825" lon="2.53811">
        <ele>776</ele>
        <time>2021-07-28T15:13:35.000Z</time>
      </trkpt>
      <trkpt lat="43.58822" lon="2.53811">
        <ele>776.59997558594</ele>
        <time>2021-07-28T15:13:36.000Z</time>
      </trkpt>
      <trkpt lat="43.5882" lon="2.53812">
        <ele>777</ele>
        <time>2021-07-28T15:13:37.000Z</time>
      </trkpt>
      <trkpt lat="43.58818" lon="2.53813">
        <ele>777.40002441406</ele>
        <time>2021-07-28T15:13:38.000Z</time>
      </trkpt>
      <trkpt lat="43.58816" lon="2.53813">
        <ele>777.79998779297</ele>
        <time>2021-07-28T15:13:39.000Z</time>
      </trkpt>
      <trkpt lat="43.58805" lon="2.53813">
        <ele>777.79998779297</ele>
        <time>2021-07-28T15:13:45.000Z</time>
      </trkpt>
      <trkpt lat="43.58793" lon="2.53807">
        <ele>778.20001220703</ele>
        <time>2021-07-28T15:13:51.000Z</time>
      </trkpt>
      <trkpt lat="43.58791" lon="2.53805">
        <ele>778.59997558594</ele>
        <time>2021-07-28T15:13:52.000Z</time>
      </trkpt>
      <trkpt lat="43.58789" lon="2.53803">
        <ele>779</ele>
        <time>2021-07-28T15:13:53.000Z</time>
      </trkpt>
      <trkpt lat="43.58788" lon="2.53801">
        <ele>779.40002441406</ele>
        <time>2021-07-28T15:13:54.000Z</time>
      </trkpt>
      <trkpt lat="43.58787" lon="2.53799">
        <ele>779.79998779297</ele>
        <time>2021-07-28T15:13:55.000Z</time>
      </trkpt>
      <trkpt lat="43.58781" lon="2.53787">
        <ele>779.79998779297</ele>
        <time>2021-07-28T15:14:00.000Z</time>
      </trkpt>
      <trkpt lat="43.58777" lon="2.53767">
        <ele>780.20001220703</ele>
        <time>2021-07-28T15:14:05.000Z</time>
      </trkpt>
      <trkpt lat="43.58777" lon="2.53765">
        <ele>780.59997558594</ele>
        <time>2021-07-28T15:14:06.000Z</time>
      </trkpt>
      <trkpt lat="43.58777" lon="2.5376">
        <ele>781</ele>
        <time>2021-07-28T15:14:07.000Z</time>
      </trkpt>
      <trkpt lat="43.58776" lon="2.53756">
        <ele>781.79998779297</ele>
        <time>2021-07-28T15:14:08.000Z</time>
      </trkpt>
      <trkpt lat="43.58775" lon="2.53743">
        <ele>781.79998779297</ele>
        <time>2021-07-28T15:14:12.000Z</time>
      </trkpt>
      <trkpt lat="43.58774" lon="2.53734">
        <ele>782.40002441406</ele>
        <time>2021-07-28T15:14:15.000Z</time>
      </trkpt>
      <trkpt lat="43.58773" lon="2.5373">
        <ele>782.79998779297</ele>
        <time>2021-07-28T15:14:16.000Z</time>
      </trkpt>
      <trkpt lat="43.58772" lon="2.53726">
        <ele>783.20001220703</ele>
        <time>2021-07-28T15:14:17.000Z</time>
      </trkpt>
      <trkpt lat="43.5877" lon="2.53722">
        <ele>783.59997558594</ele>
        <time>2021-07-28T15:14:18.000Z</time>
      </trkpt>
      <trkpt lat="43.58768" lon="2.53718">
        <ele>784</ele>
        <time>2021-07-28T15:14:19.000Z</time>
      </trkpt>
      <trkpt lat="43.58764" lon="2.53701">
        <ele>784</ele>
        <time>2021-07-28T15:14:24.000Z</time>
      </trkpt>
      <trkpt lat="43.58758" lon="2.5369">
        <ele>783.59997558594</ele>
        <time>2021-07-28T15:14:27.000Z</time>
      </trkpt>
      <trkpt lat="43.58756" lon="2.53685">
        <ele>783.20001220703</ele>
        <time>2021-07-28T15:14:28.000Z</time>
      </trkpt>
      <trkpt lat="43.58754" lon="2.53681">
        <ele>782.79998779297</ele>
        <time>2021-07-28T15:14:29.000Z</time>
      </trkpt>
      <trkpt lat="43.58752" lon="2.53675">
        <ele>782.40002441406</ele>
        <time>2021-07-28T15:14:30.000Z</time>
      </trkpt>
      <trkpt lat="43.5875" lon="2.53671">
        <ele>782</ele>
        <time>2021-07-28T15:14:31.000Z</time>
      </trkpt>
      <trkpt lat="43.58749" lon="2.53667">
        <ele>781.40002441406</ele>
        <time>2021-07-28T15:14:32.000Z</time>
      </trkpt>
      <trkpt lat="43.58747" lon="2.53663">
        <ele>780.79998779297</ele>
        <time>2021-07-28T15:14:33.000Z</time>
      </trkpt>
      <trkpt lat="43.58745" lon="2.53659">
        <ele>780.20001220703</ele>
        <time>2021-07-28T15:14:34.000Z</time>
      </trkpt>
      <trkpt lat="43.58741" lon="2.53654">
        <ele>779.59997558594</ele>
        <time>2021-07-28T15:14:35.000Z</time>
      </trkpt>
      <trkpt lat="43.58736" lon="2.53651">
        <ele>779</ele>
        <time>2021-07-28T15:14:36.000Z</time>
      </trkpt>
      <trkpt lat="43.58729" lon="2.53646">
        <ele>778.20001220703</ele>
        <time>2021-07-28T15:14:37.000Z</time>
      </trkpt>
      <trkpt lat="43.58724" lon="2.53643">
        <ele>777.59997558594</ele>
        <time>2021-07-28T15:14:38.000Z</time>
      </trkpt>
      <trkpt lat="43.58718" lon="2.5364">
        <ele>777</ele>
        <time>2021-07-28T15:14:39.000Z</time>
      </trkpt>
      <trkpt lat="43.58701" lon="2.53631">
        <ele>777</ele>
        <time>2021-07-28T15:14:44.000Z</time>
      </trkpt>
      <trkpt lat="43.58689" lon="2.5362">
        <ele>777</ele>
        <time>2021-07-28T15:14:49.000Z</time>
      </trkpt>
      <trkpt lat="43.58684" lon="2.53619">
        <ele>777</ele>
        <time>2021-07-28T15:14:53.000Z</time>
      </trkpt>
      <trkpt lat="43.58684" lon="2.53619">
        <ele>777</ele>
        <time>2021-07-28T15:14:54.000Z</time>
      </trkpt>
      <trkpt lat="43.58681" lon="2.53618">
        <ele>777</ele>
        <time>2021-07-28T15:15:21.000Z</time>
      </trkpt>
      <trkpt lat="43.58676" lon="2.53618">
        <ele>777</ele>
        <time>2021-07-28T15:15:23.000Z</time>
      </trkpt>
      <trkpt lat="43.58663" lon="2.53628">
        <ele>777</ele>
        <time>2021-07-28T15:15:29.000Z</time>
      </trkpt>
      <trkpt lat="43.58654" lon="2.53647">
        <ele>777</ele>
        <time>2021-07-28T15:15:35.000Z</time>
      </trkpt>
      <trkpt lat="43.58646" lon="2.53673">
        <ele>777</ele>
        <time>2021-07-28T15:15:42.000Z</time>
      </trkpt>
      <trkpt lat="43.58646" lon="2.53676">
        <ele>777.40002441406</ele>
        <time>2021-07-28T15:15:43.000Z</time>
      </trkpt>
      <trkpt lat="43.58645" lon="2.5368">
        <ele>777.79998779297</ele>
        <time>2021-07-28T15:15:44.000Z</time>
      </trkpt>
      <trkpt lat="43.58644" lon="2.53683">
        <ele>778.20001220703</ele>
        <time>2021-07-28T15:15:45.000Z</time>
      </trkpt>
      <trkpt lat="43.58643" lon="2.53685">
        <ele>779</ele>
        <time>2021-07-28T15:15:46.000Z</time>
      </trkpt>
      <trkpt lat="43.58641" lon="2.53688">
        <ele>779</ele>
        <time>2021-07-28T15:15:48.000Z</time>
      </trkpt>
      <trkpt lat="43.58641" lon="2.5369">
        <ele>779</ele>
        <time>2021-07-28T15:15:49.000Z</time>
      </trkpt>
      <trkpt lat="43.58641" lon="2.53693">
        <ele>779</ele>
        <time>2021-07-28T15:15:53.000Z</time>
      </trkpt>
      <trkpt lat="43.58647" lon="2.53698">
        <ele>779</ele>
        <time>2021-07-28T15:17:07.000Z</time>
      </trkpt>
      <trkpt lat="43.5865" lon="2.537">
        <ele>779</ele>
        <time>2021-07-28T15:17:10.000Z</time>
      </trkpt>
      <trkpt lat="43.58652" lon="2.53701">
        <ele>779</ele>
        <time>2021-07-28T15:17:12.000Z</time>
      </trkpt>
      <trkpt lat="43.58654" lon="2.53701">
        <ele>779</ele>
        <time>2021-07-28T15:17:25.000Z</time>
      </trkpt>
      <trkpt lat="43.58664" lon="2.53706">
        <ele>779</ele>
        <time>2021-07-28T15:17:29.000Z</time>
      </trkpt>
      <trkpt lat="43.58684" lon="2.53719">
        <ele>779</ele>
        <time>2021-07-28T15:17:36.000Z</time>
      </trkpt>
      <trkpt lat="43.58688" lon="2.53726">
        <ele>779</ele>
        <time>2021-07-28T15:17:38.000Z</time>
      </trkpt>
      <trkpt lat="43.58691" lon="2.53736">
        <ele>779</ele>
        <time>2021-07-28T15:17:40.000Z</time>
      </trkpt>
      <trkpt lat="43.58692" lon="2.53768">
        <ele>779</ele>
        <time>2021-07-28T15:17:46.000Z</time>
      </trkpt>
      <trkpt lat="43.5869" lon="2.53779">
        <ele>779</ele>
        <time>2021-07-28T15:17:48.000Z</time>
      </trkpt>
      <trkpt lat="43.58684" lon="2.53794">
        <ele>779</ele>
        <time>2021-07-28T15:17:51.000Z</time>
      </trkpt>
      <trkpt lat="43.58677" lon="2.53805">
        <ele>779</ele>
        <time>2021-07-28T15:17:54.000Z</time>
      </trkpt>
      <trkpt lat="43.58672" lon="2.53814">
        <ele>779</ele>
        <time>2021-07-28T15:17:57.000Z</time>
      </trkpt>
      <trkpt lat="43.5866" lon="2.5384">
        <ele>779</ele>
        <time>2021-07-28T15:18:04.000Z</time>
      </trkpt>
      <trkpt lat="43.58648" lon="2.53859">
        <ele>779</ele>
        <time>2021-07-28T15:18:10.000Z</time>
      </trkpt>
      <trkpt lat="43.58628" lon="2.53876">
        <ele>778.59997558594</ele>
        <time>2021-07-28T15:18:15.000Z</time>
      </trkpt>
      <trkpt lat="43.58625" lon="2.53881">
        <ele>778.20001220703</ele>
        <time>2021-07-28T15:18:16.000Z</time>
      </trkpt>
      <trkpt lat="43.58621" lon="2.53886">
        <ele>777.79998779297</ele>
        <time>2021-07-28T15:18:17.000Z</time>
      </trkpt>
      <trkpt lat="43.58617" lon="2.5389">
        <ele>777.40002441406</ele>
        <time>2021-07-28T15:18:18.000Z</time>
      </trkpt>
      <trkpt lat="43.58614" lon="2.53895">
        <ele>777</ele>
        <time>2021-07-28T15:18:19.000Z</time>
      </trkpt>
      <trkpt lat="43.58611" lon="2.539">
        <ele>777</ele>
        <time>2021-07-28T15:18:20.000Z</time>
      </trkpt>
      <trkpt lat="43.58606" lon="2.53912">
        <ele>777</ele>
        <time>2021-07-28T15:18:22.000Z</time>
      </trkpt>
      <trkpt lat="43.586" lon="2.53926">
        <ele>776.59997558594</ele>
        <time>2021-07-28T15:18:24.000Z</time>
      </trkpt>
      <trkpt lat="43.58598" lon="2.53934">
        <ele>776</ele>
        <time>2021-07-28T15:18:25.000Z</time>
      </trkpt>
      <trkpt lat="43.58597" lon="2.53942">
        <ele>775.59997558594</ele>
        <time>2021-07-28T15:18:26.000Z</time>
      </trkpt>
      <trkpt lat="43.58596" lon="2.53949">
        <ele>775.20001220703</ele>
        <time>2021-07-28T15:18:27.000Z</time>
      </trkpt>
      <trkpt lat="43.58596" lon="2.53955">
        <ele>774.79998779297</ele>
        <time>2021-07-28T15:18:28.000Z</time>
      </trkpt>
      <trkpt lat="43.58593" lon="2.53968">
        <ele>774.79998779297</ele>
        <time>2021-07-28T15:18:30.000Z</time>
      </trkpt>
      <trkpt lat="43.58592" lon="2.53974">
        <ele>774.40002441406</ele>
        <time>2021-07-28T15:18:31.000Z</time>
      </trkpt>
      <trkpt lat="43.5859" lon="2.5398">
        <ele>774</ele>
        <time>2021-07-28T15:18:32.000Z</time>
      </trkpt>
      <trkpt lat="43.58589" lon="2.53987">
        <ele>773.40002441406</ele>
        <time>2021-07-28T15:18:33.000Z</time>
      </trkpt>
      <trkpt lat="43.58588" lon="2.53993">
        <ele>773</ele>
        <time>2021-07-28T15:18:34.000Z</time>
      </trkpt>
      <trkpt lat="43.58587" lon="2.54">
        <ele>772.59997558594</ele>
        <time>2021-07-28T15:18:35.000Z</time>
      </trkpt>
      <trkpt lat="43.58586" lon="2.5401">
        <ele>772</ele>
        <time>2021-07-28T15:18:36.000Z</time>
      </trkpt>
      <trkpt lat="43.58585" lon="2.5402">
        <ele>771.40002441406</ele>
        <time>2021-07-28T15:18:37.000Z</time>
      </trkpt>
      <trkpt lat="43.58585" lon="2.54031">
        <ele>770.79998779297</ele>
        <time>2021-07-28T15:18:38.000Z</time>
      </trkpt>
      <trkpt lat="43.58586" lon="2.54043">
        <ele>769.59997558594</ele>
        <time>2021-07-28T15:18:39.000Z</time>
      </trkpt>
      <trkpt lat="43.58586" lon="2.54054">
        <ele>769</ele>
        <time>2021-07-28T15:18:40.000Z</time>
      </trkpt>
      <trkpt lat="43.58587" lon="2.54065">
        <ele>768.40002441406</ele>
        <time>2021-07-28T15:18:41.000Z</time>
      </trkpt>
      <trkpt lat="43.58591" lon="2.54108">
        <ele>768.40002441406</ele>
        <time>2021-07-28T15:18:46.000Z</time>
      </trkpt>
      <trkpt lat="43.5859" lon="2.54133">
        <ele>768.40002441406</ele>
        <time>2021-07-28T15:18:51.000Z</time>
      </trkpt>
      <trkpt lat="43.58587" lon="2.54147">
        <ele>768.79998779297</ele>
        <time>2021-07-28T15:18:55.000Z</time>
      </trkpt>
      <trkpt lat="43.58587" lon="2.5415">
        <ele>769.20001220703</ele>
        <time>2021-07-28T15:18:56.000Z</time>
      </trkpt>
      <trkpt lat="43.58586" lon="2.54153">
        <ele>769.59997558594</ele>
        <time>2021-07-28T15:18:57.000Z</time>
      </trkpt>
      <trkpt lat="43.58586" lon="2.54157">
        <ele>770</ele>
        <time>2021-07-28T15:18:58.000Z</time>
      </trkpt>
      <trkpt lat="43.58587" lon="2.54161">
        <ele>770.59997558594</ele>
        <time>2021-07-28T15:18:59.000Z</time>
      </trkpt>
      <trkpt lat="43.58585" lon="2.54176">
        <ele>771.40002441406</ele>
        <time>2021-07-28T15:19:03.000Z</time>
      </trkpt>
      <trkpt lat="43.58585" lon="2.5418">
        <ele>771.79998779297</ele>
        <time>2021-07-28T15:19:04.000Z</time>
      </trkpt>
      <trkpt lat="43.58584" lon="2.54185">
        <ele>772.20001220703</ele>
        <time>2021-07-28T15:19:05.000Z</time>
      </trkpt>
      <trkpt lat="43.58584" lon="2.5419">
        <ele>772.59997558594</ele>
        <time>2021-07-28T15:19:06.000Z</time>
      </trkpt>
      <trkpt lat="43.58581" lon="2.54202">
        <ele>772.59997558594</ele>
        <time>2021-07-28T15:19:09.000Z</time>
      </trkpt>
      <trkpt lat="43.58575" lon="2.54233">
        <ele>772.59997558594</ele>
        <time>2021-07-28T15:19:16.000Z</time>
      </trkpt>
      <trkpt lat="43.58575" lon="2.54265">
        <ele>772.59997558594</ele>
        <time>2021-07-28T15:19:22.000Z</time>
      </trkpt>
      <trkpt lat="43.58575" lon="2.54293">
        <ele>772.59997558594</ele>
        <time>2021-07-28T15:19:26.000Z</time>
      </trkpt>
      <trkpt lat="43.58574" lon="2.54317">
        <ele>772.59997558594</ele>
        <time>2021-07-28T15:19:29.000Z</time>
      </trkpt>
      <trkpt lat="43.58571" lon="2.54365">
        <ele>772.59997558594</ele>
        <time>2021-07-28T15:19:35.000Z</time>
      </trkpt>
      <trkpt lat="43.58573" lon="2.54397">
        <ele>772.59997558594</ele>
        <time>2021-07-28T15:19:39.000Z</time>
      </trkpt>
      <trkpt lat="43.58578" lon="2.5441">
        <ele>772.59997558594</ele>
        <time>2021-07-28T15:19:41.000Z</time>
      </trkpt>
      <trkpt lat="43.58588" lon="2.54429">
        <ele>772.59997558594</ele>
        <time>2021-07-28T15:19:44.000Z</time>
      </trkpt>
      <trkpt lat="43.586" lon="2.54444">
        <ele>772.59997558594</ele>
        <time>2021-07-28T15:19:47.000Z</time>
      </trkpt>
      <trkpt lat="43.58622" lon="2.54457">
        <ele>772.59997558594</ele>
        <time>2021-07-28T15:19:51.000Z</time>
      </trkpt>
      <trkpt lat="43.5864" lon="2.54464">
        <ele>772.20001220703</ele>
        <time>2021-07-28T15:19:54.000Z</time>
      </trkpt>
      <trkpt lat="43.58646" lon="2.54469">
        <ele>771.79998779297</ele>
        <time>2021-07-28T15:19:55.000Z</time>
      </trkpt>
      <trkpt lat="43.58653" lon="2.54474">
        <ele>771.40002441406</ele>
        <time>2021-07-28T15:19:56.000Z</time>
      </trkpt>
      <trkpt lat="43.58658" lon="2.54481">
        <ele>770.79998779297</ele>
        <time>2021-07-28T15:19:57.000Z</time>
      </trkpt>
      <trkpt lat="43.58662" lon="2.54488">
        <ele>770.40002441406</ele>
        <time>2021-07-28T15:19:58.000Z</time>
      </trkpt>
      <trkpt lat="43.58666" lon="2.54496">
        <ele>770.40002441406</ele>
        <time>2021-07-28T15:19:59.000Z</time>
      </trkpt>
      <trkpt lat="43.5867" lon="2.54503">
        <ele>770.40002441406</ele>
        <time>2021-07-28T15:20:00.000Z</time>
      </trkpt>
      <trkpt lat="43.58682" lon="2.54523">
        <ele>770</ele>
        <time>2021-07-28T15:20:03.000Z</time>
      </trkpt>
      <trkpt lat="43.58686" lon="2.5453">
        <ele>769.59997558594</ele>
        <time>2021-07-28T15:20:04.000Z</time>
      </trkpt>
      <trkpt lat="43.5869" lon="2.54536">
        <ele>769.20001220703</ele>
        <time>2021-07-28T15:20:05.000Z</time>
      </trkpt>
      <trkpt lat="43.58695" lon="2.54541">
        <ele>768.59997558594</ele>
        <time>2021-07-28T15:20:06.000Z</time>
      </trkpt>
      <trkpt lat="43.587" lon="2.54546">
        <ele>768.20001220703</ele>
        <time>2021-07-28T15:20:07.000Z</time>
      </trkpt>
      <trkpt lat="43.58707" lon="2.5455">
        <ele>767.79998779297</ele>
        <time>2021-07-28T15:20:08.000Z</time>
      </trkpt>
      <trkpt lat="43.58713" lon="2.54555">
        <ele>767.40002441406</ele>
        <time>2021-07-28T15:20:09.000Z</time>
      </trkpt>
      <trkpt lat="43.5872" lon="2.5456">
        <ele>766.79998779297</ele>
        <time>2021-07-28T15:20:10.000Z</time>
      </trkpt>
      <trkpt lat="43.58728" lon="2.54567">
        <ele>766.40002441406</ele>
        <time>2021-07-28T15:20:11.000Z</time>
      </trkpt>
      <trkpt lat="43.58735" lon="2.54574">
        <ele>766</ele>
        <time>2021-07-28T15:20:12.000Z</time>
      </trkpt>
      <trkpt lat="43.58743" lon="2.54581">
        <ele>765.59997558594</ele>
        <time>2021-07-28T15:20:13.000Z</time>
      </trkpt>
      <trkpt lat="43.5875" lon="2.54588">
        <ele>765</ele>
        <time>2021-07-28T15:20:14.000Z</time>
      </trkpt>
      <trkpt lat="43.58756" lon="2.54594">
        <ele>764.59997558594</ele>
        <time>2021-07-28T15:20:15.000Z</time>
      </trkpt>
      <trkpt lat="43.58759" lon="2.54602">
        <ele>764.20001220703</ele>
        <time>2021-07-28T15:20:16.000Z</time>
      </trkpt>
      <trkpt lat="43.5876" lon="2.5461">
        <ele>763.59997558594</ele>
        <time>2021-07-28T15:20:17.000Z</time>
      </trkpt>
      <trkpt lat="43.58753" lon="2.54621">
        <ele>763.59997558594</ele>
        <time>2021-07-28T15:20:19.000Z</time>
      </trkpt>
      <trkpt lat="43.58745" lon="2.54629">
        <ele>763.59997558594</ele>
        <time>2021-07-28T15:20:21.000Z</time>
      </trkpt>
      <trkpt lat="43.58735" lon="2.54642">
        <ele>763.59997558594</ele>
        <time>2021-07-28T15:20:24.000Z</time>
      </trkpt>
      <trkpt lat="43.58732" lon="2.54645">
        <ele>763.59997558594</ele>
        <time>2021-07-28T15:20:25.000Z</time>
      </trkpt>
      <trkpt lat="43.5872" lon="2.54659">
        <ele>764.20001220703</ele>
        <time>2021-07-28T15:20:29.000Z</time>
      </trkpt>
      <trkpt lat="43.58717" lon="2.54662">
        <ele>764.59997558594</ele>
        <time>2021-07-28T15:20:30.000Z</time>
      </trkpt>
      <trkpt lat="43.58714" lon="2.54666">
        <ele>765</ele>
        <time>2021-07-28T15:20:31.000Z</time>
      </trkpt>
      <trkpt lat="43.58711" lon="2.5467">
        <ele>765.40002441406</ele>
        <time>2021-07-28T15:20:32.000Z</time>
      </trkpt>
      <trkpt lat="43.58709" lon="2.54673">
        <ele>765.79998779297</ele>
        <time>2021-07-28T15:20:33.000Z</time>
      </trkpt>
      <trkpt lat="43.58699" lon="2.54688">
        <ele>765.79998779297</ele>
        <time>2021-07-28T15:20:37.000Z</time>
      </trkpt>
      <trkpt lat="43.58679" lon="2.54714">
        <ele>765.79998779297</ele>
        <time>2021-07-28T15:20:44.000Z</time>
      </trkpt>
      <trkpt lat="43.58669" lon="2.54729">
        <ele>766.40002441406</ele>
        <time>2021-07-28T15:20:48.000Z</time>
      </trkpt>
      <trkpt lat="43.58666" lon="2.54733">
        <ele>766.79998779297</ele>
        <time>2021-07-28T15:20:49.000Z</time>
      </trkpt>
      <trkpt lat="43.58664" lon="2.54737">
        <ele>767.20001220703</ele>
        <time>2021-07-28T15:20:50.000Z</time>
      </trkpt>
      <trkpt lat="43.58661" lon="2.54741">
        <ele>767.59997558594</ele>
        <time>2021-07-28T15:20:51.000Z</time>
      </trkpt>
      <trkpt lat="43.58659" lon="2.54745">
        <ele>768</ele>
        <time>2021-07-28T15:20:52.000Z</time>
      </trkpt>
      <trkpt lat="43.58656" lon="2.54748">
        <ele>768</ele>
        <time>2021-07-28T15:20:53.000Z</time>
      </trkpt>
      <trkpt lat="43.58639" lon="2.54771">
        <ele>768</ele>
        <time>2021-07-28T15:21:00.000Z</time>
      </trkpt>
      <trkpt lat="43.58637" lon="2.54774">
        <ele>768.40002441406</ele>
        <time>2021-07-28T15:21:01.000Z</time>
      </trkpt>
      <trkpt lat="43.58635" lon="2.54778">
        <ele>768.79998779297</ele>
        <time>2021-07-28T15:21:02.000Z</time>
      </trkpt>
      <trkpt lat="43.58632" lon="2.54782">
        <ele>769.20001220703</ele>
        <time>2021-07-28T15:21:03.000Z</time>
      </trkpt>
      <trkpt lat="43.5863" lon="2.54785">
        <ele>769.59997558594</ele>
        <time>2021-07-28T15:21:04.000Z</time>
      </trkpt>
      <trkpt lat="43.58628" lon="2.54788">
        <ele>770</ele>
        <time>2021-07-28T15:21:05.000Z</time>
      </trkpt>
      <trkpt lat="43.58622" lon="2.548">
        <ele>770</ele>
        <time>2021-07-28T15:21:08.000Z</time>
      </trkpt>
      <trkpt lat="43.58607" lon="2.54827">
        <ele>770.40002441406</ele>
        <time>2021-07-28T15:21:15.000Z</time>
      </trkpt>
      <trkpt lat="43.58605" lon="2.54831">
        <ele>770.79998779297</ele>
        <time>2021-07-28T15:21:16.000Z</time>
      </trkpt>
      <trkpt lat="43.58603" lon="2.54835">
        <ele>771.20001220703</ele>
        <time>2021-07-28T15:21:17.000Z</time>
      </trkpt>
      <trkpt lat="43.58601" lon="2.54839">
        <ele>771.59997558594</ele>
        <time>2021-07-28T15:21:18.000Z</time>
      </trkpt>
      <trkpt lat="43.58599" lon="2.54843">
        <ele>772.20001220703</ele>
        <time>2021-07-28T15:21:19.000Z</time>
      </trkpt>
      <trkpt lat="43.58594" lon="2.54858">
        <ele>772.20001220703</ele>
        <time>2021-07-28T15:21:23.000Z</time>
      </trkpt>
      <trkpt lat="43.5859" lon="2.54874">
        <ele>772.59997558594</ele>
        <time>2021-07-28T15:21:27.000Z</time>
      </trkpt>
      <trkpt lat="43.5859" lon="2.54879">
        <ele>773</ele>
        <time>2021-07-28T15:21:28.000Z</time>
      </trkpt>
      <trkpt lat="43.5859" lon="2.54884">
        <ele>773.40002441406</ele>
        <time>2021-07-28T15:21:29.000Z</time>
      </trkpt>
      <trkpt lat="43.58589" lon="2.54889">
        <ele>773.79998779297</ele>
        <time>2021-07-28T15:21:30.000Z</time>
      </trkpt>
      <trkpt lat="43.5859" lon="2.54893">
        <ele>774.20001220703</ele>
        <time>2021-07-28T15:21:31.000Z</time>
      </trkpt>
      <trkpt lat="43.58593" lon="2.54937">
        <ele>774.20001220703</ele>
        <time>2021-07-28T15:21:40.000Z</time>
      </trkpt>
      <trkpt lat="43.58593" lon="2.54949">
        <ele>774.59997558594</ele>
        <time>2021-07-28T15:21:42.000Z</time>
      </trkpt>
      <trkpt lat="43.58592" lon="2.54955">
        <ele>775</ele>
        <time>2021-07-28T15:21:43.000Z</time>
      </trkpt>
      <trkpt lat="43.58593" lon="2.54961">
        <ele>775.40002441406</ele>
        <time>2021-07-28T15:21:44.000Z</time>
      </trkpt>
      <trkpt lat="43.58593" lon="2.54967">
        <ele>776</ele>
        <time>2021-07-28T15:21:45.000Z</time>
      </trkpt>
      <trkpt lat="43.58594" lon="2.54973">
        <ele>776.40002441406</ele>
        <time>2021-07-28T15:21:46.000Z</time>
      </trkpt>
      <trkpt lat="43.58597" lon="2.55012">
        <ele>776.40002441406</ele>
        <time>2021-07-28T15:21:53.000Z</time>
      </trkpt>
      <trkpt lat="43.58598" lon="2.55024">
        <ele>776.79998779297</ele>
        <time>2021-07-28T15:21:55.000Z</time>
      </trkpt>
      <trkpt lat="43.58598" lon="2.55029">
        <ele>777.59997558594</ele>
        <time>2021-07-28T15:21:56.000Z</time>
      </trkpt>
      <trkpt lat="43.58598" lon="2.55035">
        <ele>778</ele>
        <time>2021-07-28T15:21:57.000Z</time>
      </trkpt>
      <trkpt lat="43.58599" lon="2.5504">
        <ele>778.40002441406</ele>
        <time>2021-07-28T15:21:58.000Z</time>
      </trkpt>
      <trkpt lat="43.58599" lon="2.55052">
        <ele>778.40002441406</ele>
        <time>2021-07-28T15:22:00.000Z</time>
      </trkpt>
      <trkpt lat="43.58597" lon="2.55096">
        <ele>778.40002441406</ele>
        <time>2021-07-28T15:22:08.000Z</time>
      </trkpt>
      <trkpt lat="43.58597" lon="2.55101">
        <ele>778.79998779297</ele>
        <time>2021-07-28T15:22:09.000Z</time>
      </trkpt>
      <trkpt lat="43.58596" lon="2.55106">
        <ele>779.20001220703</ele>
        <time>2021-07-28T15:22:10.000Z</time>
      </trkpt>
      <trkpt lat="43.58594" lon="2.55111">
        <ele>779.59997558594</ele>
        <time>2021-07-28T15:22:11.000Z</time>
      </trkpt>
      <trkpt lat="43.58593" lon="2.55116">
        <ele>780.20001220703</ele>
        <time>2021-07-28T15:22:12.000Z</time>
      </trkpt>
      <trkpt lat="43.58592" lon="2.55121">
        <ele>780.59997558594</ele>
        <time>2021-07-28T15:22:13.000Z</time>
      </trkpt>
      <trkpt lat="43.58587" lon="2.55133">
        <ele>780.59997558594</ele>
        <time>2021-07-28T15:22:16.000Z</time>
      </trkpt>
      <trkpt lat="43.58579" lon="2.55162">
        <ele>780.59997558594</ele>
        <time>2021-07-28T15:22:22.000Z</time>
      </trkpt>
      <trkpt lat="43.58571" lon="2.5519">
        <ele>780.59997558594</ele>
        <time>2021-07-28T15:22:28.000Z</time>
      </trkpt>
      <trkpt lat="43.58561" lon="2.55217">
        <ele>780.59997558594</ele>
        <time>2021-07-28T15:22:33.000Z</time>
      </trkpt>
      <trkpt lat="43.58553" lon="2.55259">
        <ele>780.59997558594</ele>
        <time>2021-07-28T15:22:40.000Z</time>
      </trkpt>
      <trkpt lat="43.58546" lon="2.55292">
        <ele>780.59997558594</ele>
        <time>2021-07-28T15:22:46.000Z</time>
      </trkpt>
      <trkpt lat="43.58542" lon="2.5531">
        <ele>781</ele>
        <time>2021-07-28T15:22:50.000Z</time>
      </trkpt>
      <trkpt lat="43.58541" lon="2.55316">
        <ele>781.40002441406</ele>
        <time>2021-07-28T15:22:51.000Z</time>
      </trkpt>
      <trkpt lat="43.5854" lon="2.55321">
        <ele>781.79998779297</ele>
        <time>2021-07-28T15:22:52.000Z</time>
      </trkpt>
      <trkpt lat="43.58538" lon="2.55327">
        <ele>782.20001220703</ele>
        <time>2021-07-28T15:22:53.000Z</time>
      </trkpt>
      <trkpt lat="43.58535" lon="2.55334">
        <ele>782.59997558594</ele>
        <time>2021-07-28T15:22:54.000Z</time>
      </trkpt>
      <trkpt lat="43.58529" lon="2.55353">
        <ele>782.59997558594</ele>
        <time>2021-07-28T15:22:57.000Z</time>
      </trkpt>
      <trkpt lat="43.58513" lon="2.55389">
        <ele>782.59997558594</ele>
        <time>2021-07-28T15:23:03.000Z</time>
      </trkpt>
      <trkpt lat="43.5851" lon="2.55394">
        <ele>782.59997558594</ele>
        <time>2021-07-28T15:23:04.000Z</time>
      </trkpt>
      <trkpt lat="43.58502" lon="2.55401">
        <ele>783</ele>
        <time>2021-07-28T15:23:06.000Z</time>
      </trkpt>
      <trkpt lat="43.58498" lon="2.55404">
        <ele>783.40002441406</ele>
        <time>2021-07-28T15:23:07.000Z</time>
      </trkpt>
      <trkpt lat="43.58494" lon="2.55406">
        <ele>783.79998779297</ele>
        <time>2021-07-28T15:23:08.000Z</time>
      </trkpt>
      <trkpt lat="43.58489" lon="2.55407">
        <ele>784.20001220703</ele>
        <time>2021-07-28T15:23:09.000Z</time>
      </trkpt>
      <trkpt lat="43.58485" lon="2.55407">
        <ele>784.59997558594</ele>
        <time>2021-07-28T15:23:10.000Z</time>
      </trkpt>
      <trkpt lat="43.58481" lon="2.55406">
        <ele>784.59997558594</ele>
        <time>2021-07-28T15:23:11.000Z</time>
      </trkpt>
      <trkpt lat="43.5847" lon="2.55402">
        <ele>785.20001220703</ele>
        <time>2021-07-28T15:23:14.000Z</time>
      </trkpt>
      <trkpt lat="43.58467" lon="2.55401">
        <ele>785.59997558594</ele>
        <time>2021-07-28T15:23:15.000Z</time>
      </trkpt>
      <trkpt lat="43.58464" lon="2.55399">
        <ele>786</ele>
        <time>2021-07-28T15:23:16.000Z</time>
      </trkpt>
      <trkpt lat="43.58461" lon="2.55398">
        <ele>786.40002441406</ele>
        <time>2021-07-28T15:23:17.000Z</time>
      </trkpt>
      <trkpt lat="43.58458" lon="2.55395">
        <ele>786.79998779297</ele>
        <time>2021-07-28T15:23:18.000Z</time>
      </trkpt>
      <trkpt lat="43.58455" lon="2.55392">
        <ele>786.79998779297</ele>
        <time>2021-07-28T15:23:19.000Z</time>
      </trkpt>
      <trkpt lat="43.58434" lon="2.55372">
        <ele>786.79998779297</ele>
        <time>2021-07-28T15:23:26.000Z</time>
      </trkpt>
      <trkpt lat="43.58417" lon="2.55379">
        <ele>786.79998779297</ele>
        <time>2021-07-28T15:23:30.000Z</time>
      </trkpt>
      <trkpt lat="43.58414" lon="2.55383">
        <ele>786.79998779297</ele>
        <time>2021-07-28T15:23:31.000Z</time>
      </trkpt>
      <trkpt lat="43.58397" lon="2.55398">
        <ele>786.79998779297</ele>
        <time>2021-07-28T15:23:36.000Z</time>
      </trkpt>
      <trkpt lat="43.58384" lon="2.55416">
        <ele>786.79998779297</ele>
        <time>2021-07-28T15:23:40.000Z</time>
      </trkpt>
      <trkpt lat="43.58377" lon="2.55426">
        <ele>786.79998779297</ele>
        <time>2021-07-28T15:23:42.000Z</time>
      </trkpt>
      <trkpt lat="43.58363" lon="2.55447">
        <ele>786.79998779297</ele>
        <time>2021-07-28T15:23:47.000Z</time>
      </trkpt>
      <trkpt lat="43.58348" lon="2.55477">
        <ele>786.79998779297</ele>
        <time>2021-07-28T15:23:54.000Z</time>
      </trkpt>
      <trkpt lat="43.58341" lon="2.5549">
        <ele>787.40002441406</ele>
        <time>2021-07-28T15:23:58.000Z</time>
      </trkpt>
      <trkpt lat="43.5834" lon="2.55493">
        <ele>787.79998779297</ele>
        <time>2021-07-28T15:23:59.000Z</time>
      </trkpt>
      <trkpt lat="43.58339" lon="2.55496">
        <ele>788.20001220703</ele>
        <time>2021-07-28T15:24:00.000Z</time>
      </trkpt>
      <trkpt lat="43.58338" lon="2.55499">
        <ele>789.20001220703</ele>
        <time>2021-07-28T15:24:01.000Z</time>
      </trkpt>
      <trkpt lat="43.5833" lon="2.55516">
        <ele>789.59997558594</ele>
        <time>2021-07-28T15:24:06.000Z</time>
      </trkpt>
      <trkpt lat="43.58328" lon="2.5552">
        <ele>790</ele>
        <time>2021-07-28T15:24:07.000Z</time>
      </trkpt>
      <trkpt lat="43.58327" lon="2.55523">
        <ele>790.40002441406</ele>
        <time>2021-07-28T15:24:08.000Z</time>
      </trkpt>
      <trkpt lat="43.58325" lon="2.55527">
        <ele>790.79998779297</ele>
        <time>2021-07-28T15:24:09.000Z</time>
      </trkpt>
      <trkpt lat="43.58324" lon="2.5553">
        <ele>791.20001220703</ele>
        <time>2021-07-28T15:24:10.000Z</time>
      </trkpt>
      <trkpt lat="43.58317" lon="2.55545">
        <ele>791.20001220703</ele>
        <time>2021-07-28T15:24:14.000Z</time>
      </trkpt>
      <trkpt lat="43.58313" lon="2.55551">
        <ele>791.59997558594</ele>
        <time>2021-07-28T15:24:16.000Z</time>
      </trkpt>
      <trkpt lat="43.58312" lon="2.55555">
        <ele>792</ele>
        <time>2021-07-28T15:24:17.000Z</time>
      </trkpt>
      <trkpt lat="43.5831" lon="2.55558">
        <ele>792.40002441406</ele>
        <time>2021-07-28T15:24:18.000Z</time>
      </trkpt>
      <trkpt lat="43.58309" lon="2.5556">
        <ele>792.79998779297</ele>
        <time>2021-07-28T15:24:19.000Z</time>
      </trkpt>
      <trkpt lat="43.58308" lon="2.55563">
        <ele>793.40002441406</ele>
        <time>2021-07-28T15:24:20.000Z</time>
      </trkpt>
      <trkpt lat="43.58301" lon="2.55579">
        <ele>794.20001220703</ele>
        <time>2021-07-28T15:24:25.000Z</time>
      </trkpt>
      <trkpt lat="43.58299" lon="2.55582">
        <ele>794.59997558594</ele>
        <time>2021-07-28T15:24:26.000Z</time>
      </trkpt>
      <trkpt lat="43.58297" lon="2.55585">
        <ele>795</ele>
        <time>2021-07-28T15:24:27.000Z</time>
      </trkpt>
      <trkpt lat="43.58296" lon="2.55588">
        <ele>795.40002441406</ele>
        <time>2021-07-28T15:24:28.000Z</time>
      </trkpt>
      <trkpt lat="43.58291" lon="2.55602">
        <ele>795.40002441406</ele>
        <time>2021-07-28T15:24:33.000Z</time>
      </trkpt>
      <trkpt lat="43.58288" lon="2.55611">
        <ele>795.79998779297</ele>
        <time>2021-07-28T15:24:36.000Z</time>
      </trkpt>
      <trkpt lat="43.58287" lon="2.55614">
        <ele>796.20001220703</ele>
        <time>2021-07-28T15:24:37.000Z</time>
      </trkpt>
      <trkpt lat="43.58286" lon="2.55618">
        <ele>796.59997558594</ele>
        <time>2021-07-28T15:24:38.000Z</time>
      </trkpt>
      <trkpt lat="43.58285" lon="2.55622">
        <ele>797</ele>
        <time>2021-07-28T15:24:39.000Z</time>
      </trkpt>
      <trkpt lat="43.58284" lon="2.55625">
        <ele>797.40002441406</ele>
        <time>2021-07-28T15:24:40.000Z</time>
      </trkpt>
      <trkpt lat="43.5827" lon="2.55656">
        <ele>797.79998779297</ele>
        <time>2021-07-28T15:24:47.000Z</time>
      </trkpt>
      <trkpt lat="43.58268" lon="2.55661">
        <ele>798.20001220703</ele>
        <time>2021-07-28T15:24:48.000Z</time>
      </trkpt>
      <trkpt lat="43.58267" lon="2.55664">
        <ele>798.59997558594</ele>
        <time>2021-07-28T15:24:49.000Z</time>
      </trkpt>
      <trkpt lat="43.58266" lon="2.55668">
        <ele>799.40002441406</ele>
        <time>2021-07-28T15:24:50.000Z</time>
      </trkpt>
      <trkpt lat="43.5826" lon="2.55688">
        <ele>799.40002441406</ele>
        <time>2021-07-28T15:24:55.000Z</time>
      </trkpt>
      <trkpt lat="43.58253" lon="2.55718">
        <ele>799.79998779297</ele>
        <time>2021-07-28T15:25:02.000Z</time>
      </trkpt>
      <trkpt lat="43.58252" lon="2.55721">
        <ele>800.20001220703</ele>
        <time>2021-07-28T15:25:03.000Z</time>
      </trkpt>
      <trkpt lat="43.58252" lon="2.55725">
        <ele>800.59997558594</ele>
        <time>2021-07-28T15:25:04.000Z</time>
      </trkpt>
      <trkpt lat="43.58251" lon="2.55729">
        <ele>801.20001220703</ele>
        <time>2021-07-28T15:25:05.000Z</time>
      </trkpt>
      <trkpt lat="43.5825" lon="2.55734">
        <ele>801.59997558594</ele>
        <time>2021-07-28T15:25:06.000Z</time>
      </trkpt>
      <trkpt lat="43.58248" lon="2.55746">
        <ele>801.59997558594</ele>
        <time>2021-07-28T15:25:09.000Z</time>
      </trkpt>
      <trkpt lat="43.58244" lon="2.55776">
        <ele>801.59997558594</ele>
        <time>2021-07-28T15:25:16.000Z</time>
      </trkpt>
      <trkpt lat="43.58241" lon="2.55806">
        <ele>801.59997558594</ele>
        <time>2021-07-28T15:25:22.000Z</time>
      </trkpt>
      <trkpt lat="43.5824" lon="2.55825">
        <ele>801.59997558594</ele>
        <time>2021-07-28T15:25:27.000Z</time>
      </trkpt>
      <trkpt lat="43.58242" lon="2.55844">
        <ele>801.59997558594</ele>
        <time>2021-07-28T15:25:32.000Z</time>
      </trkpt>
      <trkpt lat="43.58241" lon="2.55876">
        <ele>801.59997558594</ele>
        <time>2021-07-28T15:25:40.000Z</time>
      </trkpt>
      <trkpt lat="43.5824" lon="2.5588">
        <ele>802</ele>
        <time>2021-07-28T15:25:41.000Z</time>
      </trkpt>
      <trkpt lat="43.58238" lon="2.55884">
        <ele>802.40002441406</ele>
        <time>2021-07-28T15:25:42.000Z</time>
      </trkpt>
      <trkpt lat="43.58237" lon="2.55888">
        <ele>802.79998779297</ele>
        <time>2021-07-28T15:25:43.000Z</time>
      </trkpt>
      <trkpt lat="43.58236" lon="2.55891">
        <ele>803.20001220703</ele>
        <time>2021-07-28T15:25:44.000Z</time>
      </trkpt>
      <trkpt lat="43.58237" lon="2.55893">
        <ele>803.79998779297</ele>
        <time>2021-07-28T15:25:45.000Z</time>
      </trkpt>
      <trkpt lat="43.58239" lon="2.5592">
        <ele>803.79998779297</ele>
        <time>2021-07-28T15:25:51.000Z</time>
      </trkpt>
      <trkpt lat="43.58246" lon="2.55967">
        <ele>803.79998779297</ele>
        <time>2021-07-28T15:25:58.000Z</time>
      </trkpt>
      <trkpt lat="43.58243" lon="2.56003">
        <ele>803.79998779297</ele>
        <time>2021-07-28T15:26:04.000Z</time>
      </trkpt>
      <trkpt lat="43.58239" lon="2.56016">
        <ele>803.79998779297</ele>
        <time>2021-07-28T15:26:06.000Z</time>
      </trkpt>
      <trkpt lat="43.58233" lon="2.56035">
        <ele>803.79998779297</ele>
        <time>2021-07-28T15:26:09.000Z</time>
      </trkpt>
      <trkpt lat="43.58216" lon="2.56083">
        <ele>803.79998779297</ele>
        <time>2021-07-28T15:26:17.000Z</time>
      </trkpt>
      <trkpt lat="43.582" lon="2.56138">
        <ele>803.79998779297</ele>
        <time>2021-07-28T15:26:26.000Z</time>
      </trkpt>
      <trkpt lat="43.58189" lon="2.56182">
        <ele>804.20001220703</ele>
        <time>2021-07-28T15:26:33.000Z</time>
      </trkpt>
      <trkpt lat="43.58188" lon="2.56189">
        <ele>804.59997558594</ele>
        <time>2021-07-28T15:26:34.000Z</time>
      </trkpt>
      <trkpt lat="43.58187" lon="2.56195">
        <ele>805</ele>
        <time>2021-07-28T15:26:35.000Z</time>
      </trkpt>
      <trkpt lat="43.58186" lon="2.56201">
        <ele>805.40002441406</ele>
        <time>2021-07-28T15:26:36.000Z</time>
      </trkpt>
      <trkpt lat="43.58184" lon="2.56206">
        <ele>805.79998779297</ele>
        <time>2021-07-28T15:26:37.000Z</time>
      </trkpt>
      <trkpt lat="43.58178" lon="2.5623">
        <ele>805.79998779297</ele>
        <time>2021-07-28T15:26:41.000Z</time>
      </trkpt>
      <trkpt lat="43.58171" lon="2.56249">
        <ele>805.79998779297</ele>
        <time>2021-07-28T15:26:44.000Z</time>
      </trkpt>
      <trkpt lat="43.58164" lon="2.56266">
        <ele>805.79998779297</ele>
        <time>2021-07-28T15:26:47.000Z</time>
      </trkpt>
      <trkpt lat="43.58162" lon="2.56272">
        <ele>805.79998779297</ele>
        <time>2021-07-28T15:26:48.000Z</time>
      </trkpt>
      <trkpt lat="43.58147" lon="2.5631">
        <ele>805.79998779297</ele>
        <time>2021-07-28T15:26:55.000Z</time>
      </trkpt>
      <trkpt lat="43.58137" lon="2.56348">
        <ele>805.79998779297</ele>
        <time>2021-07-28T15:27:01.000Z</time>
      </trkpt>
      <trkpt lat="43.58126" lon="2.56393">
        <ele>805.79998779297</ele>
        <time>2021-07-28T15:27:07.000Z</time>
      </trkpt>
      <trkpt lat="43.58113" lon="2.56435">
        <ele>805.79998779297</ele>
        <time>2021-07-28T15:27:13.000Z</time>
      </trkpt>
      <trkpt lat="43.58109" lon="2.56449">
        <ele>805.79998779297</ele>
        <time>2021-07-28T15:27:15.000Z</time>
      </trkpt>
      <trkpt lat="43.58105" lon="2.56478">
        <ele>805.79998779297</ele>
        <time>2021-07-28T15:27:19.000Z</time>
      </trkpt>
      <trkpt lat="43.58099" lon="2.56522">
        <ele>805.79998779297</ele>
        <time>2021-07-28T15:27:26.000Z</time>
      </trkpt>
      <trkpt lat="43.58097" lon="2.56527">
        <ele>805.79998779297</ele>
        <time>2021-07-28T15:27:27.000Z</time>
      </trkpt>
      <trkpt lat="43.58091" lon="2.56538">
        <ele>805.79998779297</ele>
        <time>2021-07-28T15:27:30.000Z</time>
      </trkpt>
      <trkpt lat="43.58077" lon="2.56542">
        <ele>805.79998779297</ele>
        <time>2021-07-28T15:27:34.000Z</time>
      </trkpt>
      <trkpt lat="43.58074" lon="2.56543">
        <ele>805.79998779297</ele>
        <time>2021-07-28T15:27:35.000Z</time>
      </trkpt>
      <trkpt lat="43.58068" lon="2.56544">
        <ele>805.79998779297</ele>
        <time>2021-07-28T15:27:38.000Z</time>
      </trkpt>
      <trkpt lat="43.58067" lon="2.56543">
        <ele>805.79998779297</ele>
        <time>2021-07-28T15:27:39.000Z</time>
      </trkpt>
      <trkpt lat="43.58066" lon="2.56546">
        <ele>805.79998779297</ele>
        <time>2021-07-28T15:27:42.000Z</time>
      </trkpt>
      <trkpt lat="43.58073" lon="2.56543">
        <ele>805.79998779297</ele>
        <time>2021-07-28T15:27:45.000Z</time>
      </trkpt>
      <trkpt lat="43.58083" lon="2.56543">
        <ele>805.79998779297</ele>
        <time>2021-07-28T15:27:48.000Z</time>
      </trkpt>
      <trkpt lat="43.58086" lon="2.56542">
        <ele>805.79998779297</ele>
        <time>2021-07-28T15:27:49.000Z</time>
      </trkpt>
      <trkpt lat="43.5809" lon="2.56539">
        <ele>805.79998779297</ele>
        <time>2021-07-28T15:27:52.000Z</time>
      </trkpt>
      <trkpt lat="43.58088" lon="2.56539">
        <ele>805.79998779297</ele>
        <time>2021-07-28T15:27:53.000Z</time>
      </trkpt>
      <trkpt lat="43.58087" lon="2.56541">
        <ele>805.79998779297</ele>
        <time>2021-07-28T15:27:54.000Z</time>
      </trkpt>
      <trkpt lat="43.58078" lon="2.56544">
        <ele>805.79998779297</ele>
        <time>2021-07-28T15:27:57.000Z</time>
      </trkpt>
      <trkpt lat="43.58074" lon="2.56545">
        <ele>805.79998779297</ele>
        <time>2021-07-28T15:27:58.000Z</time>
      </trkpt>
      <trkpt lat="43.58055" lon="2.56547">
        <ele>805.79998779297</ele>
        <time>2021-07-28T15:28:02.000Z</time>
      </trkpt>
      <trkpt lat="43.58032" lon="2.56552">
        <ele>805.40002441406</ele>
        <time>2021-07-28T15:28:06.000Z</time>
      </trkpt>
      <trkpt lat="43.58026" lon="2.56554">
        <ele>804.79998779297</ele>
        <time>2021-07-28T15:28:07.000Z</time>
      </trkpt>
      <trkpt lat="43.58019" lon="2.56557">
        <ele>804</ele>
        <time>2021-07-28T15:28:08.000Z</time>
      </trkpt>
      <trkpt lat="43.58012" lon="2.5656">
        <ele>803.59997558594</ele>
        <time>2021-07-28T15:28:09.000Z</time>
      </trkpt>
      <trkpt lat="43.57998" lon="2.56566">
        <ele>803.20001220703</ele>
        <time>2021-07-28T15:28:11.000Z</time>
      </trkpt>
      <trkpt lat="43.57992" lon="2.5657">
        <ele>802.79998779297</ele>
        <time>2021-07-28T15:28:12.000Z</time>
      </trkpt>
      <trkpt lat="43.57987" lon="2.56574">
        <ele>802.20001220703</ele>
        <time>2021-07-28T15:28:13.000Z</time>
      </trkpt>
      <trkpt lat="43.57982" lon="2.56578">
        <ele>801.79998779297</ele>
        <time>2021-07-28T15:28:14.000Z</time>
      </trkpt>
      <trkpt lat="43.57977" lon="2.56583">
        <ele>801.40002441406</ele>
        <time>2021-07-28T15:28:15.000Z</time>
      </trkpt>
      <trkpt lat="43.57968" lon="2.56591">
        <ele>801.40002441406</ele>
        <time>2021-07-28T15:28:17.000Z</time>
      </trkpt>
      <trkpt lat="43.5796" lon="2.56601">
        <ele>801.40002441406</ele>
        <time>2021-07-28T15:28:19.000Z</time>
      </trkpt>
      <trkpt lat="43.5795" lon="2.56618">
        <ele>801.40002441406</ele>
        <time>2021-07-28T15:28:22.000Z</time>
      </trkpt>
      <trkpt lat="43.5794" lon="2.56639">
        <ele>801</ele>
        <time>2021-07-28T15:28:25.000Z</time>
      </trkpt>
      <trkpt lat="43.57935" lon="2.56647">
        <ele>800.40002441406</ele>
        <time>2021-07-28T15:28:26.000Z</time>
      </trkpt>
      <trkpt lat="43.5793" lon="2.56654">
        <ele>800</ele>
        <time>2021-07-28T15:28:27.000Z</time>
      </trkpt>
      <trkpt lat="43.57925" lon="2.56661">
        <ele>799.40002441406</ele>
        <time>2021-07-28T15:28:28.000Z</time>
      </trkpt>
      <trkpt lat="43.57919" lon="2.56667">
        <ele>799</ele>
        <time>2021-07-28T15:28:29.000Z</time>
      </trkpt>
      <trkpt lat="43.57906" lon="2.56674">
        <ele>799</ele>
        <time>2021-07-28T15:28:31.000Z</time>
      </trkpt>
      <trkpt lat="43.57888" lon="2.56677">
        <ele>799</ele>
        <time>2021-07-28T15:28:34.000Z</time>
      </trkpt>
      <trkpt lat="43.57883" lon="2.56678">
        <ele>799</ele>
        <time>2021-07-28T15:28:35.000Z</time>
      </trkpt>
      <trkpt lat="43.57859" lon="2.56686">
        <ele>799</ele>
        <time>2021-07-28T15:28:41.000Z</time>
      </trkpt>
      <trkpt lat="43.57851" lon="2.56689">
        <ele>799</ele>
        <time>2021-07-28T15:28:43.000Z</time>
      </trkpt>
      <trkpt lat="43.57838" lon="2.56695">
        <ele>799</ele>
        <time>2021-07-28T15:28:46.000Z</time>
      </trkpt>
      <trkpt lat="43.57833" lon="2.56698">
        <ele>799.40002441406</ele>
        <time>2021-07-28T15:28:47.000Z</time>
      </trkpt>
      <trkpt lat="43.57828" lon="2.567">
        <ele>799.79998779297</ele>
        <time>2021-07-28T15:28:48.000Z</time>
      </trkpt>
      <trkpt lat="43.57823" lon="2.56703">
        <ele>800.20001220703</ele>
        <time>2021-07-28T15:28:49.000Z</time>
      </trkpt>
      <trkpt lat="43.57817" lon="2.56707">
        <ele>800.59997558594</ele>
        <time>2021-07-28T15:28:50.000Z</time>
      </trkpt>
      <trkpt lat="43.57812" lon="2.5671">
        <ele>801</ele>
        <time>2021-07-28T15:28:51.000Z</time>
      </trkpt>
      <trkpt lat="43.57797" lon="2.56721">
        <ele>801.40002441406</ele>
        <time>2021-07-28T15:28:54.000Z</time>
      </trkpt>
      <trkpt lat="43.57792" lon="2.56725">
        <ele>801.79998779297</ele>
        <time>2021-07-28T15:28:55.000Z</time>
      </trkpt>
      <trkpt lat="43.57787" lon="2.56728">
        <ele>802.40002441406</ele>
        <time>2021-07-28T15:28:56.000Z</time>
      </trkpt>
      <trkpt lat="43.57782" lon="2.5673">
        <ele>802.79998779297</ele>
        <time>2021-07-28T15:28:57.000Z</time>
      </trkpt>
      <trkpt lat="43.5778" lon="2.56731">
        <ele>803.20001220703</ele>
        <time>2021-07-28T15:28:58.000Z</time>
      </trkpt>
      <trkpt lat="43.57778" lon="2.56732">
        <ele>803.20001220703</ele>
        <time>2021-07-28T15:28:59.000Z</time>
      </trkpt>
      <trkpt lat="43.57776" lon="2.56733">
        <ele>803.59997558594</ele>
        <time>2021-07-28T15:29:00.000Z</time>
      </trkpt>
      <trkpt lat="43.57775" lon="2.56733">
        <ele>804</ele>
        <time>2021-07-28T15:29:01.000Z</time>
      </trkpt>
      <trkpt lat="43.57773" lon="2.56734">
        <ele>804.40002441406</ele>
        <time>2021-07-28T15:29:02.000Z</time>
      </trkpt>
      <trkpt lat="43.57772" lon="2.56734">
        <ele>804.79998779297</ele>
        <time>2021-07-28T15:29:03.000Z</time>
      </trkpt>
      <trkpt lat="43.57769" lon="2.56735">
        <ele>805.20001220703</ele>
        <time>2021-07-28T15:29:04.000Z</time>
      </trkpt>
      <trkpt lat="43.57757" lon="2.56741">
        <ele>805.20001220703</ele>
        <time>2021-07-28T15:29:09.000Z</time>
      </trkpt>
      <trkpt lat="43.5774" lon="2.56753">
        <ele>805.20001220703</ele>
        <time>2021-07-28T15:29:16.000Z</time>
      </trkpt>
      <trkpt lat="43.5772" lon="2.56768">
        <ele>805.20001220703</ele>
        <time>2021-07-28T15:29:23.000Z</time>
      </trkpt>
      <trkpt lat="43.57701" lon="2.56789">
        <ele>805.20001220703</ele>
        <time>2021-07-28T15:29:29.000Z</time>
      </trkpt>
      <trkpt lat="43.57674" lon="2.56819">
        <ele>805.20001220703</ele>
        <time>2021-07-28T15:29:36.000Z</time>
      </trkpt>
      <trkpt lat="43.57669" lon="2.56826">
        <ele>804.79998779297</ele>
        <time>2021-07-28T15:29:37.000Z</time>
      </trkpt>
      <trkpt lat="43.57664" lon="2.56832">
        <ele>804.40002441406</ele>
        <time>2021-07-28T15:29:38.000Z</time>
      </trkpt>
      <trkpt lat="43.5766" lon="2.56838">
        <ele>804</ele>
        <time>2021-07-28T15:29:39.000Z</time>
      </trkpt>
      <trkpt lat="43.57656" lon="2.56843">
        <ele>803.59997558594</ele>
        <time>2021-07-28T15:29:40.000Z</time>
      </trkpt>
      <trkpt lat="43.57652" lon="2.56849">
        <ele>803</ele>
        <time>2021-07-28T15:29:41.000Z</time>
      </trkpt>
      <trkpt lat="43.57644" lon="2.56863">
        <ele>803</ele>
        <time>2021-07-28T15:29:43.000Z</time>
      </trkpt>
      <trkpt lat="43.57622" lon="2.56908">
        <ele>803</ele>
        <time>2021-07-28T15:29:50.000Z</time>
      </trkpt>
      <trkpt lat="43.57611" lon="2.56932">
        <ele>803</ele>
        <time>2021-07-28T15:29:54.000Z</time>
      </trkpt>
      <trkpt lat="43.57605" lon="2.56944">
        <ele>803</ele>
        <time>2021-07-28T15:29:56.000Z</time>
      </trkpt>
      <trkpt lat="43.57601" lon="2.5695">
        <ele>803</ele>
        <time>2021-07-28T15:29:57.000Z</time>
      </trkpt>
      <trkpt lat="43.57586" lon="2.56961">
        <ele>803</ele>
        <time>2021-07-28T15:30:00.000Z</time>
      </trkpt>
      <trkpt lat="43.57581" lon="2.56963">
        <ele>803</ele>
        <time>2021-07-28T15:30:01.000Z</time>
      </trkpt>
      <trkpt lat="43.57576" lon="2.56965">
        <ele>803</ele>
        <time>2021-07-28T15:30:02.000Z</time>
      </trkpt>
      <trkpt lat="43.57564" lon="2.56963">
        <ele>803</ele>
        <time>2021-07-28T15:30:04.000Z</time>
      </trkpt>
      <trkpt lat="43.57554" lon="2.56961">
        <ele>803</ele>
        <time>2021-07-28T15:30:06.000Z</time>
      </trkpt>
      <trkpt lat="43.57529" lon="2.56956">
        <ele>803</ele>
        <time>2021-07-28T15:30:11.000Z</time>
      </trkpt>
      <trkpt lat="43.57524" lon="2.56956">
        <ele>803</ele>
        <time>2021-07-28T15:30:12.000Z</time>
      </trkpt>
      <trkpt lat="43.5751" lon="2.56959">
        <ele>803</ele>
        <time>2021-07-28T15:30:15.000Z</time>
      </trkpt>
      <trkpt lat="43.57506" lon="2.5696">
        <ele>803</ele>
        <time>2021-07-28T15:30:16.000Z</time>
      </trkpt>
      <trkpt lat="43.57482" lon="2.56968">
        <ele>803</ele>
        <time>2021-07-28T15:30:21.000Z</time>
      </trkpt>
      <trkpt lat="43.57477" lon="2.56971">
        <ele>803</ele>
        <time>2021-07-28T15:30:22.000Z</time>
      </trkpt>
      <trkpt lat="43.57462" lon="2.56989">
        <ele>803</ele>
        <time>2021-07-28T15:30:26.000Z</time>
      </trkpt>
      <trkpt lat="43.57458" lon="2.56998">
        <ele>803</ele>
        <time>2021-07-28T15:30:28.000Z</time>
      </trkpt>
      <trkpt lat="43.57452" lon="2.57012">
        <ele>803</ele>
        <time>2021-07-28T15:30:31.000Z</time>
      </trkpt>
      <trkpt lat="43.57442" lon="2.57036">
        <ele>803</ele>
        <time>2021-07-28T15:30:36.000Z</time>
      </trkpt>
      <trkpt lat="43.57435" lon="2.57054">
        <ele>803</ele>
        <time>2021-07-28T15:30:40.000Z</time>
      </trkpt>
      <trkpt lat="43.57419" lon="2.57086">
        <ele>803.59997558594</ele>
        <time>2021-07-28T15:30:46.000Z</time>
      </trkpt>
      <trkpt lat="43.57414" lon="2.57092">
        <ele>804</ele>
        <time>2021-07-28T15:30:47.000Z</time>
      </trkpt>
      <trkpt lat="43.5741" lon="2.57097">
        <ele>804.40002441406</ele>
        <time>2021-07-28T15:30:48.000Z</time>
      </trkpt>
      <trkpt lat="43.57406" lon="2.57101">
        <ele>804.79998779297</ele>
        <time>2021-07-28T15:30:49.000Z</time>
      </trkpt>
      <trkpt lat="43.57401" lon="2.57105">
        <ele>805.20001220703</ele>
        <time>2021-07-28T15:30:50.000Z</time>
      </trkpt>
      <trkpt lat="43.57392" lon="2.57111">
        <ele>805.20001220703</ele>
        <time>2021-07-28T15:30:52.000Z</time>
      </trkpt>
      <trkpt lat="43.57379" lon="2.57116">
        <ele>805.20001220703</ele>
        <time>2021-07-28T15:30:55.000Z</time>
      </trkpt>
      <trkpt lat="43.5737" lon="2.57119">
        <ele>805.20001220703</ele>
        <time>2021-07-28T15:30:57.000Z</time>
      </trkpt>
      <trkpt lat="43.57339" lon="2.57126">
        <ele>805.20001220703</ele>
        <time>2021-07-28T15:31:05.000Z</time>
      </trkpt>
      <trkpt lat="43.57313" lon="2.57129">
        <ele>805.20001220703</ele>
        <time>2021-07-28T15:31:13.000Z</time>
      </trkpt>
      <trkpt lat="43.57298" lon="2.57134">
        <ele>805.20001220703</ele>
        <time>2021-07-28T15:31:19.000Z</time>
      </trkpt>
      <trkpt lat="43.57283" lon="2.57134">
        <ele>805.20001220703</ele>
        <time>2021-07-28T15:31:25.000Z</time>
      </trkpt>
      <trkpt lat="43.57259" lon="2.57136">
        <ele>805.20001220703</ele>
        <time>2021-07-28T15:31:30.000Z</time>
      </trkpt>
      <trkpt lat="43.57236" lon="2.57149">
        <ele>805.20001220703</ele>
        <time>2021-07-28T15:31:34.000Z</time>
      </trkpt>
      <trkpt lat="43.57207" lon="2.57173">
        <ele>805.20001220703</ele>
        <time>2021-07-28T15:31:39.000Z</time>
      </trkpt>
      <trkpt lat="43.57171" lon="2.572">
        <ele>804.79998779297</ele>
        <time>2021-07-28T15:31:44.000Z</time>
      </trkpt>
      <trkpt lat="43.57164" lon="2.57205">
        <ele>804.40002441406</ele>
        <time>2021-07-28T15:31:45.000Z</time>
      </trkpt>
      <trkpt lat="43.57157" lon="2.57212">
        <ele>803.79998779297</ele>
        <time>2021-07-28T15:31:46.000Z</time>
      </trkpt>
      <trkpt lat="43.5715" lon="2.57218">
        <ele>803.40002441406</ele>
        <time>2021-07-28T15:31:47.000Z</time>
      </trkpt>
      <trkpt lat="43.57142" lon="2.57224">
        <ele>803</ele>
        <time>2021-07-28T15:31:48.000Z</time>
      </trkpt>
      <trkpt lat="43.57134" lon="2.5723">
        <ele>802.59997558594</ele>
        <time>2021-07-28T15:31:49.000Z</time>
      </trkpt>
      <trkpt lat="43.57126" lon="2.57236">
        <ele>801.79998779297</ele>
        <time>2021-07-28T15:31:50.000Z</time>
      </trkpt>
      <trkpt lat="43.57118" lon="2.57242">
        <ele>801.20001220703</ele>
        <time>2021-07-28T15:31:51.000Z</time>
      </trkpt>
      <trkpt lat="43.57111" lon="2.57247">
        <ele>800.79998779297</ele>
        <time>2021-07-28T15:31:52.000Z</time>
      </trkpt>
      <trkpt lat="43.57104" lon="2.57252">
        <ele>800.79998779297</ele>
        <time>2021-07-28T15:31:53.000Z</time>
      </trkpt>
      <trkpt lat="43.57097" lon="2.57257">
        <ele>800.40002441406</ele>
        <time>2021-07-28T15:31:54.000Z</time>
      </trkpt>
      <trkpt lat="43.5709" lon="2.57262">
        <ele>800</ele>
        <time>2021-07-28T15:31:55.000Z</time>
      </trkpt>
      <trkpt lat="43.57083" lon="2.57266">
        <ele>799.59997558594</ele>
        <time>2021-07-28T15:31:56.000Z</time>
      </trkpt>
      <trkpt lat="43.57075" lon="2.57269">
        <ele>799</ele>
        <time>2021-07-28T15:31:57.000Z</time>
      </trkpt>
      <trkpt lat="43.57067" lon="2.57269">
        <ele>798.59997558594</ele>
        <time>2021-07-28T15:31:58.000Z</time>
      </trkpt>
      <trkpt lat="43.57044" lon="2.57267">
        <ele>798.59997558594</ele>
        <time>2021-07-28T15:32:01.000Z</time>
      </trkpt>
      <trkpt lat="43.57029" lon="2.57253">
        <ele>798.20001220703</ele>
        <time>2021-07-28T15:32:03.000Z</time>
      </trkpt>
      <trkpt lat="43.57022" lon="2.57245">
        <ele>797.79998779297</ele>
        <time>2021-07-28T15:32:04.000Z</time>
      </trkpt>
      <trkpt lat="43.57015" lon="2.57233">
        <ele>797.20001220703</ele>
        <time>2021-07-28T15:32:05.000Z</time>
      </trkpt>
      <trkpt lat="43.57011" lon="2.57221">
        <ele>796.79998779297</ele>
        <time>2021-07-28T15:32:06.000Z</time>
      </trkpt>
      <trkpt lat="43.57007" lon="2.57208">
        <ele>796.40002441406</ele>
        <time>2021-07-28T15:32:07.000Z</time>
      </trkpt>
      <trkpt lat="43.56988" lon="2.57161">
        <ele>796.40002441406</ele>
        <time>2021-07-28T15:32:11.000Z</time>
      </trkpt>
      <trkpt lat="43.56963" lon="2.57135">
        <ele>795.79998779297</ele>
        <time>2021-07-28T15:32:14.000Z</time>
      </trkpt>
      <trkpt lat="43.56954" lon="2.57125">
        <ele>794.79998779297</ele>
        <time>2021-07-28T15:32:15.000Z</time>
      </trkpt>
      <trkpt lat="43.56945" lon="2.57115">
        <ele>794.20001220703</ele>
        <time>2021-07-28T15:32:16.000Z</time>
      </trkpt>
      <trkpt lat="43.56935" lon="2.57105">
        <ele>793.59997558594</ele>
        <time>2021-07-28T15:32:17.000Z</time>
      </trkpt>
      <trkpt lat="43.56927" lon="2.57096">
        <ele>793</ele>
        <time>2021-07-28T15:32:18.000Z</time>
      </trkpt>
      <trkpt lat="43.56917" lon="2.57087">
        <ele>792.40002441406</ele>
        <time>2021-07-28T15:32:19.000Z</time>
      </trkpt>
      <trkpt lat="43.56908" lon="2.57077">
        <ele>791.79998779297</ele>
        <time>2021-07-28T15:32:20.000Z</time>
      </trkpt>
      <trkpt lat="43.56899" lon="2.57068">
        <ele>791.20001220703</ele>
        <time>2021-07-28T15:32:21.000Z</time>
      </trkpt>
      <trkpt lat="43.5689" lon="2.57059">
        <ele>790.40002441406</ele>
        <time>2021-07-28T15:32:22.000Z</time>
      </trkpt>
      <trkpt lat="43.56881" lon="2.57049">
        <ele>789.79998779297</ele>
        <time>2021-07-28T15:32:23.000Z</time>
      </trkpt>
      <trkpt lat="43.56873" lon="2.5704">
        <ele>789.40002441406</ele>
        <time>2021-07-28T15:32:24.000Z</time>
      </trkpt>
      <trkpt lat="43.56865" lon="2.57031">
        <ele>788.79998779297</ele>
        <time>2021-07-28T15:32:25.000Z</time>
      </trkpt>
      <trkpt lat="43.56856" lon="2.57022">
        <ele>788.20001220703</ele>
        <time>2021-07-28T15:32:26.000Z</time>
      </trkpt>
      <trkpt lat="43.56848" lon="2.57013">
        <ele>787.59997558594</ele>
        <time>2021-07-28T15:32:27.000Z</time>
      </trkpt>
      <trkpt lat="43.56841" lon="2.57003">
        <ele>787</ele>
        <time>2021-07-28T15:32:28.000Z</time>
      </trkpt>
      <trkpt lat="43.5682" lon="2.56977">
        <ele>786.59997558594</ele>
        <time>2021-07-28T15:32:31.000Z</time>
      </trkpt>
      <trkpt lat="43.56813" lon="2.56967">
        <ele>786.20001220703</ele>
        <time>2021-07-28T15:32:32.000Z</time>
      </trkpt>
      <trkpt lat="43.56807" lon="2.56957">
        <ele>785.79998779297</ele>
        <time>2021-07-28T15:32:33.000Z</time>
      </trkpt>
      <trkpt lat="43.56801" lon="2.56947">
        <ele>785.40002441406</ele>
        <time>2021-07-28T15:32:34.000Z</time>
      </trkpt>
      <trkpt lat="43.56795" lon="2.56937">
        <ele>785</ele>
        <time>2021-07-28T15:32:35.000Z</time>
      </trkpt>
      <trkpt lat="43.56789" lon="2.56928">
        <ele>784.59997558594</ele>
        <time>2021-07-28T15:32:36.000Z</time>
      </trkpt>
      <trkpt lat="43.56784" lon="2.56918">
        <ele>784.20001220703</ele>
        <time>2021-07-28T15:32:37.000Z</time>
      </trkpt>
      <trkpt lat="43.56779" lon="2.56909">
        <ele>783.79998779297</ele>
        <time>2021-07-28T15:32:38.000Z</time>
      </trkpt>
      <trkpt lat="43.56774" lon="2.56899">
        <ele>783.40002441406</ele>
        <time>2021-07-28T15:32:39.000Z</time>
      </trkpt>
      <trkpt lat="43.56769" lon="2.56891">
        <ele>783</ele>
        <time>2021-07-28T15:32:40.000Z</time>
      </trkpt>
      <trkpt lat="43.56758" lon="2.56874">
        <ele>782.59997558594</ele>
        <time>2021-07-28T15:32:42.000Z</time>
      </trkpt>
      <trkpt lat="43.56753" lon="2.56866">
        <ele>782.20001220703</ele>
        <time>2021-07-28T15:32:43.000Z</time>
      </trkpt>
      <trkpt lat="43.56747" lon="2.56857">
        <ele>781.79998779297</ele>
        <time>2021-07-28T15:32:44.000Z</time>
      </trkpt>
      <trkpt lat="43.56741" lon="2.56848">
        <ele>781.20001220703</ele>
        <time>2021-07-28T15:32:45.000Z</time>
      </trkpt>
      <trkpt lat="43.56735" lon="2.5684">
        <ele>780.79998779297</ele>
        <time>2021-07-28T15:32:46.000Z</time>
      </trkpt>
      <trkpt lat="43.56723" lon="2.56821">
        <ele>780.40002441406</ele>
        <time>2021-07-28T15:32:48.000Z</time>
      </trkpt>
      <trkpt lat="43.56719" lon="2.5681">
        <ele>779.79998779297</ele>
        <time>2021-07-28T15:32:49.000Z</time>
      </trkpt>
      <trkpt lat="43.56716" lon="2.56798">
        <ele>779.40002441406</ele>
        <time>2021-07-28T15:32:50.000Z</time>
      </trkpt>
      <trkpt lat="43.56714" lon="2.56786">
        <ele>779</ele>
        <time>2021-07-28T15:32:51.000Z</time>
      </trkpt>
      <trkpt lat="43.56715" lon="2.56773">
        <ele>778.40002441406</ele>
        <time>2021-07-28T15:32:52.000Z</time>
      </trkpt>
      <trkpt lat="43.56718" lon="2.56761">
        <ele>778</ele>
        <time>2021-07-28T15:32:53.000Z</time>
      </trkpt>
      <trkpt lat="43.56721" lon="2.56749">
        <ele>777.59997558594</ele>
        <time>2021-07-28T15:32:54.000Z</time>
      </trkpt>
      <trkpt lat="43.56724" lon="2.56739">
        <ele>777</ele>
        <time>2021-07-28T15:32:55.000Z</time>
      </trkpt>
      <trkpt lat="43.56727" lon="2.56732">
        <ele>776.59997558594</ele>
        <time>2021-07-28T15:32:56.000Z</time>
      </trkpt>
      <trkpt lat="43.56732" lon="2.56728">
        <ele>776.20001220703</ele>
        <time>2021-07-28T15:32:57.000Z</time>
      </trkpt>
      <trkpt lat="43.56743" lon="2.56731">
        <ele>775.79998779297</ele>
        <time>2021-07-28T15:32:59.000Z</time>
      </trkpt>
      <trkpt lat="43.56749" lon="2.56736">
        <ele>775.20001220703</ele>
        <time>2021-07-28T15:33:00.000Z</time>
      </trkpt>
      <trkpt lat="43.56753" lon="2.56744">
        <ele>774.79998779297</ele>
        <time>2021-07-28T15:33:01.000Z</time>
      </trkpt>
      <trkpt lat="43.56759" lon="2.5675">
        <ele>774.40002441406</ele>
        <time>2021-07-28T15:33:02.000Z</time>
      </trkpt>
      <trkpt lat="43.56765" lon="2.56757">
        <ele>773.79998779297</ele>
        <time>2021-07-28T15:33:03.000Z</time>
      </trkpt>
      <trkpt lat="43.56771" lon="2.56764">
        <ele>772.79998779297</ele>
        <time>2021-07-28T15:33:04.000Z</time>
      </trkpt>
      <trkpt lat="43.56776" lon="2.5677">
        <ele>772.40002441406</ele>
        <time>2021-07-28T15:33:05.000Z</time>
      </trkpt>
      <trkpt lat="43.56782" lon="2.56777">
        <ele>771.79998779297</ele>
        <time>2021-07-28T15:33:06.000Z</time>
      </trkpt>
      <trkpt lat="43.56801" lon="2.56801">
        <ele>771.79998779297</ele>
        <time>2021-07-28T15:33:10.000Z</time>
      </trkpt>
      <trkpt lat="43.56826" lon="2.56831">
        <ele>771.79998779297</ele>
        <time>2021-07-28T15:33:16.000Z</time>
      </trkpt>
      <trkpt lat="43.5684" lon="2.56861">
        <ele>771.79998779297</ele>
        <time>2021-07-28T15:33:21.000Z</time>
      </trkpt>
      <trkpt lat="43.56853" lon="2.56887">
        <ele>771.79998779297</ele>
        <time>2021-07-28T15:33:26.000Z</time>
      </trkpt>
      <trkpt lat="43.56857" lon="2.56898">
        <ele>771.79998779297</ele>
        <time>2021-07-28T15:33:28.000Z</time>
      </trkpt>
      <trkpt lat="43.56859" lon="2.56904">
        <ele>772.59997558594</ele>
        <time>2021-07-28T15:33:29.000Z</time>
      </trkpt>
      <trkpt lat="43.56861" lon="2.5691">
        <ele>773</ele>
        <time>2021-07-28T15:33:30.000Z</time>
      </trkpt>
      <trkpt lat="43.56863" lon="2.56915">
        <ele>773.40002441406</ele>
        <time>2021-07-28T15:33:31.000Z</time>
      </trkpt>
      <trkpt lat="43.56866" lon="2.5692">
        <ele>774</ele>
        <time>2021-07-28T15:33:32.000Z</time>
      </trkpt>
      <trkpt lat="43.5687" lon="2.56931">
        <ele>774</ele>
        <time>2021-07-28T15:33:34.000Z</time>
      </trkpt>
      <trkpt lat="43.56878" lon="2.56945">
        <ele>774</ele>
        <time>2021-07-28T15:33:37.000Z</time>
      </trkpt>
      <trkpt lat="43.56884" lon="2.56954">
        <ele>774.40002441406</ele>
        <time>2021-07-28T15:33:39.000Z</time>
      </trkpt>
      <trkpt lat="43.56887" lon="2.56957">
        <ele>774.79998779297</ele>
        <time>2021-07-28T15:33:40.000Z</time>
      </trkpt>
      <trkpt lat="43.5689" lon="2.56961">
        <ele>775.20001220703</ele>
        <time>2021-07-28T15:33:41.000Z</time>
      </trkpt>
      <trkpt lat="43.56894" lon="2.56965">
        <ele>775.59997558594</ele>
        <time>2021-07-28T15:33:42.000Z</time>
      </trkpt>
      <trkpt lat="43.56897" lon="2.56968">
        <ele>776</ele>
        <time>2021-07-28T15:33:43.000Z</time>
      </trkpt>
      <trkpt lat="43.56903" lon="2.56975">
        <ele>776</ele>
        <time>2021-07-28T15:33:45.000Z</time>
      </trkpt>
      <trkpt lat="43.56931" lon="2.57006">
        <ele>776.40002441406</ele>
        <time>2021-07-28T15:33:53.000Z</time>
      </trkpt>
      <trkpt lat="43.56935" lon="2.57009">
        <ele>777.20001220703</ele>
        <time>2021-07-28T15:33:54.000Z</time>
      </trkpt>
      <trkpt lat="43.56939" lon="2.57012">
        <ele>777.59997558594</ele>
        <time>2021-07-28T15:33:55.000Z</time>
      </trkpt>
      <trkpt lat="43.56943" lon="2.57015">
        <ele>778</ele>
        <time>2021-07-28T15:33:56.000Z</time>
      </trkpt>
      <trkpt lat="43.56957" lon="2.5702">
        <ele>778</ele>
        <time>2021-07-28T15:33:59.000Z</time>
      </trkpt>
      <trkpt lat="43.56973" lon="2.57025">
        <ele>778</ele>
        <time>2021-07-28T15:34:03.000Z</time>
      </trkpt>
      <trkpt lat="43.56979" lon="2.57027">
        <ele>778.40002441406</ele>
        <time>2021-07-28T15:34:07.000Z</time>
      </trkpt>
      <trkpt lat="43.5698" lon="2.57028">
        <ele>778.79998779297</ele>
        <time>2021-07-28T15:34:08.000Z</time>
      </trkpt>
      <trkpt lat="43.56982" lon="2.57028">
        <ele>779.20001220703</ele>
        <time>2021-07-28T15:34:09.000Z</time>
      </trkpt>
      <trkpt lat="43.56984" lon="2.57029">
        <ele>779.79998779297</ele>
        <time>2021-07-28T15:34:10.000Z</time>
      </trkpt>
      <trkpt lat="43.56985" lon="2.5703">
        <ele>780.20001220703</ele>
        <time>2021-07-28T15:34:11.000Z</time>
      </trkpt>
      <trkpt lat="43.56989" lon="2.57033">
        <ele>780.59997558594</ele>
        <time>2021-07-28T15:34:14.000Z</time>
      </trkpt>
      <trkpt lat="43.56991" lon="2.57034">
        <ele>781</ele>
        <time>2021-07-28T15:34:15.000Z</time>
      </trkpt>
      <trkpt lat="43.56992" lon="2.57035">
        <ele>781.40002441406</ele>
        <time>2021-07-28T15:34:16.000Z</time>
      </trkpt>
      <trkpt lat="43.56994" lon="2.57036">
        <ele>782</ele>
        <time>2021-07-28T15:34:17.000Z</time>
      </trkpt>
      <trkpt lat="43.56995" lon="2.57037">
        <ele>782.40002441406</ele>
        <time>2021-07-28T15:34:18.000Z</time>
      </trkpt>
      <trkpt lat="43.56998" lon="2.57039">
        <ele>782.79998779297</ele>
        <time>2021-07-28T15:34:20.000Z</time>
      </trkpt>
      <trkpt lat="43.56999" lon="2.5704">
        <ele>783.20001220703</ele>
        <time>2021-07-28T15:34:21.000Z</time>
      </trkpt>
      <trkpt lat="43.57" lon="2.57042">
        <ele>783.59997558594</ele>
        <time>2021-07-28T15:34:22.000Z</time>
      </trkpt>
      <trkpt lat="43.57001" lon="2.57043">
        <ele>784</ele>
        <time>2021-07-28T15:34:23.000Z</time>
      </trkpt>
      <trkpt lat="43.57002" lon="2.57045">
        <ele>784.40002441406</ele>
        <time>2021-07-28T15:34:24.000Z</time>
      </trkpt>
      <trkpt lat="43.56999" lon="2.57051">
        <ele>784.79998779297</ele>
        <time>2021-07-28T15:34:28.000Z</time>
      </trkpt>
      <trkpt lat="43.56997" lon="2.57051">
        <ele>785.20001220703</ele>
        <time>2021-07-28T15:34:29.000Z</time>
      </trkpt>
      <trkpt lat="43.56996" lon="2.57051">
        <ele>785.79998779297</ele>
        <time>2021-07-28T15:34:30.000Z</time>
      </trkpt>
      <trkpt lat="43.56995" lon="2.57052">
        <ele>786.20001220703</ele>
        <time>2021-07-28T15:34:31.000Z</time>
      </trkpt>
      <trkpt lat="43.56994" lon="2.57052">
        <ele>786.59997558594</ele>
        <time>2021-07-28T15:34:32.000Z</time>
      </trkpt>
    </trkseg>
  </trk>
</gpx>